Wetterdaten: Montag, 12.09.2016
Datum Zeit Temp. A. Temp. A. max Feuchte A. Luftdruck Regen Wind Richtung Richtung Sonnenschein ET UV Solar Taupunkt Windben
12.09.2016 00:00 13,4 C 13,4 C 92 % 1017,0 hPa 0,0 mm 0,4 km/h (0 Bft) N 355 0 min 0,000 mm 0,0 UV-I 0 W/m 12,1 C 1,6 km/h (1 Bft)
12.09.2016 00:01 13,4 C 13,4 C 93 % 1017,0 hPa 0,0 mm 0,4 km/h (0 Bft) N 355 0 min 0,000 mm 0,0 UV-I 0 W/m 12,3 C 1,6 km/h (1 Bft)
12.09.2016 00:02 13,3 C 13,4 C 92 % 1017,0 hPa 0,0 mm 0,0 km/h (0 Bft) N 355 0 min 0,000 mm 0,0 UV-I 0 W/m 12,0 C 0,0 km/h (0 Bft)
12.09.2016 00:03 13,3 C 13,3 C 92 % 1017,0 hPa 0,0 mm 0,0 km/h (0 Bft) N 355 0 min 0,000 mm 0,0 UV-I 0 W/m 12,0 C 0,0 km/h (0 Bft)
12.09.2016 00:04 13,3 C 13,3 C 92 % 1016,9 hPa 0,0 mm 0,0 km/h (0 Bft) N 355 0 min 0,000 mm 0,0 UV-I 0 W/m 12,0 C 0,0 km/h (0 Bft)
12.09.2016 00:05 13,3 C 13,3 C 91 % 1016,9 hPa 0,0 mm 0,0 km/h (0 Bft) N 355 0 min 0,000 mm 0,0 UV-I 0 W/m 11,9 C 0,0 km/h (0 Bft)
12.09.2016 00:06 13,2 C 13,3 C 91 % 1017,0 hPa 0,0 mm 0,0 km/h (0 Bft) N 355 0 min 0,000 mm 0,0 UV-I 0 W/m 11,8 C 0,0 km/h (0 Bft)
12.09.2016 00:07 13,2 C 13,2 C 92 % 1016,9 hPa 0,0 mm 0,8 km/h (0 Bft) N 355 0 min 0,000 mm 0,0 UV-I 0 W/m 11,9 C 1,6 km/h (1 Bft)
12.09.2016 00:09 13,2 C 13,2 C 92 % 1016,9 hPa 0,0 mm 0,4 km/h (0 Bft) N 355 0 min 0,000 mm 0,0 UV-I 0 W/m 11,9 C 1,6 km/h (1 Bft)
12.09.2016 00:10 13,2 C 13,2 C 92 % 1016,9 hPa 0,0 mm 0,5 km/h (0 Bft) N 355 0 min 0,000 mm 0,0 UV-I 0 W/m 11,9 C 3,2 km/h (1 Bft)
12.09.2016 00:11 13,2 C 13,2 C 92 % 1016,9 hPa 0,0 mm 2,1 km/h (1 Bft) N 355 0 min 0,000 mm 0,0 UV-I 0 W/m 11,9 C 3,2 km/h (1 Bft)
12.09.2016 00:12 13,2 C 13,2 C 92 % 1016,9 hPa 0,0 mm 0,8 km/h (0 Bft) N 355 0 min 0,000 mm 0,0 UV-I 0 W/m 11,9 C 3,2 km/h (1 Bft)
12.09.2016 00:13 13,2 C 13,2 C 92 % 1016,9 hPa 0,0 mm 0,1 km/h (0 Bft) N 355 0 min 0,000 mm 0,0 UV-I 0 W/m 11,9 C 1,6 km/h (1 Bft)
12.09.2016 00:14 13,2 C 13,2 C 92 % 1016,9 hPa 0,0 mm 0,0 km/h (0 Bft) N 355 0 min 0,000 mm 0,0 UV-I 0 W/m 11,9 C 0,0 km/h (0 Bft)
12.09.2016 00:15 13,2 C 13,2 C 92 % 1016,9 hPa 0,0 mm 0,0 km/h (0 Bft) N 355 0 min 0,000 mm 0,0 UV-I 0 W/m 11,9 C 0,0 km/h (0 Bft)
12.09.2016 00:16 13,2 C 13,2 C 92 % 1016,9 hPa 0,0 mm 0,4 km/h (0 Bft) N 355 0 min 0,000 mm 0,0 UV-I 0 W/m 11,9 C 1,6 km/h (1 Bft)
12.09.2016 00:17 13,1 C 13,2 C 92 % 1017,0 hPa 0,0 mm 1,3 km/h (1 Bft) N 355 0 min 0,000 mm 0,0 UV-I 0 W/m 11,8 C 1,6 km/h (1 Bft)
12.09.2016 00:18 13,1 C 13,2 C 92 % 1017,0 hPa 0,0 mm 0,2 km/h (0 Bft) N 355 0 min 0,000 mm 0,0 UV-I 0 W/m 11,8 C 1,6 km/h (1 Bft)
12.09.2016 00:19 13,1 C 13,2 C 92 % 1016,9 hPa 0,0 mm 1,2 km/h (1 Bft) N 355 0 min 0,000 mm 0,0 UV-I 0 W/m 11,8 C 1,6 km/h (1 Bft)
12.09.2016 00:20 13,1 C 13,1 C 92 % 1016,9 hPa 0,0 mm 1,4 km/h (1 Bft) N 355 0 min 0,000 mm 0,0 UV-I 0 W/m 11,8 C 1,6 km/h (1 Bft)
12.09.2016 00:21 13,1 C 13,1 C 92 % 1016,9 hPa 0,0 mm 0,2 km/h (0 Bft) N 355 0 min 0,000 mm 0,0 UV-I 0 W/m 11,8 C 1,6 km/h (1 Bft)
12.09.2016 00:22 13,1 C 13,1 C 92 % 1016,9 hPa 0,0 mm 1,3 km/h (1 Bft) N 355 0 min 0,000 mm 0,0 UV-I 0 W/m 11,8 C 1,6 km/h (1 Bft)
12.09.2016 00:23 13,1 C 13,1 C 92 % 1016,9 hPa 0,0 mm 0,4 km/h (0 Bft) N 355 0 min 0,000 mm 0,0 UV-I 0 W/m 11,8 C 1,6 km/h (1 Bft)
12.09.2016 00:24 13,2 C 13,2 C 92 % 1016,9 hPa 0,0 mm 0,0 km/h (0 Bft) N 355 0 min 0,000 mm 0,0 UV-I 0 W/m 11,9 C 0,0 km/h (0 Bft)
12.09.2016 00:25 13,1 C 13,2 C 92 % 1016,9 hPa 0,0 mm 0,0 km/h (0 Bft) N 355 0 min 0,000 mm 0,0 UV-I 0 W/m 11,8 C 0,0 km/h (0 Bft)
12.09.2016 00:26 13,2 C 13,2 C 92 % 1016,9 hPa 0,0 mm 0,0 km/h (0 Bft) N 355 0 min 0,000 mm 0,0 UV-I 0 W/m 11,9 C 0,0 km/h (0 Bft)
12.09.2016 00:27 13,1 C 13,2 C 92 % 1016,9 hPa 0,0 mm 0,0 km/h (0 Bft) N 355 0 min 0,000 mm 0,0 UV-I 0 W/m 11,8 C 0,0 km/h (0 Bft)
12.09.2016 00:28 13,1 C 13,1 C 91 % 1016,9 hPa 0,0 mm 0,0 km/h (0 Bft) N 355 0 min 0,000 mm 0,0 UV-I 0 W/m 11,7 C 0,0 km/h (0 Bft)
12.09.2016 00:29 13,1 C 13,1 C 91 % 1016,9 hPa 0,0 mm 0,0 km/h (0 Bft) N 355 0 min 0,000 mm 0,0 UV-I 0 W/m 11,7 C 0,0 km/h (0 Bft)
12.09.2016 00:30 13,1 C 13,1 C 91 % 1016,9 hPa 0,0 mm 0,0 km/h (0 Bft) N 355 0 min 0,000 mm 0,0 UV-I 0 W/m 11,7 C 0,0 km/h (0 Bft)
12.09.2016 00:31 13,0 C 13,1 C 91 % 1016,9 hPa 0,0 mm 0,0 km/h (0 Bft) N 355 0 min 0,000 mm 0,0 UV-I 0 W/m 11,6 C 0,0 km/h (0 Bft)
12.09.2016 00:32 12,9 C 13,0 C 91 % 1016,9 hPa 0,0 mm 0,0 km/h (0 Bft) N 355 0 min 0,000 mm 0,0 UV-I 0 W/m 11,5 C 0,0 km/h (0 Bft)
12.09.2016 00:33 12,9 C 12,9 C 91 % 1016,9 hPa 0,0 mm 0,0 km/h (0 Bft) N 355 0 min 0,000 mm 0,0 UV-I 0 W/m 11,5 C 0,0 km/h (0 Bft)
12.09.2016 00:34 12,8 C 12,9 C 91 % 1016,8 hPa 0,0 mm 0,0 km/h (0 Bft) N 355 0 min 0,000 mm 0,0 UV-I 0 W/m 11,4 C 0,0 km/h (0 Bft)
12.09.2016 00:35 12,8 C 12,8 C 91 % 1016,8 hPa 0,0 mm 0,2 km/h (0 Bft) N 355 0 min 0,000 mm 0,0 UV-I 0 W/m 11,4 C 1,6 km/h (1 Bft)
12.09.2016 00:36 12,8 C 12,8 C 92 % 1016,9 hPa 0,0 mm 1,0 km/h (0 Bft) N 355 0 min 0,000 mm 0,0 UV-I 0 W/m 11,5 C 1,6 km/h (1 Bft)
12.09.2016 00:37 12,8 C 12,8 C 92 % 1016,9 hPa 0,0 mm 0,3 km/h (0 Bft) N 355 0 min 0,000 mm 0,0 UV-I 0 W/m 11,5 C 1,6 km/h (1 Bft)
12.09.2016 00:38 12,8 C 12,8 C 92 % 1016,8 hPa 0,0 mm 0,0 km/h (0 Bft) N 355 0 min 0,000 mm 0,0 UV-I 0 W/m 11,5 C 0,0 km/h (0 Bft)
12.09.2016 00:39 12,8 C 12,8 C 92 % 1016,8 hPa 0,0 mm 0,3 km/h (0 Bft) N 355 0 min 0,000 mm 0,0 UV-I 0 W/m 11,5 C 1,6 km/h (1 Bft)
12.09.2016 00:40 12,8 C 12,8 C 92 % 1016,8 hPa 0,0 mm 0,0 km/h (0 Bft) N 355 0 min 0,000 mm 0,0 UV-I 0 W/m 11,5 C 0,0 km/h (0 Bft)
12.09.2016 00:41 12,8 C 12,8 C 92 % 1016,8 hPa 0,0 mm 0,2 km/h (0 Bft) N 355 0 min 0,000 mm 0,0 UV-I 0 W/m 11,5 C 1,6 km/h (1 Bft)
12.09.2016 00:42 12,8 C 12,8 C 92 % 1016,8 hPa 0,0 mm 0,2 km/h (0 Bft) N 355 0 min 0,000 mm 0,0 UV-I 0 W/m 11,5 C 1,6 km/h (1 Bft)
12.09.2016 00:43 12,9 C 12,9 C 92 % 1016,8 hPa 0,0 mm 0,1 km/h (0 Bft) N 355 0 min 0,000 mm 0,0 UV-I 0 W/m 11,6 C 1,6 km/h (1 Bft)
12.09.2016 00:44 12,8 C 12,9 C 91 % 1016,8 hPa 0,0 mm 0,2 km/h (0 Bft) N 355 0 min 0,000 mm 0,0 UV-I 0 W/m 11,4 C 1,6 km/h (1 Bft)
12.09.2016 00:45 12,8 C 12,8 C 90 % 1016,8 hPa 0,0 mm 0,2 km/h (0 Bft) N 355 0 min 0,000 mm 0,0 UV-I 0 W/m 11,2 C 1,6 km/h (1 Bft)
12.09.2016 00:46 12,8 C 12,8 C 91 % 1016,8 hPa 0,0 mm 0,0 km/h (0 Bft) N 355 0 min 0,000 mm 0,0 UV-I 0 W/m 11,4 C 0,0 km/h (0 Bft)
12.09.2016 00:47 12,7 C 12,8 C 91 % 1016,8 hPa 0,0 mm 0,0 km/h (0 Bft) N 355 0 min 0,000 mm 0,0 UV-I 0 W/m 11,3 C 0,0 km/h (0 Bft)
12.09.2016 00:48 12,8 C 12,8 C 92 % 1016,8 hPa 0,0 mm 0,0 km/h (0 Bft) N 355 0 min 0,000 mm 0,0 UV-I 0 W/m 11,5 C 0,0 km/h (0 Bft)
12.09.2016 00:49 12,8 C 12,8 C 92 % 1016,8 hPa 0,0 mm 0,0 km/h (0 Bft) N 355 0 min 0,000 mm 0,0 UV-I 0 W/m 11,5 C 0,0 km/h (0 Bft)
12.09.2016 00:50 12,8 C 12,8 C 92 % 1016,6 hPa 0,0 mm 0,0 km/h (0 Bft) N 355 0 min 0,000 mm 0,0 UV-I 0 W/m 11,5 C 0,0 km/h (0 Bft)
12.09.2016 00:51 12,8 C 12,8 C 92 % 1016,6 hPa 0,0 mm 0,0 km/h (0 Bft) N 355 0 min 0,000 mm 0,0 UV-I 0 W/m 11,5 C 0,0 km/h (0 Bft)
12.09.2016 00:52 12,8 C 12,8 C 92 % 1016,6 hPa 0,0 mm 0,0 km/h (0 Bft) N 355 0 min 0,000 mm 0,0 UV-I 0 W/m 11,5 C 0,0 km/h (0 Bft)
12.09.2016 00:53 12,8 C 12,8 C 92 % 1016,6 hPa 0,0 mm 0,0 km/h (0 Bft) N 355 0 min 0,000 mm 0,0 UV-I 0 W/m 11,5 C 0,0 km/h (0 Bft)
12.09.2016 00:54 12,8 C 12,8 C 91 % 1016,6 hPa 0,0 mm 0,0 km/h (0 Bft) N 355 0 min 0,000 mm 0,0 UV-I 0 W/m 11,4 C 0,0 km/h (0 Bft)
12.09.2016 00:55 12,8 C 12,8 C 91 % 1016,5 hPa 0,0 mm 0,0 km/h (0 Bft) N 355 0 min 0,000 mm 0,0 UV-I 0 W/m 11,4 C 0,0 km/h (0 Bft)
12.09.2016 00:56 12,8 C 12,8 C 92 % 1016,5 hPa 0,0 mm 0,0 km/h (0 Bft) N 355 0 min 0,000 mm 0,0 UV-I 0 W/m 11,5 C 0,0 km/h (0 Bft)
12.09.2016 00:57 12,7 C 12,8 C 91 % 1016,6 hPa 0,0 mm 0,0 km/h (0 Bft) N 355 0 min 0,000 mm 0,0 UV-I 0 W/m 11,3 C 0,0 km/h (0 Bft)
12.09.2016 00:58 12,6 C 12,7 C 91 % 1016,6 hPa 0,0 mm 0,0 km/h (0 Bft) N 355 0 min 0,000 mm 0,0 UV-I 0 W/m 11,2 C 0,0 km/h (0 Bft)
12.09.2016 00:59 12,6 C 12,6 C 92 % 1016,6 hPa 0,0 mm 2,3 km/h (1 Bft) N 355 0 min 0,000 mm 0,0 UV-I 0 W/m 11,3 C 3,2 km/h (1 Bft)
12.09.2016 01:00 12,6 C 12,6 C 91 % 1016,6 hPa 0,0 mm 0,3 km/h (0 Bft) N 355 0 min 0,000 mm 0,0 UV-I 0 W/m 11,2 C 1,6 km/h (1 Bft)
12.09.2016 01:01 12,5 C 12,6 C 91 % 1016,6 hPa 0,0 mm 0,8 km/h (0 Bft) N 355 0 min 0,000 mm 0,0 UV-I 0 W/m 11,1 C 1,6 km/h (1 Bft)
12.09.2016 01:02 12,4 C 12,5 C 91 % 1016,6 hPa 0,0 mm 4,0 km/h (1 Bft) NW 321 0 min 0,000 mm 0,0 UV-I 0 W/m 11,0 C 4,8 km/h (1 Bft)
12.09.2016 01:03 12,4 C 12,4 C 91 % 1016,6 hPa 0,0 mm 2,5 km/h (1 Bft) NW 321 0 min 0,000 mm 0,0 UV-I 0 W/m 11,0 C 4,8 km/h (1 Bft)
12.09.2016 01:04 12,3 C 12,4 C 91 % 1016,6 hPa 0,0 mm 1,1 km/h (1 Bft) NW 321 0 min 0,000 mm 0,0 UV-I 0 W/m 10,9 C 3,2 km/h (1 Bft)
12.09.2016 01:05 12,3 C 12,3 C 92 % 1016,6 hPa 0,0 mm 0,0 km/h (0 Bft) NW 321 0 min 0,000 mm 0,0 UV-I 0 W/m 11,0 C 0,0 km/h (0 Bft)
12.09.2016 01:06 12,3 C 12,3 C 92 % 1016,7 hPa 0,0 mm 0,0 km/h (0 Bft) NW 321 0 min 0,000 mm 0,0 UV-I 0 W/m 11,0 C 0,0 km/h (0 Bft)
12.09.2016 01:07 12,2 C 12,3 C 92 % 1016,6 hPa 0,0 mm 0,0 km/h (0 Bft) NW 321 0 min 0,000 mm 0,0 UV-I 0 W/m 10,9 C 0,0 km/h (0 Bft)
12.09.2016 01:08 12,2 C 12,2 C 92 % 1016,6 hPa 0,0 mm 0,0 km/h (0 Bft) NW 321 0 min 0,000 mm 0,0 UV-I 0 W/m 10,9 C 0,0 km/h (0 Bft)
12.09.2016 01:09 12,3 C 12,3 C 92 % 1016,6 hPa 0,0 mm 0,0 km/h (0 Bft) NW 321 0 min 0,000 mm 0,0 UV-I 0 W/m 11,0 C 0,0 km/h (0 Bft)
12.09.2016 01:10 12,3 C 12,3 C 92 % 1016,6 hPa 0,0 mm 0,0 km/h (0 Bft) NW 321 0 min 0,000 mm 0,0 UV-I 0 W/m 11,0 C 0,0 km/h (0 Bft)
12.09.2016 01:11 12,3 C 12,3 C 92 % 1016,6 hPa 0,0 mm 0,1 km/h (0 Bft) NW 319 0 min 0,000 mm 0,0 UV-I 0 W/m 11,0 C 1,6 km/h (1 Bft)
12.09.2016 01:12 12,3 C 12,3 C 92 % 1016,6 hPa 0,0 mm 0,2 km/h (0 Bft) NW 319 0 min 0,000 mm 0,0 UV-I 0 W/m 11,0 C 1,6 km/h (1 Bft)
12.09.2016 01:13 12,3 C 12,3 C 92 % 1016,6 hPa 0,0 mm 0,3 km/h (0 Bft) NW 319 0 min 0,000 mm 0,0 UV-I 0 W/m 11,0 C 1,6 km/h (1 Bft)
12.09.2016 01:14 12,4 C 12,4 C 92 % 1016,7 hPa 0,0 mm 1,3 km/h (1 Bft) NW 320 0 min 0,000 mm 0,0 UV-I 0 W/m 11,1 C 3,2 km/h (1 Bft)
12.09.2016 01:15 12,3 C 12,4 C 91 % 1016,6 hPa 0,0 mm 0,4 km/h (0 Bft) NW 320 0 min 0,000 mm 0,0 UV-I 0 W/m 10,9 C 1,6 km/h (1 Bft)
12.09.2016 01:16 12,4 C 12,4 C 91 % 1016,6 hPa 0,0 mm 0,4 km/h (0 Bft) NW 320 0 min 0,000 mm 0,0 UV-I 0 W/m 11,0 C 1,6 km/h (1 Bft)
12.09.2016 01:17 12,4 C 12,4 C 92 % 1016,6 hPa 0,0 mm 0,1 km/h (0 Bft) NW 320 0 min 0,000 mm 0,0 UV-I 0 W/m 11,1 C 1,6 km/h (1 Bft)
12.09.2016 01:18 12,5 C 12,5 C 92 % 1016,6 hPa 0,0 mm 0,8 km/h (0 Bft) NW 320 0 min 0,000 mm 0,0 UV-I 0 W/m 11,2 C 1,6 km/h (1 Bft)
12.09.2016 01:19 12,6 C 12,6 C 91 % 1016,6 hPa 0,0 mm 0,7 km/h (0 Bft) NW 320 0 min 0,000 mm 0,0 UV-I 0 W/m 11,2 C 1,6 km/h (1 Bft)
12.09.2016 01:20 12,6 C 12,6 C 91 % 1016,6 hPa 0,0 mm 1,1 km/h (1 Bft) NW 320 0 min 0,000 mm 0,0 UV-I 0 W/m 11,2 C 1,6 km/h (1 Bft)
12.09.2016 01:21 12,7 C 12,7 C 91 % 1016,6 hPa 0,0 mm 0,1 km/h (0 Bft) NW 320 0 min 0,000 mm 0,0 UV-I 0 W/m 11,3 C 1,6 km/h (1 Bft)
12.09.2016 01:22 12,8 C 12,8 C 90 % 1016,6 hPa 0,0 mm 0,8 km/h (0 Bft) NW 320 0 min 0,000 mm 0,0 UV-I 0 W/m 11,2 C 1,6 km/h (1 Bft)
12.09.2016 01:23 12,8 C 12,8 C 91 % 1016,6 hPa 0,0 mm 0,1 km/h (0 Bft) NW 320 0 min 0,000 mm 0,0 UV-I 0 W/m 11,4 C 1,6 km/h (1 Bft)
12.09.2016 01:24 12,9 C 12,9 C 90 % 1016,6 hPa 0,0 mm 0,1 km/h (0 Bft) NW 320 0 min 0,000 mm 0,0 UV-I 0 W/m 11,3 C 1,6 km/h (1 Bft)
12.09.2016 01:25 12,9 C 12,9 C 90 % 1016,6 hPa 0,0 mm 0,5 km/h (0 Bft) NW 320 0 min 0,000 mm 0,0 UV-I 0 W/m 11,3 C 1,6 km/h (1 Bft)
12.09.2016 01:26 12,9 C 12,9 C 90 % 1016,6 hPa 0,0 mm 0,0 km/h (0 Bft) NW 320 0 min 0,000 mm 0,0 UV-I 0 W/m 11,3 C 0,0 km/h (0 Bft)
12.09.2016 01:27 12,9 C 12,9 C 90 % 1016,6 hPa 0,0 mm 0,0 km/h (0 Bft) NW 320 0 min 0,000 mm 0,0 UV-I 0 W/m 11,3 C 0,0 km/h (0 Bft)
12.09.2016 01:28 12,9 C 12,9 C 89 % 1016,6 hPa 0,0 mm 0,0 km/h (0 Bft) NW 320 0 min 0,000 mm 0,0 UV-I 0 W/m 11,1 C 0,0 km/h (0 Bft)
12.09.2016 01:29 12,8 C 12,9 C 89 % 1016,7 hPa 0,0 mm 0,0 km/h (0 Bft) NW 320 0 min 0,000 mm 0,0 UV-I 0 W/m 11,0 C 0,0 km/h (0 Bft)
12.09.2016 01:30 12,8 C 12,8 C 90 % 1016,7 hPa 0,0 mm 0,0 km/h (0 Bft) NW 320 0 min 0,000 mm 0,0 UV-I 0 W/m 11,2 C 0,0 km/h (0 Bft)
12.09.2016 01:31 12,8 C 12,8 C 90 % 1016,7 hPa 0,0 mm 0,0 km/h (0 Bft) NW 320 0 min 0,000 mm 0,0 UV-I 0 W/m 11,2 C 0,0 km/h (0 Bft)
12.09.2016 01:32 12,8 C 12,8 C 91 % 1016,7 hPa 0,0 mm 0,0 km/h (0 Bft) NW 320 0 min 0,000 mm 0,0 UV-I 0 W/m 11,4 C 0,0 km/h (0 Bft)
12.09.2016 01:33 12,8 C 12,9 C 90 % 1016,7 hPa 0,0 mm 0,0 km/h (0 Bft) NW 320 0 min 0,000 mm 0,0 UV-I 0 W/m 11,2 C 0,0 km/h (0 Bft)
12.09.2016 01:34 12,8 C 12,8 C 89 % 1016,6 hPa 0,0 mm 0,0 km/h (0 Bft) NW 320 0 min 0,000 mm 0,0 UV-I 0 W/m 11,0 C 0,0 km/h (0 Bft)
12.09.2016 01:35 12,8 C 12,8 C 90 % 1016,6 hPa 0,0 mm 0,0 km/h (0 Bft) NW 320 0 min 0,000 mm 0,0 UV-I 0 W/m 11,2 C 0,0 km/h (0 Bft)
12.09.2016 01:36 12,8 C 12,8 C 90 % 1016,6 hPa 0,0 mm 0,0 km/h (0 Bft) NW 320 0 min 0,000 mm 0,0 UV-I 0 W/m 11,2 C 0,0 km/h (0 Bft)
12.09.2016 01:37 12,7 C 12,8 C 90 % 1016,7 hPa 0,0 mm 0,0 km/h (0 Bft) NW 320 0 min 0,000 mm 0,0 UV-I 0 W/m 11,1 C 0,0 km/h (0 Bft)
12.09.2016 01:38 12,7 C 12,7 C 91 % 1016,7 hPa 0,0 mm 0,0 km/h (0 Bft) NW 320 0 min 0,000 mm 0,0 UV-I 0 W/m 11,3 C 0,0 km/h (0 Bft)
12.09.2016 01:39 12,7 C 12,7 C 90 % 1016,7 hPa 0,0 mm 0,0 km/h (0 Bft) NW 320 0 min 0,000 mm 0,0 UV-I 0 W/m 11,1 C 0,0 km/h (0 Bft)
12.09.2016 01:40 12,7 C 12,7 C 91 % 1016,7 hPa 0,0 mm 0,0 km/h (0 Bft) NW 320 0 min 0,000 mm 0,0 UV-I 0 W/m 11,3 C 0,0 km/h (0 Bft)
12.09.2016 01:41 12,7 C 12,7 C 91 % 1016,6 hPa 0,0 mm 0,0 km/h (0 Bft) NW 320 0 min 0,000 mm 0,0 UV-I 0 W/m 11,3 C 0,0 km/h (0 Bft)
12.09.2016 01:42 12,7 C 12,7 C 91 % 1016,6 hPa 0,0 mm 0,0 km/h (0 Bft) NW 320 0 min 0,000 mm 0,0 UV-I 0 W/m 11,3 C 0,0 km/h (0 Bft)
12.09.2016 01:43 12,8 C 12,8 C 91 % 1016,6 hPa 0,0 mm 0,0 km/h (0 Bft) NW 320 0 min 0,000 mm 0,0 UV-I 0 W/m 11,4 C 0,0 km/h (0 Bft)
12.09.2016 01:44 12,8 C 12,8 C 91 % 1016,6 hPa 0,0 mm 0,0 km/h (0 Bft) NW 320 0 min 0,000 mm 0,0 UV-I 0 W/m 11,4 C 0,0 km/h (0 Bft)
12.09.2016 01:45 12,7 C 12,8 C 91 % 1016,6 hPa 0,0 mm 0,0 km/h (0 Bft) NW 320 0 min 0,000 mm 0,0 UV-I 0 W/m 11,3 C 0,0 km/h (0 Bft)
12.09.2016 01:46 12,7 C 12,8 C 91 % 1016,6 hPa 0,0 mm 0,0 km/h (0 Bft) NW 320 0 min 0,000 mm 0,0 UV-I 0 W/m 11,3 C 0,0 km/h (0 Bft)
12.09.2016 01:47 12,7 C 12,7 C 91 % 1016,6 hPa 0,0 mm 0,0 km/h (0 Bft) NW 320 0 min 0,000 mm 0,0 UV-I 0 W/m 11,3 C 0,0 km/h (0 Bft)
12.09.2016 01:48 12,7 C 12,7 C 91 % 1016,6 hPa 0,0 mm 0,0 km/h (0 Bft) NW 320 0 min 0,000 mm 0,0 UV-I 0 W/m 11,3 C 0,0 km/h (0 Bft)
12.09.2016 01:49 12,7 C 12,7 C 91 % 1016,6 hPa 0,0 mm 0,0 km/h (0 Bft) NW 320 0 min 0,000 mm 0,0 UV-I 0 W/m 11,3 C 0,0 km/h (0 Bft)
12.09.2016 01:50 12,7 C 12,7 C 91 % 1016,6 hPa 0,0 mm 0,0 km/h (0 Bft) NW 320 0 min 0,000 mm 0,0 UV-I 0 W/m 11,3 C 0,0 km/h (0 Bft)
12.09.2016 01:51 12,7 C 12,7 C 91 % 1016,5 hPa 0,0 mm 0,0 km/h (0 Bft) NW 320 0 min 0,000 mm 0,0 UV-I 0 W/m 11,3 C 0,0 km/h (0 Bft)
12.09.2016 01:52 12,6 C 12,7 C 91 % 1016,5 hPa 0,0 mm 0,0 km/h (0 Bft) NW 320 0 min 0,000 mm 0,0 UV-I 0 W/m 11,2 C 0,0 km/h (0 Bft)
12.09.2016 01:53 12,6 C 12,6 C 91 % 1016,5 hPa 0,0 mm 0,0 km/h (0 Bft) NW 320 0 min 0,000 mm 0,0 UV-I 0 W/m 11,2 C 0,0 km/h (0 Bft)
12.09.2016 01:54 12,5 C 12,6 C 91 % 1016,5 hPa 0,0 mm 0,0 km/h (0 Bft) NW 320 0 min 0,000 mm 0,0 UV-I 0 W/m 11,1 C 0,0 km/h (0 Bft)
12.09.2016 01:55 12,5 C 12,5 C 92 % 1016,5 hPa 0,0 mm 0,0 km/h (0 Bft) NW 320 0 min 0,000 mm 0,0 UV-I 0 W/m 11,2 C 0,0 km/h (0 Bft)
12.09.2016 01:56 12,5 C 12,5 C 91 % 1016,5 hPa 0,0 mm 0,0 km/h (0 Bft) NW 320 0 min 0,000 mm 0,0 UV-I 0 W/m 11,1 C 0,0 km/h (0 Bft)
12.09.2016 01:57 12,6 C 12,6 C 92 % 1016,5 hPa 0,0 mm 0,0 km/h (0 Bft) NW 320 0 min 0,000 mm 0,0 UV-I 0 W/m 11,3 C 0,0 km/h (0 Bft)
12.09.2016 01:58 12,8 C 12,8 C 91 % 1016,5 hPa 0,0 mm 0,0 km/h (0 Bft) NW 320 0 min 0,000 mm 0,0 UV-I 0 W/m 11,4 C 0,0 km/h (0 Bft)
12.09.2016 01:59 12,9 C 12,9 C 90 % 1016,5 hPa 0,0 mm 0,0 km/h (0 Bft) NW 320 0 min 0,000 mm 0,0 UV-I 0 W/m 11,3 C 0,0 km/h (0 Bft)
12.09.2016 02:00 13,1 C 13,1 C 90 % 1016,5 hPa 0,0 mm 1,6 km/h (1 Bft) W-NW 300 0 min 0,000 mm 0,0 UV-I 0 W/m 11,5 C 6,4 km/h (2 Bft)
12.09.2016 02:01 13,1 C 13,1 C 90 % 1016,5 hPa 0,0 mm 3,9 km/h (1 Bft) N-NW 329 0 min 0,000 mm 0,0 UV-I 0 W/m 11,5 C 6,4 km/h (2 Bft)
12.09.2016 02:02 13,2 C 13,2 C 89 % 1016,5 hPa 0,0 mm 1,2 km/h (1 Bft) N-NW 329 0 min 0,000 mm 0,0 UV-I 0 W/m 11,4 C 3,2 km/h (1 Bft)
12.09.2016 02:03 13,2 C 13,2 C 89 % 1016,6 hPa 0,0 mm 1,2 km/h (1 Bft) N-NW 329 0 min 0,000 mm 0,0 UV-I 0 W/m 11,4 C 1,6 km/h (1 Bft)
12.09.2016 02:04 13,2 C 13,2 C 88 % 1016,5 hPa 0,0 mm 0,1 km/h (0 Bft) N-NW 329 0 min 0,000 mm 0,0 UV-I 0 W/m 11,3 C 1,6 km/h (1 Bft)
12.09.2016 02:05 13,2 C 13,3 C 89 % 1016,5 hPa 0,0 mm 0,1 km/h (0 Bft) N-NW 329 0 min 0,000 mm 0,0 UV-I 0 W/m 11,4 C 1,6 km/h (1 Bft)
12.09.2016 02:06 13,2 C 13,2 C 88 % 1016,5 hPa 0,0 mm 0,0 km/h (0 Bft) N-NW 329 0 min 0,000 mm 0,0 UV-I 0 W/m 11,3 C 0,0 km/h (0 Bft)
12.09.2016 02:07 13,2 C 13,2 C 88 % 1016,5 hPa 0,0 mm 0,0 km/h (0 Bft) N-NW 329 0 min 0,000 mm 0,0 UV-I 0 W/m 11,3 C 0,0 km/h (0 Bft)
12.09.2016 02:08 13,1 C 13,2 C 88 % 1016,5 hPa 0,0 mm 0,7 km/h (0 Bft) N-NW 329 0 min 0,000 mm 0,0 UV-I 0 W/m 11,2 C 1,6 km/h (1 Bft)
12.09.2016 02:09 13,1 C 13,1 C 88 % 1016,4 hPa 0,0 mm 0,6 km/h (0 Bft) N-NW 329 0 min 0,000 mm 0,0 UV-I 0 W/m 11,2 C 1,6 km/h (1 Bft)
12.09.2016 02:10 13,2 C 13,2 C 88 % 1016,4 hPa 0,0 mm 0,0 km/h (0 Bft) N-NW 329 0 min 0,000 mm 0,0 UV-I 0 W/m 11,3 C 0,0 km/h (0 Bft)
12.09.2016 02:11 13,2 C 13,2 C 88 % 1016,5 hPa 0,0 mm 0,0 km/h (0 Bft) N-NW 329 0 min 0,000 mm 0,0 UV-I 0 W/m 11,3 C 0,0 km/h (0 Bft)
12.09.2016 02:12 13,2 C 13,2 C 88 % 1016,5 hPa 0,0 mm 0,3 km/h (0 Bft) N-NW 329 0 min 0,000 mm 0,0 UV-I 0 W/m 11,3 C 1,6 km/h (1 Bft)
12.09.2016 02:13 13,2 C 13,2 C 88 % 1016,5 hPa 0,0 mm 0,3 km/h (0 Bft) N-NW 329 0 min 0,000 mm 0,0 UV-I 0 W/m 11,3 C 1,6 km/h (1 Bft)
12.09.2016 02:14 13,1 C 13,2 C 88 % 1016,5 hPa 0,0 mm 0,0 km/h (0 Bft) N-NW 329 0 min 0,000 mm 0,0 UV-I 0 W/m 11,2 C 0,0 km/h (0 Bft)
12.09.2016 02:15 13,2 C 13,2 C 88 % 1016,4 hPa 0,0 mm 0,0 km/h (0 Bft) N-NW 329 0 min 0,000 mm 0,0 UV-I 0 W/m 11,3 C 0,0 km/h (0 Bft)
12.09.2016 02:16 13,1 C 13,2 C 88 % 1016,4 hPa 0,0 mm 1,4 km/h (1 Bft) N-NW 329 0 min 0,000 mm 0,0 UV-I 0 W/m 11,2 C 3,2 km/h (1 Bft)
12.09.2016 02:17 13,2 C 13,2 C 88 % 1016,4 hPa 0,0 mm 3,6 km/h (1 Bft) NW 316 0 min 0,000 mm 0,0 UV-I 0 W/m 11,3 C 4,8 km/h (1 Bft)
12.09.2016 02:18 13,1 C 13,2 C 88 % 1016,4 hPa 0,0 mm 1,7 km/h (1 Bft) NW 316 0 min 0,000 mm 0,0 UV-I 0 W/m 11,2 C 3,2 km/h (1 Bft)
12.09.2016 02:19 13,1 C 13,1 C 88 % 1016,4 hPa 0,0 mm 1,2 km/h (1 Bft) NW 316 0 min 0,000 mm 0,0 UV-I 0 W/m 11,2 C 1,6 km/h (1 Bft)
12.09.2016 02:20 13,1 C 13,1 C 88 % 1016,4 hPa 0,0 mm 0,3 km/h (0 Bft) NW 316 0 min 0,000 mm 0,0 UV-I 0 W/m 11,2 C 1,6 km/h (1 Bft)
12.09.2016 02:21 12,9 C 13,1 C 87 % 1016,4 hPa 0,0 mm 0,6 km/h (0 Bft) NW 316 0 min 0,000 mm 0,0 UV-I 0 W/m 10,8 C 3,2 km/h (1 Bft)
12.09.2016 02:22 12,9 C 12,9 C 88 % 1016,4 hPa 0,0 mm 0,6 km/h (0 Bft) NW 316 0 min 0,000 mm 0,0 UV-I 0 W/m 11,0 C 1,6 km/h (1 Bft)
12.09.2016 02:23 12,9 C 12,9 C 88 % 1016,4 hPa 0,0 mm 0,0 km/h (0 Bft) NW 316 0 min 0,000 mm 0,0 UV-I 0 W/m 11,0 C 0,0 km/h (0 Bft)
12.09.2016 02:24 12,9 C 12,9 C 88 % 1016,3 hPa 0,0 mm 0,0 km/h (0 Bft) NW 316 0 min 0,000 mm 0,0 UV-I 0 W/m 11,0 C 0,0 km/h (0 Bft)
12.09.2016 02:25 12,9 C 12,9 C 88 % 1016,3 hPa 0,0 mm 0,3 km/h (0 Bft) NW 316 0 min 0,000 mm 0,0 UV-I 0 W/m 11,0 C 1,6 km/h (1 Bft)
12.09.2016 02:26 12,9 C 12,9 C 88 % 1016,3 hPa 0,0 mm 0,3 km/h (0 Bft) NW 316 0 min 0,000 mm 0,0 UV-I 0 W/m 11,0 C 1,6 km/h (1 Bft)
12.09.2016 02:27 12,8 C 12,9 C 88 % 1016,3 hPa 0,0 mm 0,8 km/h (0 Bft) NW 316 0 min 0,000 mm 0,0 UV-I 0 W/m 10,9 C 1,6 km/h (1 Bft)
12.09.2016 02:28 12,9 C 12,9 C 88 % 1016,3 hPa 0,0 mm 0,4 km/h (0 Bft) NW 316 0 min 0,000 mm 0,0 UV-I 0 W/m 11,0 C 1,6 km/h (1 Bft)
12.09.2016 02:29 12,9 C 12,9 C 88 % 1016,3 hPa 0,0 mm 0,1 km/h (0 Bft) NW 316 0 min 0,000 mm 0,0 UV-I 0 W/m 11,0 C 1,6 km/h (1 Bft)
12.09.2016 02:30 12,9 C 12,9 C 87 % 1016,3 hPa 0,0 mm 1,3 km/h (1 Bft) NW 319 0 min 0,000 mm 0,0 UV-I 0 W/m 10,8 C 4,8 km/h (1 Bft)
12.09.2016 02:31 12,9 C 12,9 C 87 % 1016,3 hPa 0,0 mm 1,9 km/h (1 Bft) NW 319 0 min 0,000 mm 0,0 UV-I 0 W/m 10,8 C 4,8 km/h (1 Bft)
12.09.2016 02:32 12,9 C 12,9 C 87 % 1016,2 hPa 0,0 mm 0,5 km/h (0 Bft) NW 319 0 min 0,000 mm 0,0 UV-I 0 W/m 10,8 C 1,6 km/h (1 Bft)
12.09.2016 02:33 12,9 C 12,9 C 87 % 1016,2 hPa 0,0 mm 0,4 km/h (0 Bft) NW 319 0 min 0,000 mm 0,0 UV-I 0 W/m 10,8 C 1,6 km/h (1 Bft)
12.09.2016 02:34 12,9 C 12,9 C 88 % 1016,2 hPa 0,0 mm 0,7 km/h (0 Bft) NW 319 0 min 0,000 mm 0,0 UV-I 0 W/m 11,0 C 1,6 km/h (1 Bft)
12.09.2016 02:35 12,9 C 12,9 C 87 % 1016,2 hPa 0,0 mm 1,5 km/h (1 Bft) NW 326 0 min 0,000 mm 0,0 UV-I 0 W/m 10,8 C 3,2 km/h (1 Bft)
12.09.2016 02:36 12,8 C 12,9 C 88 % 1016,2 hPa 0,0 mm 1,5 km/h (1 Bft) NW 326 0 min 0,000 mm 0,0 UV-I 0 W/m 10,9 C 3,2 km/h (1 Bft)
12.09.2016 02:37 12,9 C 12,9 C 88 % 1016,2 hPa 0,0 mm 1,1 km/h (1 Bft) NW 306 0 min 0,000 mm 0,0 UV-I 0 W/m 11,0 C 6,4 km/h (2 Bft)
12.09.2016 02:38 12,9 C 12,9 C 88 % 1016,2 hPa 0,0 mm 2,8 km/h (1 Bft) S 190 0 min 0,000 mm 0,0 UV-I 0 W/m 11,0 C 4,8 km/h (1 Bft)
12.09.2016 02:39 13,1 C 13,1 C 88 % 1016,2 hPa 0,0 mm 0,2 km/h (0 Bft) S 190 0 min 0,000 mm 0,0 UV-I 0 W/m 11,2 C 1,6 km/h (1 Bft)
12.09.2016 02:40 13,1 C 13,1 C 87 % 1016,2 hPa 0,0 mm 0,4 km/h (0 Bft) S 190 0 min 0,000 mm 0,0 UV-I 0 W/m 11,0 C 1,6 km/h (1 Bft)
12.09.2016 02:41 13,2 C 13,2 C 87 % 1016,2 hPa 0,0 mm 0,3 km/h (0 Bft) S 190 0 min 0,000 mm 0,0 UV-I 0 W/m 11,1 C 1,6 km/h (1 Bft)
12.09.2016 02:42 13,2 C 13,2 C 87 % 1016,2 hPa 0,0 mm 1,4 km/h (1 Bft) S-SW 211 0 min 0,000 mm 0,0 UV-I 0 W/m 11,1 C 3,2 km/h (1 Bft)
12.09.2016 02:43 13,2 C 13,2 C 86 % 1016,2 hPa 0,0 mm 1,4 km/h (1 Bft) SW 234 0 min 0,000 mm 0,0 UV-I 0 W/m 10,9 C 3,2 km/h (1 Bft)
12.09.2016 02:44 13,2 C 13,2 C 86 % 1016,2 hPa 0,0 mm 1,3 km/h (1 Bft) SW 234 0 min 0,000 mm 0,0 UV-I 0 W/m 10,9 C 3,2 km/h (1 Bft)
12.09.2016 02:45 13,2 C 13,2 C 86 % 1016,3 hPa 0,0 mm 0,8 km/h (0 Bft) SW 234 0 min 0,000 mm 0,0 UV-I 0 W/m 10,9 C 3,2 km/h (1 Bft)
12.09.2016 02:46 13,2 C 13,3 C 86 % 1016,3 hPa 0,0 mm 2,4 km/h (1 Bft) W-SW 243 0 min 0,000 mm 0,0 UV-I 0 W/m 10,9 C 3,2 km/h (1 Bft)
12.09.2016 02:47 13,2 C 13,2 C 86 % 1016,3 hPa 0,0 mm 3,0 km/h (1 Bft) W 261 0 min 0,000 mm 0,0 UV-I 0 W/m 10,9 C 4,8 km/h (1 Bft)
12.09.2016 02:48 13,2 C 13,2 C 86 % 1016,3 hPa 0,0 mm 2,2 km/h (1 Bft) W 261 0 min 0,000 mm 0,0 UV-I 0 W/m 10,9 C 3,2 km/h (1 Bft)
12.09.2016 02:49 13,2 C 13,2 C 86 % 1016,3 hPa 0,0 mm 1,8 km/h (1 Bft) W-SW 258 0 min 0,000 mm 0,0 UV-I 0 W/m 10,9 C 3,2 km/h (1 Bft)
12.09.2016 02:50 13,2 C 13,2 C 86 % 1016,3 hPa 0,0 mm 1,5 km/h (1 Bft) W 259 0 min 0,000 mm 0,0 UV-I 0 W/m 10,9 C 3,2 km/h (1 Bft)
12.09.2016 02:51 13,3 C 13,3 C 86 % 1016,2 hPa 0,0 mm 1,2 km/h (1 Bft) W 260 0 min 0,000 mm 0,0 UV-I 0 W/m 11,0 C 3,2 km/h (1 Bft)
12.09.2016 02:52 13,3 C 13,3 C 85 % 1016,3 hPa 0,0 mm 0,8 km/h (0 Bft) W 260 0 min 0,000 mm 0,0 UV-I 0 W/m 10,8 C 1,6 km/h (1 Bft)
12.09.2016 02:53 13,3 C 13,3 C 86 % 1016,3 hPa 0,0 mm 0,2 km/h (0 Bft) W 260 0 min 0,000 mm 0,0 UV-I 0 W/m 11,0 C 1,6 km/h (1 Bft)
12.09.2016 02:54 13,3 C 13,3 C 85 % 1016,2 hPa 0,0 mm 0,1 km/h (0 Bft) W 260 0 min 0,000 mm 0,0 UV-I 0 W/m 10,8 C 1,6 km/h (1 Bft)
12.09.2016 02:55 13,2 C 13,3 C 86 % 1016,2 hPa 0,0 mm 0,0 km/h (0 Bft) W 260 0 min 0,000 mm 0,0 UV-I 0 W/m 10,9 C 0,0 km/h (0 Bft)
12.09.2016 02:56 13,1 C 13,2 C 86 % 1016,2 hPa 0,0 mm 0,0 km/h (0 Bft) W 260 0 min 0,000 mm 0,0 UV-I 0 W/m 10,8 C 0,0 km/h (0 Bft)
12.09.2016 02:57 12,9 C 13,1 C 86 % 1016,2 hPa 0,0 mm 0,1 km/h (0 Bft) W 260 0 min 0,000 mm 0,0 UV-I 0 W/m 10,6 C 1,6 km/h (1 Bft)
12.09.2016 02:58 12,9 C 12,9 C 87 % 1016,2 hPa 0,0 mm 0,1 km/h (0 Bft) W 260 0 min 0,000 mm 0,0 UV-I 0 W/m 10,8 C 1,6 km/h (1 Bft)
12.09.2016 02:59 12,8 C 12,9 C 87 % 1016,1 hPa 0,0 mm 0,0 km/h (0 Bft) W 260 0 min 0,000 mm 0,0 UV-I 0 W/m 10,7 C 0,0 km/h (0 Bft)
12.09.2016 03:00 12,8 C 12,8 C 87 % 1016,1 hPa 0,0 mm 0,0 km/h (0 Bft) W 260 0 min 0,000 mm 0,0 UV-I 0 W/m 10,7 C 0,0 km/h (0 Bft)
12.09.2016 03:01 12,8 C 12,8 C 87 % 1016,1 hPa 0,0 mm 0,0 km/h (0 Bft) W 260 0 min 0,000 mm 0,0 UV-I 0 W/m 10,7 C 0,0 km/h (0 Bft)
12.09.2016 03:02 12,8 C 12,8 C 87 % 1016,1 hPa 0,0 mm 0,0 km/h (0 Bft) W 260 0 min 0,000 mm 0,0 UV-I 0 W/m 10,7 C 0,0 km/h (0 Bft)
12.09.2016 03:03 12,7 C 12,8 C 87 % 1016,1 hPa 0,0 mm 0,1 km/h (0 Bft) W 260 0 min 0,000 mm 0,0 UV-I 0 W/m 10,6 C 1,6 km/h (1 Bft)
12.09.2016 03:04 12,7 C 12,7 C 87 % 1016,1 hPa 0,0 mm 1,2 km/h (1 Bft) W 260 0 min 0,000 mm 0,0 UV-I 0 W/m 10,6 C 1,6 km/h (1 Bft)
12.09.2016 03:05 12,6 C 12,7 C 87 % 1016,1 hPa 0,0 mm 0,1 km/h (0 Bft) W 260 0 min 0,000 mm 0,0 UV-I 0 W/m 10,5 C 1,6 km/h (1 Bft)
12.09.2016 03:06 12,5 C 12,6 C 88 % 1016,1 hPa 0,0 mm 0,0 km/h (0 Bft) W 260 0 min 0,000 mm 0,0 UV-I 0 W/m 10,6 C 0,0 km/h (0 Bft)
12.09.2016 03:07 12,4 C 12,5 C 88 % 1016,1 hPa 0,0 mm 0,0 km/h (0 Bft) W 260 0 min 0,000 mm 0,0 UV-I 0 W/m 10,5 C 0,0 km/h (0 Bft)
12.09.2016 03:08 12,4 C 12,4 C 88 % 1016,0 hPa 0,0 mm 0,6 km/h (0 Bft) W 260 0 min 0,000 mm 0,0 UV-I 0 W/m 10,5 C 1,6 km/h (1 Bft)
12.09.2016 03:09 12,4 C 12,4 C 88 % 1016,1 hPa 0,0 mm 0,0 km/h (0 Bft) W 260 0 min 0,000 mm 0,0 UV-I 0 W/m 10,5 C 0,0 km/h (0 Bft)
12.09.2016 03:10 12,4 C 12,4 C 88 % 1016,1 hPa 0,0 mm 0,0 km/h (0 Bft) W 260 0 min 0,000 mm 0,0 UV-I 0 W/m 10,5 C 0,0 km/h (0 Bft)
12.09.2016 03:11 12,4 C 12,4 C 88 % 1016,1 hPa 0,0 mm 1,0 km/h (0 Bft) W 260 0 min 0,000 mm 0,0 UV-I 0 W/m 10,5 C 1,6 km/h (1 Bft)
12.09.2016 03:12 12,4 C 12,4 C 88 % 1016,1 hPa 0,0 mm 0,4 km/h (0 Bft) W 260 0 min 0,000 mm 0,0 UV-I 0 W/m 10,5 C 1,6 km/h (1 Bft)
12.09.2016 03:13 12,4 C 12,4 C 88 % 1016,1 hPa 0,0 mm 0,3 km/h (0 Bft) W 260 0 min 0,000 mm 0,0 UV-I 0 W/m 10,5 C 1,6 km/h (1 Bft)
12.09.2016 03:14 12,4 C 12,4 C 88 % 1016,1 hPa 0,0 mm 0,8 km/h (0 Bft) W 260 0 min 0,000 mm 0,0 UV-I 0 W/m 10,5 C 1,6 km/h (1 Bft)
12.09.2016 03:15 12,4 C 12,4 C 88 % 1016,1 hPa 0,0 mm 0,8 km/h (0 Bft) W 260 0 min 0,000 mm 0,0 UV-I 0 W/m 10,5 C 1,6 km/h (1 Bft)
12.09.2016 03:16 12,5 C 12,5 C 88 % 1016,1 hPa 0,0 mm 0,7 km/h (0 Bft) W 260 0 min 0,000 mm 0,0 UV-I 0 W/m 10,6 C 1,6 km/h (1 Bft)
12.09.2016 03:17 12,5 C 12,6 C 87 % 1016,0 hPa 0,0 mm 0,0 km/h (0 Bft) W 260 0 min 0,000 mm 0,0 UV-I 0 W/m 10,4 C 0,0 km/h (0 Bft)
12.09.2016 03:18 12,5 C 12,5 C 88 % 1016,1 hPa 0,0 mm 0,4 km/h (0 Bft) W 260 0 min 0,000 mm 0,0 UV-I 0 W/m 10,6 C 1,6 km/h (1 Bft)
12.09.2016 03:19 12,5 C 12,5 C 88 % 1016,1 hPa 0,0 mm 2,0 km/h (1 Bft) W-SW 256 0 min 0,000 mm 0,0 UV-I 0 W/m 10,6 C 3,2 km/h (1 Bft)
12.09.2016 03:20 12,6 C 12,6 C 87 % 1016,1 hPa 0,0 mm 2,2 km/h (1 Bft) SO 146 0 min 0,000 mm 0,0 UV-I 0 W/m 10,5 C 4,8 km/h (1 Bft)
12.09.2016 03:21 12,6 C 12,6 C 88 % 1016,1 hPa 0,0 mm 3,4 km/h (1 Bft) SO 144 0 min 0,000 mm 0,0 UV-I 0 W/m 10,7 C 4,8 km/h (1 Bft)
12.09.2016 03:22 12,7 C 12,7 C 87 % 1016,0 hPa 0,0 mm 2,7 km/h (1 Bft) SO 136 0 min 0,000 mm 0,0 UV-I 0 W/m 10,6 C 4,8 km/h (1 Bft)
12.09.2016 03:23 12,8 C 12,8 C 87 % 1016,1 hPa 0,0 mm 2,1 km/h (1 Bft) SO 136 0 min 0,000 mm 0,0 UV-I 0 W/m 10,7 C 3,2 km/h (1 Bft)
12.09.2016 03:24 12,8 C 12,8 C 87 % 1016,1 hPa 0,0 mm 1,5 km/h (1 Bft) SO 136 0 min 0,000 mm 0,0 UV-I 0 W/m 10,7 C 4,8 km/h (1 Bft)
12.09.2016 03:25 12,9 C 12,9 C 86 % 1016,1 hPa 0,0 mm 0,0 km/h (0 Bft) SO 136 0 min 0,000 mm 0,0 UV-I 0 W/m 10,6 C 0,0 km/h (0 Bft)
12.09.2016 03:26 12,8 C 12,9 C 86 % 1016,1 hPa 0,0 mm 0,0 km/h (0 Bft) SO 136 0 min 0,000 mm 0,0 UV-I 0 W/m 10,5 C 0,0 km/h (0 Bft)
12.09.2016 03:27 12,7 C 12,8 C 87 % 1016,1 hPa 0,0 mm 0,4 km/h (0 Bft) SO 136 0 min 0,000 mm 0,0 UV-I 0 W/m 10,6 C 1,6 km/h (1 Bft)
12.09.2016 03:28 12,6 C 12,7 C 87 % 1016,1 hPa 0,0 mm 0,4 km/h (0 Bft) SO 136 0 min 0,000 mm 0,0 UV-I 0 W/m 10,5 C 1,6 km/h (1 Bft)
12.09.2016 03:29 12,6 C 12,6 C 87 % 1016,1 hPa 0,0 mm 0,4 km/h (0 Bft) SO 136 0 min 0,000 mm 0,0 UV-I 0 W/m 10,5 C 1,6 km/h (1 Bft)
12.09.2016 03:30 12,6 C 12,6 C 87 % 1016,1 hPa 0,0 mm 0,7 km/h (0 Bft) SO 136 0 min 0,000 mm 0,0 UV-I 0 W/m 10,5 C 1,6 km/h (1 Bft)
12.09.2016 03:31 12,7 C 12,7 C 87 % 1016,1 hPa 0,0 mm 0,9 km/h (0 Bft) SO 136 0 min 0,000 mm 0,0 UV-I 0 W/m 10,6 C 1,6 km/h (1 Bft)
12.09.2016 03:32 12,7 C 12,7 C 87 % 1016,1 hPa 0,0 mm 0,9 km/h (0 Bft) SO 136 0 min 0,000 mm 0,0 UV-I 0 W/m 10,6 C 3,2 km/h (1 Bft)
12.09.2016 03:33 12,8 C 12,8 C 87 % 1016,1 hPa 0,0 mm 1,6 km/h (1 Bft) SO 136 0 min 0,000 mm 0,0 UV-I 0 W/m 10,7 C 3,2 km/h (1 Bft)
12.09.2016 03:34 12,7 C 12,8 C 87 % 1016,1 hPa 0,0 mm 2,1 km/h (1 Bft) SO 136 0 min 0,000 mm 0,0 UV-I 0 W/m 10,6 C 3,2 km/h (1 Bft)
12.09.2016 03:35 12,6 C 12,7 C 87 % 1016,0 hPa 0,0 mm 1,3 km/h (1 Bft) SO 136 0 min 0,000 mm 0,0 UV-I 0 W/m 10,5 C 3,2 km/h (1 Bft)
12.09.2016 03:36 12,6 C 12,6 C 88 % 1016,1 hPa 0,0 mm 0,9 km/h (0 Bft) SO 136 0 min 0,000 mm 0,0 UV-I 0 W/m 10,7 C 1,6 km/h (1 Bft)
12.09.2016 03:37 12,6 C 12,6 C 88 % 1016,1 hPa 0,0 mm 0,9 km/h (0 Bft) SO 136 0 min 0,000 mm 0,0 UV-I 0 W/m 10,7 C 1,6 km/h (1 Bft)
12.09.2016 03:38 12,5 C 12,6 C 87 % 1016,1 hPa 0,0 mm 0,7 km/h (0 Bft) SO 136 0 min 0,000 mm 0,0 UV-I 0 W/m 10,4 C 1,6 km/h (1 Bft)
12.09.2016 03:39 12,5 C 12,6 C 87 % 1016,0 hPa 0,0 mm 0,0 km/h (0 Bft) SO 136 0 min 0,000 mm 0,0 UV-I 0 W/m 10,4 C 0,0 km/h (0 Bft)
12.09.2016 03:40 12,5 C 12,5 C 88 % 1016,0 hPa 0,0 mm 0,0 km/h (0 Bft) SO 136 0 min 0,000 mm 0,0 UV-I 0 W/m 10,6 C 0,0 km/h (0 Bft)
12.09.2016 03:41 12,6 C 12,6 C 87 % 1016,1 hPa 0,0 mm 0,0 km/h (0 Bft) SO 136 0 min 0,000 mm 0,0 UV-I 0 W/m 10,5 C 0,0 km/h (0 Bft)
12.09.2016 03:42 12,6 C 12,6 C 87 % 1016,1 hPa 0,0 mm 0,0 km/h (0 Bft) SO 136 0 min 0,000 mm 0,0 UV-I 0 W/m 10,5 C 0,0 km/h (0 Bft)
12.09.2016 03:43 12,7 C 12,7 C 87 % 1016,1 hPa 0,0 mm 0,0 km/h (0 Bft) SO 136 0 min 0,000 mm 0,0 UV-I 0 W/m 10,6 C 0,0 km/h (0 Bft)
12.09.2016 03:44 12,8 C 12,8 C 87 % 1016,0 hPa 0,0 mm 0,0 km/h (0 Bft) SO 136 0 min 0,000 mm 0,0 UV-I 0 W/m 10,7 C 0,0 km/h (0 Bft)
12.09.2016 03:45 12,8 C 12,8 C 86 % 1016,0 hPa 0,0 mm 0,0 km/h (0 Bft) SO 136 0 min 0,000 mm 0,0 UV-I 0 W/m 10,5 C 0,0 km/h (0 Bft)
12.09.2016 03:46 12,9 C 12,9 C 86 % 1016,1 hPa 0,0 mm 0,0 km/h (0 Bft) SO 136 0 min 0,000 mm 0,0 UV-I 0 W/m 10,6 C 0,0 km/h (0 Bft)
12.09.2016 03:47 12,8 C 12,9 C 86 % 1016,1 hPa 0,0 mm 0,0 km/h (0 Bft) SO 136 0 min 0,000 mm 0,0 UV-I 0 W/m 10,5 C 0,0 km/h (0 Bft)
12.09.2016 03:48 12,7 C 12,8 C 86 % 1016,1 hPa 0,0 mm 0,0 km/h (0 Bft) SO 136 0 min 0,000 mm 0,0 UV-I 0 W/m 10,4 C 0,0 km/h (0 Bft)
12.09.2016 03:49 12,6 C 12,7 C 87 % 1016,1 hPa 0,0 mm 0,0 km/h (0 Bft) SO 136 0 min 0,000 mm 0,0 UV-I 0 W/m 10,5 C 0,0 km/h (0 Bft)
12.09.2016 03:50 12,6 C 12,7 C 87 % 1016,1 hPa 0,0 mm 0,0 km/h (0 Bft) SO 136 0 min 0,000 mm 0,0 UV-I 0 W/m 10,5 C 0,0 km/h (0 Bft)
12.09.2016 03:51 12,6 C 12,6 C 87 % 1016,1 hPa 0,0 mm 0,0 km/h (0 Bft) SO 136 0 min 0,000 mm 0,0 UV-I 0 W/m 10,5 C 0,0 km/h (0 Bft)
12.09.2016 03:52 12,7 C 12,7 C 87 % 1016,1 hPa 0,0 mm 0,0 km/h (0 Bft) SO 136 0 min 0,000 mm 0,0 UV-I 0 W/m 10,6 C 0,0 km/h (0 Bft)
12.09.2016 03:53 12,8 C 12,8 C 87 % 1016,1 hPa 0,0 mm 0,0 km/h (0 Bft) SO 136 0 min 0,000 mm 0,0 UV-I 0 W/m 10,7 C 0,0 km/h (0 Bft)
12.09.2016 03:54 13,0 C 13,0 C 87 % 1016,1 hPa 0,0 mm 0,0 km/h (0 Bft) SO 136 0 min 0,000 mm 0,0 UV-I 0 W/m 10,9 C 0,0 km/h (0 Bft)
12.09.2016 03:55 13,2 C 13,2 C 86 % 1016,1 hPa 0,0 mm 0,0 km/h (0 Bft) SO 136 0 min 0,000 mm 0,0 UV-I 0 W/m 10,9 C 0,0 km/h (0 Bft)
12.09.2016 03:56 13,1 C 13,2 C 85 % 1016,1 hPa 0,0 mm 0,0 km/h (0 Bft) SO 136 0 min 0,000 mm 0,0 UV-I 0 W/m 10,6 C 0,0 km/h (0 Bft)
12.09.2016 03:57 13,0 C 13,1 C 85 % 1016,1 hPa 0,0 mm 0,0 km/h (0 Bft) SO 136 0 min 0,000 mm 0,0 UV-I 0 W/m 10,5 C 0,0 km/h (0 Bft)
12.09.2016 03:58 12,9 C 13,0 C 85 % 1016,1 hPa 0,0 mm 0,0 km/h (0 Bft) SO 136 0 min 0,000 mm 0,0 UV-I 0 W/m 10,4 C 0,0 km/h (0 Bft)
12.09.2016 03:59 12,7 C 12,9 C 85 % 1016,1 hPa 0,0 mm 0,0 km/h (0 Bft) SO 136 0 min 0,000 mm 0,0 UV-I 0 W/m 10,2 C 0,0 km/h (0 Bft)
12.09.2016 04:00 12,6 C 12,7 C 86 % 1016,1 hPa 0,0 mm 0,0 km/h (0 Bft) SO 136 0 min 0,000 mm 0,0 UV-I 0 W/m 10,3 C 0,0 km/h (0 Bft)
12.09.2016 04:01 12,4 C 12,6 C 87 % 1016,1 hPa 0,0 mm 0,0 km/h (0 Bft) SO 136 0 min 0,000 mm 0,0 UV-I 0 W/m 10,3 C 0,0 km/h (0 Bft)
12.09.2016 04:02 12,3 C 12,4 C 87 % 1016,1 hPa 0,0 mm 0,0 km/h (0 Bft) SO 136 0 min 0,000 mm 0,0 UV-I 0 W/m 10,2 C 0,0 km/h (0 Bft)
12.09.2016 04:03 12,3 C 12,3 C 88 % 1016,1 hPa 0,0 mm 0,0 km/h (0 Bft) SO 136 0 min 0,000 mm 0,0 UV-I 0 W/m 10,4 C 0,0 km/h (0 Bft)
12.09.2016 04:04 12,2 C 12,3 C 88 % 1016,1 hPa 0,0 mm 0,0 km/h (0 Bft) SO 136 0 min 0,000 mm 0,0 UV-I 0 W/m 10,3 C 0,0 km/h (0 Bft)
12.09.2016 04:05 12,1 C 12,2 C 88 % 1016,1 hPa 0,0 mm 0,0 km/h (0 Bft) SO 136 0 min 0,000 mm 0,0 UV-I 0 W/m 10,2 C 0,0 km/h (0 Bft)
12.09.2016 04:06 12,1 C 12,1 C 89 % 1016,1 hPa 0,0 mm 0,0 km/h (0 Bft) SO 136 0 min 0,000 mm 0,0 UV-I 0 W/m 10,3 C 0,0 km/h (0 Bft)
12.09.2016 04:07 12,0 C 12,1 C 88 % 1016,1 hPa 0,0 mm 0,0 km/h (0 Bft) SO 136 0 min 0,000 mm 0,0 UV-I 0 W/m 10,1 C 0,0 km/h (0 Bft)
12.09.2016 04:08 11,9 C 12,0 C 89 % 1016,1 hPa 0,0 mm 0,0 km/h (0 Bft) SO 136 0 min 0,000 mm 0,0 UV-I 0 W/m 10,1 C 0,0 km/h (0 Bft)
12.09.2016 04:09 11,8 C 11,9 C 88 % 1016,1 hPa 0,0 mm 0,0 km/h (0 Bft) SO 136 0 min 0,000 mm 0,0 UV-I 0 W/m 9,9 C 0,0 km/h (0 Bft)
12.09.2016 04:10 11,7 C 11,8 C 89 % 1016,1 hPa 0,0 mm 0,0 km/h (0 Bft) SO 136 0 min 0,000 mm 0,0 UV-I 0 W/m 9,9 C 0,0 km/h (0 Bft)
12.09.2016 04:11 11,6 C 11,7 C 89 % 1016,0 hPa 0,0 mm 0,0 km/h (0 Bft) SO 136 0 min 0,000 mm 0,0 UV-I 0 W/m 9,8 C 0,0 km/h (0 Bft)
12.09.2016 04:12 11,6 C 11,6 C 90 % 1016,0 hPa 0,0 mm 0,0 km/h (0 Bft) SO 136 0 min 0,000 mm 0,0 UV-I 0 W/m 10,0 C 0,0 km/h (0 Bft)
12.09.2016 04:13 11,6 C 11,6 C 90 % 1016,0 hPa 0,0 mm 0,0 km/h (0 Bft) SO 136 0 min 0,000 mm 0,0 UV-I 0 W/m 10,0 C 0,0 km/h (0 Bft)
12.09.2016 04:14 11,5 C 11,6 C 90 % 1016,0 hPa 0,0 mm 0,0 km/h (0 Bft) SO 136 0 min 0,000 mm 0,0 UV-I 0 W/m 9,9 C 0,0 km/h (0 Bft)
12.09.2016 04:15 11,5 C 11,5 C 90 % 1015,9 hPa 0,0 mm 0,0 km/h (0 Bft) SO 136 0 min 0,000 mm 0,0 UV-I 0 W/m 9,9 C 0,0 km/h (0 Bft)
12.09.2016 04:16 11,4 C 11,5 C 90 % 1015,9 hPa 0,0 mm 0,0 km/h (0 Bft) SO 136 0 min 0,000 mm 0,0 UV-I 0 W/m 9,8 C 0,0 km/h (0 Bft)
12.09.2016 04:17 11,4 C 11,4 C 91 % 1015,9 hPa 0,0 mm 0,0 km/h (0 Bft) SO 136 0 min 0,000 mm 0,0 UV-I 0 W/m 10,0 C 0,0 km/h (0 Bft)
12.09.2016 04:18 11,4 C 11,4 C 91 % 1015,9 hPa 0,0 mm 0,0 km/h (0 Bft) SO 136 0 min 0,000 mm 0,0 UV-I 0 W/m 10,0 C 0,0 km/h (0 Bft)
12.09.2016 04:19 11,4 C 11,4 C 91 % 1015,9 hPa 0,0 mm 0,0 km/h (0 Bft) SO 136 0 min 0,000 mm 0,0 UV-I 0 W/m 10,0 C 0,0 km/h (0 Bft)
12.09.2016 04:20 11,4 C 11,4 C 91 % 1015,9 hPa 0,0 mm 0,0 km/h (0 Bft) SO 136 0 min 0,000 mm 0,0 UV-I 0 W/m 10,0 C 0,0 km/h (0 Bft)
12.09.2016 04:21 11,4 C 11,5 C 92 % 1015,9 hPa 0,0 mm 0,0 km/h (0 Bft) SO 136 0 min 0,000 mm 0,0 UV-I 0 W/m 10,1 C 0,0 km/h (0 Bft)
12.09.2016 04:22 11,5 C 11,5 C 91 % 1015,9 hPa 0,0 mm 0,0 km/h (0 Bft) SO 136 0 min 0,000 mm 0,0 UV-I 0 W/m 10,1 C 0,0 km/h (0 Bft)
12.09.2016 04:23 11,5 C 11,5 C 92 % 1015,9 hPa 0,0 mm 0,0 km/h (0 Bft) SO 136 0 min 0,000 mm 0,0 UV-I 0 W/m 10,2 C 0,0 km/h (0 Bft)
12.09.2016 04:24 11,6 C 11,6 C 92 % 1015,9 hPa 0,0 mm 0,0 km/h (0 Bft) SO 136 0 min 0,000 mm 0,0 UV-I 0 W/m 10,3 C 0,0 km/h (0 Bft)
12.09.2016 04:25 11,6 C 11,6 C 92 % 1015,9 hPa 0,0 mm 0,0 km/h (0 Bft) SO 136 0 min 0,000 mm 0,0 UV-I 0 W/m 10,3 C 0,0 km/h (0 Bft)
12.09.2016 04:26 11,6 C 11,7 C 91 % 1015,9 hPa 0,0 mm 0,0 km/h (0 Bft) SO 136 0 min 0,000 mm 0,0 UV-I 0 W/m 10,2 C 0,0 km/h (0 Bft)
12.09.2016 04:27 11,7 C 11,7 C 91 % 1015,8 hPa 0,0 mm 0,0 km/h (0 Bft) SO 136 0 min 0,000 mm 0,0 UV-I 0 W/m 10,3 C 0,0 km/h (0 Bft)
12.09.2016 04:28 11,7 C 11,7 C 91 % 1015,9 hPa 0,0 mm 0,0 km/h (0 Bft) SO 136 0 min 0,000 mm 0,0 UV-I 0 W/m 10,3 C 0,0 km/h (0 Bft)
12.09.2016 04:29 11,6 C 11,7 C 90 % 1015,9 hPa 0,0 mm 0,0 km/h (0 Bft) SO 137 0 min 0,000 mm 0,0 UV-I 0 W/m 10,0 C 0,0 km/h (0 Bft)
12.09.2016 04:30 11,6 C 11,6 C 90 % 1015,9 hPa 0,0 mm 0,0 km/h (0 Bft) SW 228 0 min 0,000 mm 0,0 UV-I 0 W/m 10,0 C 0,0 km/h (0 Bft)
12.09.2016 04:31 11,5 C 11,6 C 90 % 1015,9 hPa 0,0 mm 0,0 km/h (0 Bft) W-SW 253 0 min 0,000 mm 0,0 UV-I 0 W/m 9,9 C 0,0 km/h (0 Bft)
12.09.2016 04:32 11,4 C 11,5 C 90 % 1015,9 hPa 0,0 mm 0,0 km/h (0 Bft) W-SW 253 0 min 0,000 mm 0,0 UV-I 0 W/m 9,8 C 0,0 km/h (0 Bft)
12.09.2016 04:33 11,4 C 11,4 C 90 % 1015,9 hPa 0,0 mm 0,0 km/h (0 Bft) W-SW 252 0 min 0,000 mm 0,0 UV-I 0 W/m 9,8 C 0,0 km/h (0 Bft)
12.09.2016 04:34 11,4 C 11,4 C 91 % 1015,9 hPa 0,0 mm 0,0 km/h (0 Bft) W-SW 252 0 min 0,000 mm 0,0 UV-I 0 W/m 10,0 C 0,0 km/h (0 Bft)
12.09.2016 04:35 11,4 C 11,4 C 91 % 1015,9 hPa 0,0 mm 0,0 km/h (0 Bft) W-SW 252 0 min 0,000 mm 0,0 UV-I 0 W/m 10,0 C 0,0 km/h (0 Bft)
12.09.2016 04:36 11,3 C 11,4 C 90 % 1015,9 hPa 0,0 mm 0,0 km/h (0 Bft) W-SW 252 0 min 0,000 mm 0,0 UV-I 0 W/m 9,7 C 0,0 km/h (0 Bft)
12.09.2016 04:37 11,3 C 11,3 C 91 % 1015,9 hPa 0,0 mm 0,0 km/h (0 Bft) W-SW 252 0 min 0,000 mm 0,0 UV-I 0 W/m 9,9 C 0,0 km/h (0 Bft)
12.09.2016 04:38 11,4 C 11,4 C 91 % 1015,9 hPa 0,0 mm 0,0 km/h (0 Bft) W-SW 252 0 min 0,000 mm 0,0 UV-I 0 W/m 10,0 C 0,0 km/h (0 Bft)
12.09.2016 04:39 11,4 C 11,4 C 91 % 1015,9 hPa 0,0 mm 0,0 km/h (0 Bft) W-SW 252 0 min 0,000 mm 0,0 UV-I 0 W/m 10,0 C 0,0 km/h (0 Bft)
12.09.2016 04:40 11,6 C 11,6 C 91 % 1015,9 hPa 0,0 mm 0,0 km/h (0 Bft) W-SW 252 0 min 0,000 mm 0,0 UV-I 0 W/m 10,2 C 0,0 km/h (0 Bft)
12.09.2016 04:41 11,6 C 11,6 C 91 % 1015,9 hPa 0,0 mm 0,0 km/h (0 Bft) W-SW 252 0 min 0,000 mm 0,0 UV-I 0 W/m 10,2 C 0,0 km/h (0 Bft)
12.09.2016 04:42 11,7 C 11,7 C 90 % 1015,9 hPa 0,0 mm 0,0 km/h (0 Bft) W-SW 252 0 min 0,000 mm 0,0 UV-I 0 W/m 10,1 C 0,0 km/h (0 Bft)
12.09.2016 04:43 11,7 C 11,7 C 90 % 1015,9 hPa 0,0 mm 0,0 km/h (0 Bft) W-SW 252 0 min 0,000 mm 0,0 UV-I 0 W/m 10,1 C 0,0 km/h (0 Bft)
12.09.2016 04:44 11,6 C 11,7 C 90 % 1015,9 hPa 0,0 mm 0,0 km/h (0 Bft) W-SW 252 0 min 0,000 mm 0,0 UV-I 0 W/m 10,0 C 0,0 km/h (0 Bft)
12.09.2016 04:45 11,6 C 11,6 C 90 % 1015,9 hPa 0,0 mm 0,0 km/h (0 Bft) W-SW 252 0 min 0,000 mm 0,0 UV-I 0 W/m 10,0 C 0,0 km/h (0 Bft)
12.09.2016 04:46 11,6 C 11,6 C 90 % 1015,9 hPa 0,0 mm 0,0 km/h (0 Bft) W-SW 252 0 min 0,000 mm 0,0 UV-I 0 W/m 10,0 C 0,0 km/h (0 Bft)
12.09.2016 04:47 11,6 C 11,6 C 90 % 1015,9 hPa 0,0 mm 0,0 km/h (0 Bft) W-SW 252 0 min 0,000 mm 0,0 UV-I 0 W/m 10,0 C 0,0 km/h (0 Bft)
12.09.2016 04:48 11,7 C 11,7 C 90 % 1015,8 hPa 0,0 mm 0,0 km/h (0 Bft) W-SW 252 0 min 0,000 mm 0,0 UV-I 0 W/m 10,1 C 0,0 km/h (0 Bft)
12.09.2016 04:49 11,7 C 11,7 C 90 % 1015,8 hPa 0,0 mm 0,0 km/h (0 Bft) W-SW 252 0 min 0,000 mm 0,0 UV-I 0 W/m 10,1 C 0,0 km/h (0 Bft)
12.09.2016 04:50 11,8 C 11,8 C 90 % 1015,9 hPa 0,0 mm 0,0 km/h (0 Bft) W-SW 252 0 min 0,000 mm 0,0 UV-I 0 W/m 10,2 C 0,0 km/h (0 Bft)
12.09.2016 04:51 11,9 C 11,9 C 89 % 1015,9 hPa 0,0 mm 0,0 km/h (0 Bft) W-SW 252 0 min 0,000 mm 0,0 UV-I 0 W/m 10,1 C 0,0 km/h (0 Bft)
12.09.2016 04:52 11,9 C 11,9 C 89 % 1015,9 hPa 0,0 mm 0,0 km/h (0 Bft) W-SW 252 0 min 0,000 mm 0,0 UV-I 0 W/m 10,1 C 0,0 km/h (0 Bft)
12.09.2016 04:53 12,0 C 12,0 C 88 % 1015,9 hPa 0,0 mm 0,0 km/h (0 Bft) W-SW 252 0 min 0,000 mm 0,0 UV-I 0 W/m 10,1 C 0,0 km/h (0 Bft)
12.09.2016 04:54 11,9 C 12,0 C 88 % 1015,9 hPa 0,0 mm 0,0 km/h (0 Bft) W-SW 252 0 min 0,000 mm 0,0 UV-I 0 W/m 10,0 C 0,0 km/h (0 Bft)
12.09.2016 04:55 11,9 C 12,0 C 88 % 1015,9 hPa 0,0 mm 0,0 km/h (0 Bft) W-SW 252 0 min 0,000 mm 0,0 UV-I 0 W/m 10,0 C 0,0 km/h (0 Bft)
12.09.2016 04:56 11,9 C 11,9 C 88 % 1016,0 hPa 0,0 mm 0,0 km/h (0 Bft) W-SW 252 0 min 0,000 mm 0,0 UV-I 0 W/m 10,0 C 0,0 km/h (0 Bft)
12.09.2016 04:57 12,1 C 12,1 C 88 % 1016,0 hPa 0,0 mm 0,0 km/h (0 Bft) SW 234 0 min 0,000 mm 0,0 UV-I 0 W/m 10,2 C 0,0 km/h (0 Bft)
12.09.2016 04:58 12,2 C 12,2 C 88 % 1015,9 hPa 0,0 mm 0,0 km/h (0 Bft) SW 234 0 min 0,000 mm 0,0 UV-I 0 W/m 10,3 C 0,0 km/h (0 Bft)
12.09.2016 04:59 12,4 C 12,4 C 87 % 1015,9 hPa 0,0 mm 0,0 km/h (0 Bft) SW 234 0 min 0,000 mm 0,0 UV-I 0 W/m 10,3 C 0,0 km/h (0 Bft)
12.09.2016 05:00 12,6 C 12,6 C 87 % 1016,1 hPa 0,0 mm 0,0 km/h (0 Bft) SW 234 0 min 0,000 mm 0,0 UV-I 0 W/m 10,5 C 0,0 km/h (0 Bft)
12.09.2016 05:01 12,7 C 12,7 C 87 % 1016,0 hPa 0,0 mm 0,0 km/h (0 Bft) SW 234 0 min 0,000 mm 0,0 UV-I 0 W/m 10,6 C 0,0 km/h (0 Bft)
12.09.2016 05:02 12,8 C 12,8 C 86 % 1016,0 hPa 0,0 mm 0,0 km/h (0 Bft) SW 234 0 min 0,000 mm 0,0 UV-I 0 W/m 10,5 C 0,0 km/h (0 Bft)
12.09.2016 05:03 12,8 C 12,8 C 86 % 1016,0 hPa 0,0 mm 0,0 km/h (0 Bft) SW 234 0 min 0,000 mm 0,0 UV-I 0 W/m 10,5 C 0,0 km/h (0 Bft)
12.09.2016 05:04 12,8 C 12,8 C 86 % 1016,0 hPa 0,0 mm 0,0 km/h (0 Bft) SW 234 0 min 0,000 mm 0,0 UV-I 0 W/m 10,5 C 0,0 km/h (0 Bft)
12.09.2016 05:05 12,8 C 12,8 C 86 % 1015,9 hPa 0,0 mm 0,0 km/h (0 Bft) SW 234 0 min 0,000 mm 0,0 UV-I 0 W/m 10,5 C 0,0 km/h (0 Bft)
12.09.2016 05:06 12,8 C 12,8 C 86 % 1015,9 hPa 0,0 mm 0,0 km/h (0 Bft) SW 234 0 min 0,000 mm 0,0 UV-I 0 W/m 10,5 C 0,0 km/h (0 Bft)
12.09.2016 05:07 12,7 C 12,8 C 86 % 1016,0 hPa 0,0 mm 0,0 km/h (0 Bft) SW 234 0 min 0,000 mm 0,0 UV-I 0 W/m 10,4 C 0,0 km/h (0 Bft)
12.09.2016 05:08 12,6 C 12,7 C 86 % 1016,0 hPa 0,0 mm 0,0 km/h (0 Bft) SW 234 0 min 0,000 mm 0,0 UV-I 0 W/m 10,3 C 0,0 km/h (0 Bft)
12.09.2016 05:09 12,4 C 12,6 C 86 % 1016,0 hPa 0,0 mm 0,0 km/h (0 Bft) SW 234 0 min 0,000 mm 0,0 UV-I 0 W/m 10,1 C 0,0 km/h (0 Bft)
12.09.2016 05:10 12,3 C 12,4 C 87 % 1016,0 hPa 0,0 mm 0,0 km/h (0 Bft) SW 234 0 min 0,000 mm 0,0 UV-I 0 W/m 10,2 C 0,0 km/h (0 Bft)
12.09.2016 05:11 12,2 C 12,3 C 87 % 1016,0 hPa 0,0 mm 0,0 km/h (0 Bft) SW 234 0 min 0,000 mm 0,0 UV-I 0 W/m 10,1 C 0,0 km/h (0 Bft)
12.09.2016 05:12 12,2 C 12,2 C 87 % 1015,9 hPa 0,0 mm 0,0 km/h (0 Bft) SW 234 0 min 0,000 mm 0,0 UV-I 0 W/m 10,1 C 0,0 km/h (0 Bft)
12.09.2016 05:13 12,1 C 12,2 C 88 % 1015,9 hPa 0,0 mm 0,0 km/h (0 Bft) SW 234 0 min 0,000 mm 0,0 UV-I 0 W/m 10,2 C 0,0 km/h (0 Bft)
12.09.2016 05:14 12,1 C 12,1 C 88 % 1015,8 hPa 0,0 mm 0,0 km/h (0 Bft) SW 234 0 min 0,000 mm 0,0 UV-I 0 W/m 10,2 C 0,0 km/h (0 Bft)
12.09.2016 05:15 12,2 C 12,2 C 89 % 1015,9 hPa 0,0 mm 0,0 km/h (0 Bft) SW 234 0 min 0,000 mm 0,0 UV-I 0 W/m 10,4 C 0,0 km/h (0 Bft)
12.09.2016 05:16 12,2 C 12,2 C 88 % 1015,9 hPa 0,0 mm 0,0 km/h (0 Bft) SW 234 0 min 0,000 mm 0,0 UV-I 0 W/m 10,3 C 0,0 km/h (0 Bft)
12.09.2016 05:17 12,3 C 12,3 C 88 % 1015,9 hPa 0,0 mm 0,0 km/h (0 Bft) SW 234 0 min 0,000 mm 0,0 UV-I 0 W/m 10,4 C 0,0 km/h (0 Bft)
12.09.2016 05:18 12,3 C 12,3 C 87 % 1015,9 hPa 0,0 mm 0,0 km/h (0 Bft) SW 234 0 min 0,000 mm 0,0 UV-I 0 W/m 10,2 C 0,0 km/h (0 Bft)
12.09.2016 05:19 12,2 C 12,3 C 88 % 1015,9 hPa 0,0 mm 0,0 km/h (0 Bft) SW 234 0 min 0,000 mm 0,0 UV-I 0 W/m 10,3 C 0,0 km/h (0 Bft)
12.09.2016 05:20 12,2 C 12,3 C 88 % 1015,9 hPa 0,0 mm 0,0 km/h (0 Bft) SW 234 0 min 0,000 mm 0,0 UV-I 0 W/m 10,3 C 0,0 km/h (0 Bft)
12.09.2016 05:21 12,2 C 12,2 C 88 % 1015,9 hPa 0,0 mm 0,0 km/h (0 Bft) SW 235 0 min 0,000 mm 0,0 UV-I 0 W/m 10,3 C 0,0 km/h (0 Bft)
12.09.2016 05:22 12,3 C 12,3 C 88 % 1015,9 hPa 0,0 mm 0,0 km/h (0 Bft) SW 235 0 min 0,000 mm 0,0 UV-I 0 W/m 10,4 C 0,0 km/h (0 Bft)
12.09.2016 05:23 12,3 C 12,3 C 88 % 1015,9 hPa 0,0 mm 0,0 km/h (0 Bft) SW 235 0 min 0,000 mm 0,0 UV-I 0 W/m 10,4 C 0,0 km/h (0 Bft)
12.09.2016 05:24 12,3 C 12,3 C 87 % 1015,9 hPa 0,0 mm 0,0 km/h (0 Bft) SW 235 0 min 0,000 mm 0,0 UV-I 0 W/m 10,2 C 0,0 km/h (0 Bft)
12.09.2016 05:25 12,3 C 12,3 C 87 % 1015,9 hPa 0,0 mm 0,0 km/h (0 Bft) SW 235 0 min 0,000 mm 0,0 UV-I 0 W/m 10,2 C 0,0 km/h (0 Bft)
12.09.2016 05:26 12,1 C 12,3 C 87 % 1015,8 hPa 0,0 mm 0,0 km/h (0 Bft) SW 235 0 min 0,000 mm 0,0 UV-I 0 W/m 10,0 C 0,0 km/h (0 Bft)
12.09.2016 05:27 12,0 C 12,1 C 87 % 1015,9 hPa 0,0 mm 0,0 km/h (0 Bft) N-NW 338 0 min 0,000 mm 0,0 UV-I 0 W/m 9,9 C 0,0 km/h (0 Bft)
12.09.2016 05:28 11,9 C 12,0 C 87 % 1015,8 hPa 0,0 mm 0,0 km/h (0 Bft) N-NW 338 0 min 0,000 mm 0,0 UV-I 0 W/m 9,8 C 0,0 km/h (0 Bft)
12.09.2016 05:29 11,9 C 11,9 C 87 % 1015,8 hPa 0,0 mm 0,0 km/h (0 Bft) W-NW 298 0 min 0,000 mm 0,0 UV-I 0 W/m 9,8 C 0,0 km/h (0 Bft)
12.09.2016 05:30 11,8 C 11,9 C 87 % 1015,8 hPa 0,0 mm 0,0 km/h (0 Bft) W-NW 298 0 min 0,000 mm 0,0 UV-I 0 W/m 9,7 C 0,0 km/h (0 Bft)
12.09.2016 05:31 11,8 C 11,8 C 87 % 1015,8 hPa 0,0 mm 0,0 km/h (0 Bft) W-NW 298 0 min 0,000 mm 0,0 UV-I 0 W/m 9,7 C 0,0 km/h (0 Bft)
12.09.2016 05:32 11,8 C 11,8 C 88 % 1015,8 hPa 0,0 mm 0,0 km/h (0 Bft) W-NW 298 0 min 0,000 mm 0,0 UV-I 0 W/m 9,9 C 0,0 km/h (0 Bft)
12.09.2016 05:33 11,7 C 11,8 C 88 % 1015,8 hPa 0,0 mm 0,0 km/h (0 Bft) W-NW 298 0 min 0,000 mm 0,0 UV-I 0 W/m 9,8 C 0,0 km/h (0 Bft)
12.09.2016 05:34 11,7 C 11,8 C 88 % 1015,8 hPa 0,0 mm 0,0 km/h (0 Bft) W-NW 298 0 min 0,000 mm 0,0 UV-I 0 W/m 9,8 C 0,0 km/h (0 Bft)
12.09.2016 05:35 11,7 C 11,7 C 88 % 1015,8 hPa 0,0 mm 0,0 km/h (0 Bft) W-NW 298 0 min 0,000 mm 0,0 UV-I 0 W/m 9,8 C 0,0 km/h (0 Bft)
12.09.2016 05:36 11,8 C 11,8 C 88 % 1015,8 hPa 0,0 mm 0,0 km/h (0 Bft) W-NW 298 0 min 0,000 mm 0,0 UV-I 0 W/m 9,9 C 0,0 km/h (0 Bft)
12.09.2016 05:37 11,8 C 11,8 C 88 % 1015,8 hPa 0,0 mm 0,0 km/h (0 Bft) W-NW 298 0 min 0,000 mm 0,0 UV-I 0 W/m 9,9 C 0,0 km/h (0 Bft)
12.09.2016 05:38 11,9 C 11,9 C 88 % 1015,8 hPa 0,0 mm 0,0 km/h (0 Bft) W-NW 298 0 min 0,000 mm 0,0 UV-I 0 W/m 10,0 C 0,0 km/h (0 Bft)
12.09.2016 05:39 11,9 C 11,9 C 87 % 1015,7 hPa 0,0 mm 0,0 km/h (0 Bft) W-NW 298 0 min 0,000 mm 0,0 UV-I 0 W/m 9,8 C 0,0 km/h (0 Bft)
12.09.2016 05:40 12,0 C 12,0 C 87 % 1015,8 hPa 0,0 mm 0,0 km/h (0 Bft) W-NW 298 0 min 0,000 mm 0,0 UV-I 0 W/m 9,9 C 0,0 km/h (0 Bft)
12.09.2016 05:41 12,1 C 12,1 C 87 % 1015,8 hPa 0,0 mm 0,0 km/h (0 Bft) W-NW 298 0 min 0,000 mm 0,0 UV-I 0 W/m 10,0 C 0,0 km/h (0 Bft)
12.09.2016 05:42 12,1 C 12,1 C 88 % 1015,8 hPa 0,0 mm 0,0 km/h (0 Bft) W-NW 298 0 min 0,000 mm 0,0 UV-I 0 W/m 10,2 C 0,0 km/h (0 Bft)
12.09.2016 05:43 12,1 C 12,1 C 88 % 1015,8 hPa 0,0 mm 0,0 km/h (0 Bft) W-NW 298 0 min 0,000 mm 0,0 UV-I 0 W/m 10,2 C 0,0 km/h (0 Bft)
12.09.2016 05:44 11,9 C 12,1 C 87 % 1015,8 hPa 0,0 mm 0,0 km/h (0 Bft) W-NW 298 0 min 0,000 mm 0,0 UV-I 0 W/m 9,8 C 0,0 km/h (0 Bft)
12.09.2016 05:45 11,9 C 11,9 C 87 % 1015,8 hPa 0,0 mm 0,0 km/h (0 Bft) W-NW 298 0 min 0,000 mm 0,0 UV-I 0 W/m 9,8 C 0,0 km/h (0 Bft)
12.09.2016 05:46 11,8 C 11,9 C 87 % 1015,8 hPa 0,0 mm 0,0 km/h (0 Bft) W-NW 298 0 min 0,000 mm 0,0 UV-I 0 W/m 9,7 C 0,0 km/h (0 Bft)
12.09.2016 05:47 11,8 C 11,8 C 87 % 1015,8 hPa 0,0 mm 0,0 km/h (0 Bft) W-NW 298 0 min 0,000 mm 0,0 UV-I 0 W/m 9,7 C 0,0 km/h (0 Bft)
12.09.2016 05:48 11,7 C 11,8 C 87 % 1015,8 hPa 0,0 mm 0,0 km/h (0 Bft) W-NW 298 0 min 0,000 mm 0,0 UV-I 0 W/m 9,6 C 0,0 km/h (0 Bft)
12.09.2016 05:49 11,7 C 11,7 C 88 % 1015,8 hPa 0,0 mm 0,0 km/h (0 Bft) W-NW 298 0 min 0,000 mm 0,0 UV-I 0 W/m 9,8 C 0,0 km/h (0 Bft)
12.09.2016 05:50 11,8 C 11,8 C 88 % 1015,8 hPa 0,0 mm 0,0 km/h (0 Bft) W-NW 298 0 min 0,000 mm 0,0 UV-I 0 W/m 9,9 C 0,0 km/h (0 Bft)
12.09.2016 05:51 11,8 C 11,8 C 88 % 1015,7 hPa 0,0 mm 0,0 km/h (0 Bft) W-NW 298 0 min 0,000 mm 0,0 UV-I 0 W/m 9,9 C 0,0 km/h (0 Bft)
12.09.2016 05:52 11,9 C 11,9 C 88 % 1015,7 hPa 0,0 mm 0,0 km/h (0 Bft) W-NW 298 0 min 0,000 mm 0,0 UV-I 0 W/m 10,0 C 0,0 km/h (0 Bft)
12.09.2016 05:53 11,9 C 11,9 C 88 % 1015,7 hPa 0,0 mm 0,0 km/h (0 Bft) W-NW 298 0 min 0,000 mm 0,0 UV-I 0 W/m 10,0 C 0,0 km/h (0 Bft)
12.09.2016 05:54 12,0 C 12,0 C 88 % 1015,7 hPa 0,0 mm 0,0 km/h (0 Bft) W-NW 298 0 min 0,000 mm 0,0 UV-I 0 W/m 10,1 C 0,0 km/h (0 Bft)
12.09.2016 05:55 12,0 C 12,1 C 88 % 1015,8 hPa 0,0 mm 0,0 km/h (0 Bft) W-NW 298 0 min 0,000 mm 0,0 UV-I 0 W/m 10,1 C 0,0 km/h (0 Bft)
12.09.2016 05:56 12,0 C 12,1 C 87 % 1015,8 hPa 0,0 mm 0,0 km/h (0 Bft) W-NW 298 0 min 0,000 mm 0,0 UV-I 0 W/m 9,9 C 0,0 km/h (0 Bft)
12.09.2016 05:58 11,9 C 12,0 C 88 % 1015,8 hPa 0,0 mm 0,0 km/h (0 Bft) W-NW 298 0 min 0,000 mm 0,0 UV-I 0 W/m 10,0 C 0,0 km/h (0 Bft)
12.09.2016 05:59 11,9 C 12,0 C 88 % 1015,8 hPa 0,0 mm 0,0 km/h (0 Bft) W-NW 298 0 min 0,000 mm 0,0 UV-I 0 W/m 10,0 C 0,0 km/h (0 Bft)
12.09.2016 06:00 12,1 C 12,1 C 88 % 1015,8 hPa 0,0 mm 0,0 km/h (0 Bft) W-NW 298 0 min 0,000 mm 0,0 UV-I 0 W/m 10,2 C 0,0 km/h (0 Bft)
12.09.2016 06:01 12,1 C 12,1 C 88 % 1015,8 hPa 0,0 mm 0,0 km/h (0 Bft) W-NW 298 0 min 0,000 mm 0,0 UV-I 0 W/m 10,2 C 0,0 km/h (0 Bft)
12.09.2016 06:02 12,1 C 12,1 C 88 % 1015,8 hPa 0,0 mm 0,0 km/h (0 Bft) W-NW 298 0 min 0,000 mm 0,0 UV-I 0 W/m 10,2 C 0,0 km/h (0 Bft)
12.09.2016 06:03 12,2 C 12,2 C 88 % 1015,8 hPa 0,0 mm 0,0 km/h (0 Bft) W-NW 298 0 min 0,000 mm 0,0 UV-I 0 W/m 10,3 C 0,0 km/h (0 Bft)
12.09.2016 06:04 12,2 C 12,2 C 87 % 1015,7 hPa 0,0 mm 0,0 km/h (0 Bft) W-NW 298 0 min 0,000 mm 0,0 UV-I 0 W/m 10,1 C 0,0 km/h (0 Bft)
12.09.2016 06:05 12,2 C 12,2 C 87 % 1015,8 hPa 0,0 mm 0,0 km/h (0 Bft) W-NW 298 0 min 0,000 mm 0,0 UV-I 0 W/m 10,1 C 0,0 km/h (0 Bft)
12.09.2016 06:06 12,2 C 12,2 C 87 % 1015,8 hPa 0,0 mm 0,0 km/h (0 Bft) W-NW 298 0 min 0,000 mm 0,0 UV-I 0 W/m 10,1 C 0,0 km/h (0 Bft)
12.09.2016 06:07 12,2 C 12,2 C 87 % 1015,8 hPa 0,0 mm 0,0 km/h (0 Bft) W-NW 298 0 min 0,000 mm 0,0 UV-I 0 W/m 10,1 C 0,0 km/h (0 Bft)
12.09.2016 06:08 12,2 C 12,2 C 87 % 1015,7 hPa 0,0 mm 0,0 km/h (0 Bft) W-NW 298 0 min 0,000 mm 0,0 UV-I 0 W/m 10,1 C 0,0 km/h (0 Bft)
12.09.2016 06:09 12,2 C 12,2 C 87 % 1015,8 hPa 0,0 mm 0,0 km/h (0 Bft) W-NW 298 0 min 0,000 mm 0,0 UV-I 0 W/m 10,1 C 0,0 km/h (0 Bft)
12.09.2016 06:10 12,1 C 12,2 C 88 % 1015,8 hPa 0,0 mm 0,0 km/h (0 Bft) W-NW 298 0 min 0,000 mm 0,0 UV-I 0 W/m 10,2 C 0,0 km/h (0 Bft)
12.09.2016 06:11 12,1 C 12,1 C 87 % 1015,8 hPa 0,0 mm 0,0 km/h (0 Bft) W-NW 298 0 min 0,000 mm 0,0 UV-I 0 W/m 10,0 C 0,0 km/h (0 Bft)
12.09.2016 06:12 12,0 C 12,1 C 87 % 1015,8 hPa 0,0 mm 0,0 km/h (0 Bft) W-NW 298 0 min 0,000 mm 0,0 UV-I 0 W/m 9,9 C 0,0 km/h (0 Bft)
12.09.2016 06:13 11,9 C 12,0 C 87 % 1015,9 hPa 0,0 mm 0,0 km/h (0 Bft) W-NW 298 0 min 0,000 mm 0,0 UV-I 0 W/m 9,8 C 0,0 km/h (0 Bft)
12.09.2016 06:14 11,8 C 11,9 C 88 % 1015,8 hPa 0,0 mm 0,0 km/h (0 Bft) W-NW 298 0 min 0,000 mm 0,0 UV-I 0 W/m 9,9 C 0,0 km/h (0 Bft)
12.09.2016 06:15 11,8 C 11,8 C 88 % 1015,8 hPa 0,0 mm 0,0 km/h (0 Bft) W-NW 298 0 min 0,000 mm 0,0 UV-I 0 W/m 9,9 C 0,0 km/h (0 Bft)
12.09.2016 06:16 11,9 C 11,9 C 88 % 1015,8 hPa 0,0 mm 0,0 km/h (0 Bft) W-NW 298 0 min 0,000 mm 0,0 UV-I 0 W/m 10,0 C 0,0 km/h (0 Bft)
12.09.2016 06:17 12,0 C 12,0 C 88 % 1015,8 hPa 0,0 mm 0,0 km/h (0 Bft) W-NW 298 0 min 0,000 mm 0,0 UV-I 0 W/m 10,1 C 0,0 km/h (0 Bft)
12.09.2016 06:18 12,1 C 12,1 C 87 % 1015,9 hPa 0,0 mm 0,0 km/h (0 Bft) W-NW 298 0 min 0,000 mm 0,0 UV-I 0 W/m 10,0 C 0,0 km/h (0 Bft)
12.09.2016 06:19 12,2 C 12,2 C 87 % 1015,9 hPa 0,0 mm 0,0 km/h (0 Bft) W-NW 298 0 min 0,000 mm 0,0 UV-I 0 W/m 10,1 C 0,0 km/h (0 Bft)
12.09.2016 06:20 12,3 C 12,3 C 87 % 1015,8 hPa 0,0 mm 0,0 km/h (0 Bft) W-NW 298 0 min 0,000 mm 0,0 UV-I 0 W/m 10,2 C 0,0 km/h (0 Bft)
12.09.2016 06:21 12,3 C 12,3 C 87 % 1015,8 hPa 0,0 mm 0,0 km/h (0 Bft) W-NW 298 0 min 0,000 mm 0,0 UV-I 0 W/m 10,2 C 0,0 km/h (0 Bft)
12.09.2016 06:22 12,4 C 12,4 C 87 % 1015,8 hPa 0,0 mm 0,0 km/h (0 Bft) W-NW 298 0 min 0,000 mm 0,0 UV-I 0 W/m 10,3 C 0,0 km/h (0 Bft)
12.09.2016 06:23 12,4 C 12,4 C 87 % 1015,9 hPa 0,0 mm 0,0 km/h (0 Bft) W-NW 298 0 min 0,000 mm 0,0 UV-I 0 W/m 10,3 C 0,0 km/h (0 Bft)
12.09.2016 06:24 12,4 C 12,4 C 86 % 1015,9 hPa 0,0 mm 0,0 km/h (0 Bft) W-NW 298 0 min 0,000 mm 0,0 UV-I 0 W/m 10,1 C 0,0 km/h (0 Bft)
12.09.2016 06:25 12,3 C 12,4 C 87 % 1015,9 hPa 0,0 mm 0,0 km/h (0 Bft) W-NW 298 0 min 0,000 mm 0,0 UV-I 0 W/m 10,2 C 0,0 km/h (0 Bft)
12.09.2016 06:26 12,2 C 12,3 C 87 % 1015,9 hPa 0,0 mm 0,0 km/h (0 Bft) W-NW 298 0 min 0,000 mm 0,0 UV-I 0 W/m 10,1 C 0,0 km/h (0 Bft)
12.09.2016 06:27 12,2 C 12,2 C 87 % 1015,9 hPa 0,0 mm 0,0 km/h (0 Bft) W-NW 298 0 min 0,000 mm 0,0 UV-I 0 W/m 10,1 C 0,0 km/h (0 Bft)
12.09.2016 06:28 12,2 C 12,2 C 87 % 1015,9 hPa 0,0 mm 0,0 km/h (0 Bft) W-NW 298 0 min 0,000 mm 0,0 UV-I 0 W/m 10,1 C 0,0 km/h (0 Bft)
12.09.2016 06:29 12,3 C 12,3 C 87 % 1015,9 hPa 0,0 mm 0,0 km/h (0 Bft) W-NW 298 0 min 0,000 mm 0,0 UV-I 0 W/m 10,2 C 0,0 km/h (0 Bft)
12.09.2016 06:30 12,4 C 12,4 C 86 % 1016,0 hPa 0,0 mm 0,0 km/h (0 Bft) W-NW 298 0 min 0,000 mm 0,0 UV-I 0 W/m 10,1 C 0,0 km/h (0 Bft)
12.09.2016 06:31 12,6 C 12,6 C 86 % 1016,0 hPa 0,0 mm 0,0 km/h (0 Bft) W-NW 298 0 min 0,000 mm 0,0 UV-I 0 W/m 10,3 C 0,0 km/h (0 Bft)
12.09.2016 06:32 12,7 C 12,7 C 86 % 1016,0 hPa 0,0 mm 0,0 km/h (0 Bft) W-NW 298 0 min 0,000 mm 0,0 UV-I 0 W/m 10,4 C 0,0 km/h (0 Bft)
12.09.2016 06:33 12,8 C 12,8 C 85 % 1016,0 hPa 0,0 mm 0,0 km/h (0 Bft) W-NW 298 0 min 0,000 mm 0,0 UV-I 0 W/m 10,3 C 0,0 km/h (0 Bft)
12.09.2016 06:34 12,8 C 12,8 C 85 % 1016,1 hPa 0,0 mm 0,0 km/h (0 Bft) W-NW 298 0 min 0,000 mm 0,0 UV-I 0 W/m 10,3 C 0,0 km/h (0 Bft)
12.09.2016 06:35 12,9 C 12,9 C 85 % 1016,1 hPa 0,0 mm 0,0 km/h (0 Bft) W-NW 298 0 min 0,000 mm 0,0 UV-I 0 W/m 10,4 C 0,0 km/h (0 Bft)
12.09.2016 06:36 12,9 C 12,9 C 84 % 1016,1 hPa 0,0 mm 0,0 km/h (0 Bft) W-NW 298 0 min 0,000 mm 0,0 UV-I 0 W/m 10,3 C 0,0 km/h (0 Bft)
12.09.2016 06:37 12,8 C 12,9 C 85 % 1016,1 hPa 0,0 mm 0,0 km/h (0 Bft) W-NW 298 0 min 0,000 mm 0,0 UV-I 0 W/m 10,3 C 0,0 km/h (0 Bft)
12.09.2016 06:38 12,8 C 12,8 C 86 % 1016,1 hPa 0,0 mm 0,0 km/h (0 Bft) W-NW 298 0 min 0,000 mm 0,0 UV-I 0 W/m 10,5 C 0,0 km/h (0 Bft)
12.09.2016 06:39 12,8 C 12,8 C 85 % 1016,2 hPa 0,0 mm 0,0 km/h (0 Bft) W-NW 298 0 min 0,000 mm 0,0 UV-I 0 W/m 10,3 C 0,0 km/h (0 Bft)
12.09.2016 06:40 12,7 C 12,8 C 85 % 1016,2 hPa 0,0 mm 0,0 km/h (0 Bft) W-NW 298 0 min 0,000 mm 0,0 UV-I 0 W/m 10,2 C 0,0 km/h (0 Bft)
12.09.2016 06:41 12,6 C 12,7 C 85 % 1016,1 hPa 0,0 mm 0,0 km/h (0 Bft) W-NW 298 0 min 0,000 mm 0,0 UV-I 0 W/m 10,1 C 0,0 km/h (0 Bft)
12.09.2016 06:42 12,4 C 12,6 C 86 % 1016,1 hPa 0,0 mm 0,0 km/h (0 Bft) W-NW 298 0 min 0,000 mm 0,0 UV-I 0 W/m 10,1 C 0,0 km/h (0 Bft)
12.09.2016 06:43 12,3 C 12,4 C 86 % 1016,1 hPa 0,0 mm 0,0 km/h (0 Bft) W-NW 298 0 min 0,000 mm 0,0 UV-I 0 W/m 10,0 C 0,0 km/h (0 Bft)
12.09.2016 06:44 12,2 C 12,3 C 87 % 1016,1 hPa 0,0 mm 0,0 km/h (0 Bft) W-NW 298 0 min 0,000 mm 0,0 UV-I 0 W/m 10,1 C 0,0 km/h (0 Bft)
12.09.2016 06:45 12,1 C 12,2 C 87 % 1016,1 hPa 0,0 mm 0,0 km/h (0 Bft) W-NW 298 0 min 0,000 mm 0,0 UV-I 0 W/m 10,0 C 0,0 km/h (0 Bft)
12.09.2016 06:46 12,2 C 12,2 C 87 % 1016,1 hPa 0,0 mm 0,0 km/h (0 Bft) W-NW 298 0 min 0,000 mm 0,0 UV-I 0 W/m 10,1 C 0,0 km/h (0 Bft)
12.09.2016 06:47 12,3 C 12,3 C 87 % 1016,1 hPa 0,0 mm 0,0 km/h (0 Bft) W-NW 298 0 min 0,000 mm 0,0 UV-I 0 W/m 10,2 C 0,0 km/h (0 Bft)
12.09.2016 06:48 12,5 C 12,5 C 87 % 1016,1 hPa 0,0 mm 0,0 km/h (0 Bft) W-NW 298 0 min 0,000 mm 0,0 UV-I 0 W/m 10,4 C 0,0 km/h (0 Bft)
12.09.2016 06:49 12,6 C 12,6 C 86 % 1016,1 hPa 0,0 mm 0,0 km/h (0 Bft) W-NW 298 0 min 0,000 mm 0,0 UV-I 0 W/m 10,3 C 0,0 km/h (0 Bft)
12.09.2016 06:50 12,6 C 12,6 C 87 % 1016,1 hPa 0,0 mm 0,0 km/h (0 Bft) W-NW 298 0 min 0,000 mm 0,0 UV-I 0 W/m 10,5 C 0,0 km/h (0 Bft)
12.09.2016 06:51 12,6 C 12,6 C 86 % 1016,1 hPa 0,0 mm 0,0 km/h (0 Bft) W-NW 298 0 min 0,000 mm 0,0 UV-I 0 W/m 10,3 C 0,0 km/h (0 Bft)
12.09.2016 06:52 12,5 C 12,6 C 86 % 1016,1 hPa 0,0 mm 0,0 km/h (0 Bft) W-NW 298 0 min 0,000 mm 0,0 UV-I 0 W/m 10,2 C 0,0 km/h (0 Bft)
12.09.2016 06:53 12,3 C 12,5 C 86 % 1016,1 hPa 0,0 mm 0,0 km/h (0 Bft) W-NW 298 0 min 0,000 mm 0,0 UV-I 0 W/m 10,0 C 0,0 km/h (0 Bft)
12.09.2016 06:54 12,2 C 12,3 C 86 % 1016,1 hPa 0,0 mm 0,0 km/h (0 Bft) W-NW 298 0 min 0,000 mm 0,0 UV-I 0 W/m 9,9 C 0,0 km/h (0 Bft)
12.09.2016 06:55 11,9 C 12,2 C 86 % 1016,1 hPa 0,0 mm 0,0 km/h (0 Bft) W-NW 298 0 min 0,000 mm 0,0 UV-I 0 W/m 9,6 C 0,0 km/h (0 Bft)
12.09.2016 06:56 11,7 C 11,9 C 87 % 1016,1 hPa 0,0 mm 0,0 km/h (0 Bft) W-NW 298 0 min 0,000 mm 0,0 UV-I 5 W/m 9,6 C 0,0 km/h (0 Bft)
12.09.2016 06:57 11,5 C 11,7 C 88 % 1016,1 hPa 0,0 mm 0,0 km/h (0 Bft) W-NW 298 0 min 0,000 mm 0,0 UV-I 5 W/m 9,6 C 0,0 km/h (0 Bft)
12.09.2016 06:58 11,4 C 11,5 C 88 % 1016,1 hPa 0,0 mm 0,0 km/h (0 Bft) W-NW 298 0 min 0,000 mm 0,0 UV-I 5 W/m 9,5 C 0,0 km/h (0 Bft)
12.09.2016 06:59 11,3 C 11,4 C 89 % 1016,1 hPa 0,0 mm 0,0 km/h (0 Bft) W-NW 298 0 min 0,000 mm 0,0 UV-I 5 W/m 9,6 C 0,0 km/h (0 Bft)
12.09.2016 07:00 11,4 C 11,4 C 89 % 1016,2 hPa 0,0 mm 0,0 km/h (0 Bft) W-NW 298 0 min 0,000 mm 0,0 UV-I 7 W/m 9,7 C 0,0 km/h (0 Bft)
12.09.2016 07:01 11,3 C 11,4 C 89 % 1016,1 hPa 0,0 mm 0,0 km/h (0 Bft) W-NW 298 0 min 0,000 mm 0,0 UV-I 7 W/m 9,6 C 0,0 km/h (0 Bft)
12.09.2016 07:02 11,4 C 11,4 C 89 % 1016,1 hPa 0,0 mm 0,0 km/h (0 Bft) W-NW 298 0 min 0,000 mm 0,0 UV-I 9 W/m 9,7 C 0,0 km/h (0 Bft)
12.09.2016 07:03 11,4 C 11,4 C 90 % 1016,1 hPa 0,0 mm 0,0 km/h (0 Bft) W-NW 298 0 min 0,000 mm 0,0 UV-I 9 W/m 9,8 C 0,0 km/h (0 Bft)
12.09.2016 07:04 11,4 C 11,4 C 89 % 1016,2 hPa 0,0 mm 0,0 km/h (0 Bft) W-NW 298 0 min 0,000 mm 0,0 UV-I 9 W/m 9,7 C 0,0 km/h (0 Bft)
12.09.2016 07:05 11,4 C 11,4 C 89 % 1016,2 hPa 0,0 mm 0,0 km/h (0 Bft) W-NW 298 0 min 0,000 mm 0,0 UV-I 9 W/m 9,7 C 0,0 km/h (0 Bft)
12.09.2016 07:06 11,4 C 11,4 C 89 % 1016,2 hPa 0,0 mm 0,0 km/h (0 Bft) W-NW 298 0 min 0,000 mm 0,0 UV-I 11 W/m 9,7 C 0,0 km/h (0 Bft)
12.09.2016 07:07 11,3 C 11,4 C 89 % 1016,2 hPa 0,0 mm 0,0 km/h (0 Bft) W-NW 298 0 min 0,000 mm 0,0 UV-I 11 W/m 9,6 C 0,0 km/h (0 Bft)
12.09.2016 07:08 11,2 C 11,3 C 88 % 1016,2 hPa 0,0 mm 0,0 km/h (0 Bft) W-NW 298 0 min 0,000 mm 0,0 UV-I 11 W/m 9,3 C 0,0 km/h (0 Bft)
12.09.2016 07:09 11,0 C 11,2 C 88 % 1016,2 hPa 0,0 mm 0,0 km/h (0 Bft) W-NW 298 0 min 0,000 mm 0,0 UV-I 11 W/m 9,1 C 0,0 km/h (0 Bft)
12.09.2016 07:10 10,8 C 11,0 C 89 % 1016,3 hPa 0,0 mm 0,0 km/h (0 Bft) W-NW 298 0 min 0,000 mm 0,0 UV-I 12 W/m 9,1 C 0,0 km/h (0 Bft)
12.09.2016 07:11 10,8 C 10,8 C 90 % 1016,3 hPa 0,0 mm 0,0 km/h (0 Bft) W-NW 298 0 min 0,000 mm 0,0 UV-I 12 W/m 9,2 C 0,0 km/h (0 Bft)
12.09.2016 07:12 10,7 C 10,8 C 91 % 1016,2 hPa 0,0 mm 0,0 km/h (0 Bft) W-NW 298 0 min 0,000 mm 0,0 UV-I 12 W/m 9,3 C 0,0 km/h (0 Bft)
12.09.2016 07:13 10,7 C 10,7 C 91 % 1016,3 hPa 0,0 mm 0,0 km/h (0 Bft) W-NW 298 0 min 0,000 mm 0,0 UV-I 14 W/m 9,3 C 0,0 km/h (0 Bft)
12.09.2016 07:14 10,8 C 10,8 C 91 % 1016,3 hPa 0,0 mm 0,0 km/h (0 Bft) W-NW 298 0 min 0,000 mm 0,0 UV-I 14 W/m 9,4 C 0,0 km/h (0 Bft)
12.09.2016 07:15 10,8 C 10,8 C 91 % 1016,2 hPa 0,0 mm 0,0 km/h (0 Bft) W-NW 298 0 min 0,000 mm 0,0 UV-I 14 W/m 9,4 C 0,0 km/h (0 Bft)
12.09.2016 07:16 10,9 C 10,9 C 92 % 1016,2 hPa 0,0 mm 0,0 km/h (0 Bft) W-NW 298 0 min 0,000 mm 0,0 UV-I 14 W/m 9,7 C 0,0 km/h (0 Bft)
12.09.2016 07:17 11,1 C 11,1 C 93 % 1016,2 hPa 0,0 mm 0,0 km/h (0 Bft) W-NW 298 0 min 0,000 mm 0,0 UV-I 16 W/m 10,0 C 0,0 km/h (0 Bft)
12.09.2016 07:18 11,2 C 11,2 C 92 % 1016,3 hPa 0,0 mm 0,0 km/h (0 Bft) W-NW 298 0 min 0,000 mm 0,0 UV-I 16 W/m 9,9 C 0,0 km/h (0 Bft)
12.09.2016 07:19 11,2 C 11,2 C 91 % 1016,3 hPa 0,0 mm 0,0 km/h (0 Bft) W-NW 298 0 min 0,000 mm 0,0 UV-I 16 W/m 9,8 C 0,0 km/h (0 Bft)
12.09.2016 07:20 11,2 C 11,2 C 91 % 1016,3 hPa 0,0 mm 0,0 km/h (0 Bft) W-NW 298 0 min 0,000 mm 0,0 UV-I 16 W/m 9,8 C 0,0 km/h (0 Bft)
12.09.2016 07:21 11,2 C 11,2 C 90 % 1016,3 hPa 0,0 mm 0,0 km/h (0 Bft) W-NW 298 0 min 0,000 mm 0,0 UV-I 18 W/m 9,6 C 0,0 km/h (0 Bft)
12.09.2016 07:22 11,1 C 11,2 C 90 % 1016,3 hPa 0,0 mm 0,0 km/h (0 Bft) W-NW 298 0 min 0,000 mm 0,0 UV-I 18 W/m 9,5 C 0,0 km/h (0 Bft)
12.09.2016 07:23 11,0 C 11,1 C 90 % 1016,3 hPa 0,0 mm 0,0 km/h (0 Bft) W-NW 298 0 min 0,000 mm 0,0 UV-I 18 W/m 9,4 C 0,0 km/h (0 Bft)
12.09.2016 07:24 10,9 C 11,0 C 91 % 1016,3 hPa 0,0 mm 0,0 km/h (0 Bft) W-NW 298 0 min 0,000 mm 0,0 UV-I 18 W/m 9,5 C 0,0 km/h (0 Bft)
12.09.2016 07:25 10,9 C 10,9 C 91 % 1016,3 hPa 0,0 mm 0,0 km/h (0 Bft) W-NW 298 0 min 0,000 mm 0,0 UV-I 19 W/m 9,5 C 0,0 km/h (0 Bft)
12.09.2016 07:26 10,9 C 10,9 C 92 % 1016,3 hPa 0,0 mm 0,0 km/h (0 Bft) W-NW 298 0 min 0,000 mm 0,0 UV-I 19 W/m 9,7 C 0,0 km/h (0 Bft)
12.09.2016 07:27 10,9 C 10,9 C 91 % 1016,4 hPa 0,0 mm 0,0 km/h (0 Bft) W-NW 298 0 min 0,000 mm 0,0 UV-I 19 W/m 9,5 C 0,0 km/h (0 Bft)
12.09.2016 07:28 11,0 C 11,0 C 91 % 1016,4 hPa 0,0 mm 0,0 km/h (0 Bft) W-NW 298 0 min 0,000 mm 0,0 UV-I 19 W/m 9,6 C 0,0 km/h (0 Bft)
12.09.2016 07:29 11,1 C 11,1 C 91 % 1016,3 hPa 0,0 mm 0,0 km/h (0 Bft) W-NW 298 0 min 0,000 mm 0,0 UV-I 21 W/m 9,7 C 0,0 km/h (0 Bft)
12.09.2016 07:30 11,1 C 11,1 C 91 % 1016,3 hPa 0,0 mm 0,0 km/h (0 Bft) W-NW 298 0 min 0,000 mm 0,0 UV-I 21 W/m 9,7 C 0,0 km/h (0 Bft)
12.09.2016 07:31 11,1 C 11,1 C 91 % 1016,3 hPa 0,0 mm 0,0 km/h (0 Bft) W-NW 298 0 min 0,000 mm 0,0 UV-I 21 W/m 9,7 C 0,0 km/h (0 Bft)
12.09.2016 07:32 11,0 C 11,1 C 91 % 1016,2 hPa 0,0 mm 0,0 km/h (0 Bft) W-NW 298 0 min 0,000 mm 0,0 UV-I 21 W/m 9,6 C 0,0 km/h (0 Bft)
12.09.2016 07:33 11,0 C 11,1 C 91 % 1016,3 hPa 0,0 mm 0,0 km/h (0 Bft) W-NW 298 0 min 0,000 mm 0,0 UV-I 21 W/m 9,6 C 0,0 km/h (0 Bft)
12.09.2016 07:34 11,1 C 11,1 C 92 % 1016,3 hPa 0,0 mm 0,0 km/h (0 Bft) W-NW 298 0 min 0,000 mm 0,0 UV-I 23 W/m 9,8 C 0,0 km/h (0 Bft)
12.09.2016 07:35 11,2 C 11,2 C 92 % 1016,3 hPa 0,0 mm 0,0 km/h (0 Bft) W-NW 298 0 min 0,000 mm 0,0 UV-I 23 W/m 9,9 C 0,0 km/h (0 Bft)
12.09.2016 07:36 11,3 C 11,3 C 92 % 1016,3 hPa 0,0 mm 0,0 km/h (0 Bft) W-NW 298 0 min 0,000 mm 0,0 UV-I 23 W/m 10,0 C 0,0 km/h (0 Bft)
12.09.2016 07:37 11,3 C 11,3 C 92 % 1016,3 hPa 0,0 mm 0,0 km/h (0 Bft) W-NW 298 0 min 0,000 mm 0,0 UV-I 23 W/m 10,0 C 0,0 km/h (0 Bft)
12.09.2016 07:38 11,4 C 11,4 C 91 % 1016,3 hPa 0,0 mm 0,0 km/h (0 Bft) W-NW 298 0 min 0,000 mm 0,0 UV-I 25 W/m 10,0 C 0,0 km/h (0 Bft)
12.09.2016 07:39 11,6 C 11,6 C 91 % 1016,3 hPa 0,0 mm 0,0 km/h (0 Bft) W-NW 298 0 min 0,000 mm 0,0 UV-I 25 W/m 10,2 C 0,0 km/h (0 Bft)
12.09.2016 07:40 11,6 C 11,6 C 91 % 1016,3 hPa 0,0 mm 0,0 km/h (0 Bft) W-NW 298 0 min 0,000 mm 0,0 UV-I 25 W/m 10,2 C 0,0 km/h (0 Bft)
12.09.2016 07:41 11,7 C 11,7 C 91 % 1016,3 hPa 0,0 mm 0,0 km/h (0 Bft) W-NW 298 0 min 0,000 mm 0,0 UV-I 25 W/m 10,3 C 0,0 km/h (0 Bft)
12.09.2016 07:42 11,8 C 11,8 C 91 % 1016,3 hPa 0,0 mm 0,0 km/h (0 Bft) W-NW 298 0 min 0,000 mm 0,0 UV-I 25 W/m 10,4 C 0,0 km/h (0 Bft)
12.09.2016 07:43 11,8 C 11,8 C 90 % 1016,3 hPa 0,0 mm 0,0 km/h (0 Bft) W-NW 298 0 min 0,000 mm 0,0 UV-I 26 W/m 10,2 C 0,0 km/h (0 Bft)
12.09.2016 07:44 11,8 C 11,9 C 90 % 1016,3 hPa 0,0 mm 0,0 km/h (0 Bft) W-NW 298 0 min 0,000 mm 0,0 UV-I 26 W/m 10,2 C 0,0 km/h (0 Bft)
12.09.2016 07:45 11,9 C 11,9 C 90 % 1016,3 hPa 0,0 mm 0,0 km/h (0 Bft) W-NW 298 0 min 0,000 mm 0,0 UV-I 26 W/m 10,3 C 0,0 km/h (0 Bft)
12.09.2016 07:46 11,8 C 11,9 C 90 % 1016,3 hPa 0,0 mm 0,0 km/h (0 Bft) W-NW 298 0 min 0,000 mm 0,0 UV-I 28 W/m 10,2 C 0,0 km/h (0 Bft)
12.09.2016 07:47 11,8 C 11,8 C 90 % 1016,4 hPa 0,0 mm 0,0 km/h (0 Bft) W-NW 298 0 min 0,000 mm 0,0 UV-I 28 W/m 10,2 C 0,0 km/h (0 Bft)
12.09.2016 07:48 11,8 C 11,8 C 90 % 1016,4 hPa 0,0 mm 0,0 km/h (0 Bft) W-NW 298 0 min 0,000 mm 0,0 UV-I 28 W/m 10,2 C 0,0 km/h (0 Bft)
12.09.2016 07:49 11,7 C 11,8 C 90 % 1016,4 hPa 0,0 mm 0,0 km/h (0 Bft) W-NW 298 0 min 0,000 mm 0,0 UV-I 30 W/m 10,1 C 0,0 km/h (0 Bft)
12.09.2016 07:50 11,8 C 11,8 C 91 % 1016,4 hPa 0,0 mm 0,0 km/h (0 Bft) W-NW 298 0 min 0,000 mm 0,0 UV-I 30 W/m 10,4 C 0,0 km/h (0 Bft)
12.09.2016 07:51 11,8 C 11,8 C 91 % 1016,4 hPa 0,0 mm 0,0 km/h (0 Bft) W-NW 298 0 min 0,000 mm 0,0 UV-I 30 W/m 10,4 C 0,0 km/h (0 Bft)
12.09.2016 07:52 11,9 C 11,9 C 91 % 1016,5 hPa 0,0 mm 0,0 km/h (0 Bft) W-NW 298 0 min 0,000 mm 0,0 UV-I 30 W/m 10,5 C 0,0 km/h (0 Bft)
12.09.2016 07:53 12,1 C 12,1 C 91 % 1016,5 hPa 0,0 mm 0,0 km/h (0 Bft) W-NW 298 0 min 0,000 mm 0,0 UV-I 32 W/m 10,7 C 0,0 km/h (0 Bft)
12.09.2016 07:54 12,2 C 12,2 C 90 % 1016,5 hPa 0,0 mm 0,0 km/h (0 Bft) W-NW 298 0 min 0,000 mm 0,0 UV-I 32 W/m 10,6 C 0,0 km/h (0 Bft)
12.09.2016 07:55 12,3 C 12,3 C 90 % 1016,4 hPa 0,0 mm 0,0 km/h (0 Bft) W-NW 298 0 min 0,000 mm 0,0 UV-I 32 W/m 10,7 C 0,0 km/h (0 Bft)
12.09.2016 07:56 12,4 C 12,4 C 90 % 1016,5 hPa 0,0 mm 0,0 km/h (0 Bft) W-NW 298 0 min 0,000 mm 0,0 UV-I 33 W/m 10,8 C 0,0 km/h (0 Bft)
12.09.2016 07:57 12,4 C 12,4 C 90 % 1016,5 hPa 0,0 mm 0,0 km/h (0 Bft) W-NW 298 0 min 0,000 mm 0,0 UV-I 33 W/m 10,8 C 0,0 km/h (0 Bft)
12.09.2016 07:58 12,4 C 12,4 C 89 % 1016,5 hPa 0,0 mm 0,0 km/h (0 Bft) W-NW 298 0 min 0,000 mm 0,0 UV-I 33 W/m 10,6 C 0,0 km/h (0 Bft)
12.09.2016 07:59 12,3 C 12,4 C 89 % 1016,5 hPa 0,0 mm 0,0 km/h (0 Bft) W-NW 298 0 min 0,000 mm 0,0 UV-I 33 W/m 10,5 C 0,0 km/h (0 Bft)
12.09.2016 08:00 12,3 C 12,3 C 89 % 1016,5 hPa 0,0 mm 0,0 km/h (0 Bft) W-NW 298 0 min 0,000 mm 0,0 UV-I 35 W/m 10,5 C 0,0 km/h (0 Bft)
12.09.2016 08:01 12,2 C 12,3 C 89 % 1016,4 hPa 0,0 mm 0,0 km/h (0 Bft) W-NW 298 0 min 0,000 mm 0,0 UV-I 42 W/m 10,4 C 0,0 km/h (0 Bft)
12.09.2016 08:02 12,2 C 12,2 C 90 % 1016,5 hPa 0,0 mm 0,0 km/h (0 Bft) W-NW 298 0 min 0,000 mm 0,0 UV-I 44 W/m 10,6 C 0,0 km/h (0 Bft)
12.09.2016 08:03 12,2 C 12,2 C 90 % 1016,5 hPa 0,0 mm 0,0 km/h (0 Bft) W-NW 298 0 min 0,000 mm 0,0 UV-I 42 W/m 10,6 C 0,0 km/h (0 Bft)
12.09.2016 08:04 12,2 C 12,2 C 90 % 1016,5 hPa 0,0 mm 0,0 km/h (0 Bft) W-NW 298 0 min 0,000 mm 0,0 UV-I 47 W/m 10,6 C 0,0 km/h (0 Bft)
12.09.2016 08:05 12,2 C 12,2 C 90 % 1016,5 hPa 0,0 mm 0,0 km/h (0 Bft) W-NW 298 0 min 0,000 mm 0,5 UV-I 77 W/m 10,6 C 0,0 km/h (0 Bft)
12.09.2016 08:06 12,2 C 12,2 C 90 % 1016,5 hPa 0,0 mm 0,0 km/h (0 Bft) W-NW 298 1 min 0,000 mm 0,5 UV-I 120 W/m 10,6 C 0,0 km/h (0 Bft)
12.09.2016 08:07 12,3 C 12,3 C 90 % 1016,5 hPa 0,0 mm 0,0 km/h (0 Bft) W-NW 298 1 min 0,000 mm 0,5 UV-I 120 W/m 10,7 C 0,0 km/h (0 Bft)
12.09.2016 08:08 12,4 C 12,4 C 90 % 1016,5 hPa 0,0 mm 0,0 km/h (0 Bft) W-NW 298 0 min 0,000 mm 0,5 UV-I 97 W/m 10,8 C 0,0 km/h (0 Bft)
12.09.2016 08:09 12,4 C 12,4 C 90 % 1016,5 hPa 0,0 mm 0,0 km/h (0 Bft) W-NW 298 0 min 0,000 mm 0,5 UV-I 91 W/m 10,8 C 0,0 km/h (0 Bft)
12.09.2016 08:10 12,5 C 12,5 C 89 % 1016,6 hPa 0,0 mm 0,0 km/h (0 Bft) W-NW 298 0 min 0,000 mm 0,5 UV-I 97 W/m 10,7 C 0,0 km/h (0 Bft)
12.09.2016 08:11 12,6 C 12,6 C 90 % 1016,6 hPa 0,0 mm 0,0 km/h (0 Bft) W-NW 298 1 min 0,000 mm 0,6 UV-I 127 W/m 11,0 C 0,0 km/h (0 Bft)
12.09.2016 08:12 12,7 C 12,7 C 90 % 1016,5 hPa 0,0 mm 0,0 km/h (0 Bft) W-NW 298 1 min 0,000 mm 0,6 UV-I 146 W/m 11,1 C 0,0 km/h (0 Bft)
12.09.2016 08:13 12,7 C 12,7 C 89 % 1016,5 hPa 0,0 mm 0,0 km/h (0 Bft) W-NW 298 1 min 0,000 mm 0,6 UV-I 146 W/m 10,9 C 0,0 km/h (0 Bft)
12.09.2016 08:14 12,6 C 12,7 C 89 % 1016,6 hPa 0,0 mm 0,0 km/h (0 Bft) W-NW 298 1 min 0,000 mm 0,6 UV-I 141 W/m 10,8 C 0,0 km/h (0 Bft)
12.09.2016 08:15 12,7 C 12,7 C 90 % 1016,6 hPa 0,0 mm 0,0 km/h (0 Bft) W-NW 298 1 min 0,000 mm 0,6 UV-I 130 W/m 11,1 C 0,0 km/h (0 Bft)
12.09.2016 08:16 12,8 C 12,8 C 90 % 1016,6 hPa 0,0 mm 0,0 km/h (0 Bft) W-NW 298 0 min 0,000 mm 0,6 UV-I 128 W/m 11,2 C 0,0 km/h (0 Bft)
12.09.2016 08:17 12,9 C 12,9 C 90 % 1016,6 hPa 0,0 mm 0,0 km/h (0 Bft) W-NW 298 1 min 0,000 mm 0,6 UV-I 142 W/m 11,3 C 0,0 km/h (0 Bft)
12.09.2016 08:18 13,1 C 13,1 C 89 % 1016,6 hPa 0,0 mm 0,0 km/h (0 Bft) W-NW 298 0 min 0,000 mm 0,6 UV-I 127 W/m 11,3 C 0,0 km/h (0 Bft)
12.09.2016 08:19 13,1 C 13,2 C 89 % 1016,6 hPa 0,0 mm 0,0 km/h (0 Bft) W-NW 298 0 min 0,000 mm 0,6 UV-I 83 W/m 11,3 C 0,0 km/h (0 Bft)
12.09.2016 08:20 13,1 C 13,2 C 89 % 1016,6 hPa 0,0 mm 0,0 km/h (0 Bft) W-NW 298 0 min 0,000 mm 0,6 UV-I 69 W/m 11,3 C 0,0 km/h (0 Bft)
12.09.2016 08:21 13,2 C 13,2 C 89 % 1016,6 hPa 0,0 mm 0,0 km/h (0 Bft) W-NW 298 0 min 0,000 mm 0,6 UV-I 65 W/m 11,4 C 0,0 km/h (0 Bft)
12.09.2016 08:22 13,3 C 13,3 C 89 % 1016,6 hPa 0,0 mm 0,0 km/h (0 Bft) W-NW 298 0 min 0,000 mm 0,0 UV-I 54 W/m 11,5 C 0,0 km/h (0 Bft)
12.09.2016 08:23 13,3 C 13,3 C 89 % 1016,6 hPa 0,0 mm 0,0 km/h (0 Bft) W-NW 298 0 min 0,000 mm 0,0 UV-I 46 W/m 11,5 C 0,0 km/h (0 Bft)
12.09.2016 08:24 13,3 C 13,3 C 89 % 1016,6 hPa 0,0 mm 0,0 km/h (0 Bft) W-NW 298 0 min 0,000 mm 0,0 UV-I 42 W/m 11,5 C 0,0 km/h (0 Bft)
12.09.2016 08:25 13,4 C 13,4 C 89 % 1016,6 hPa 0,0 mm 0,0 km/h (0 Bft) W-NW 298 0 min 0,000 mm 0,0 UV-I 44 W/m 11,6 C 0,0 km/h (0 Bft)
12.09.2016 08:26 13,4 C 13,4 C 89 % 1016,6 hPa 0,0 mm 0,0 km/h (0 Bft) W-NW 298 0 min 0,000 mm 0,0 UV-I 42 W/m 11,6 C 0,0 km/h (0 Bft)
12.09.2016 08:27 13,5 C 13,5 C 90 % 1016,6 hPa 0,0 mm 0,0 km/h (0 Bft) W-NW 298 0 min 0,000 mm 0,0 UV-I 44 W/m 11,9 C 0,0 km/h (0 Bft)
12.09.2016 08:28 13,6 C 13,6 C 90 % 1016,6 hPa 0,0 mm 0,0 km/h (0 Bft) W-NW 298 0 min 0,000 mm 0,0 UV-I 44 W/m 12,0 C 0,0 km/h (0 Bft)
12.09.2016 08:29 13,7 C 13,7 C 89 % 1016,6 hPa 0,0 mm 0,0 km/h (0 Bft) W-NW 298 0 min 0,000 mm 0,0 UV-I 44 W/m 11,9 C 0,0 km/h (0 Bft)
12.09.2016 08:30 13,8 C 13,8 C 89 % 1016,6 hPa 0,0 mm 0,0 km/h (0 Bft) W-NW 298 0 min 0,000 mm 0,0 UV-I 46 W/m 12,0 C 0,0 km/h (0 Bft)
12.09.2016 08:31 13,8 C 13,8 C 89 % 1016,6 hPa 0,0 mm 0,0 km/h (0 Bft) W-NW 298 0 min 0,000 mm 0,0 UV-I 49 W/m 12,0 C 0,0 km/h (0 Bft)
12.09.2016 08:32 13,9 C 13,9 C 89 % 1016,6 hPa 0,0 mm 0,0 km/h (0 Bft) W-NW 298 0 min 0,000 mm 0,0 UV-I 46 W/m 12,1 C 0,0 km/h (0 Bft)
12.09.2016 08:33 14,0 C 14,0 C 87 % 1016,6 hPa 0,0 mm 0,0 km/h (0 Bft) W-NW 298 0 min 0,000 mm 0,0 UV-I 44 W/m 11,9 C 0,0 km/h (0 Bft)
12.09.2016 08:34 14,0 C 14,1 C 88 % 1016,7 hPa 0,0 mm 0,0 km/h (0 Bft) W-NW 298 0 min 0,000 mm 0,0 UV-I 44 W/m 12,0 C 0,0 km/h (0 Bft)
12.09.2016 08:35 14,1 C 14,1 C 88 % 1016,7 hPa 0,0 mm 0,0 km/h (0 Bft) W-NW 298 0 min 0,000 mm 0,7 UV-I 97 W/m 12,1 C 0,0 km/h (0 Bft)
12.09.2016 08:36 14,1 C 14,1 C 88 % 1016,7 hPa 0,0 mm 0,0 km/h (0 Bft) W-NW 298 0 min 0,000 mm 0,8 UV-I 116 W/m 12,1 C 0,0 km/h (0 Bft)
12.09.2016 08:37 14,1 C 14,1 C 88 % 1016,6 hPa 0,0 mm 0,0 km/h (0 Bft) W-NW 298 0 min 0,000 mm 0,8 UV-I 134 W/m 12,1 C 0,0 km/h (0 Bft)
12.09.2016 08:38 14,2 C 14,2 C 88 % 1016,7 hPa 0,0 mm 0,0 km/h (0 Bft) W-NW 298 0 min 0,000 mm 0,9 UV-I 162 W/m 12,2 C 0,0 km/h (0 Bft)
12.09.2016 08:39 14,2 C 14,2 C 87 % 1016,7 hPa 0,0 mm 0,0 km/h (0 Bft) W-NW 298 1 min 0,000 mm 0,9 UV-I 186 W/m 12,1 C 0,0 km/h (0 Bft)
12.09.2016 08:40 14,3 C 14,3 C 89 % 1016,6 hPa 0,0 mm 0,0 km/h (0 Bft) W-NW 298 1 min 0,000 mm 0,9 UV-I 209 W/m 12,5 C 0,0 km/h (0 Bft)
12.09.2016 08:41 14,4 C 14,4 C 87 % 1016,7 hPa 0,0 mm 0,0 km/h (0 Bft) W-NW 298 1 min 0,000 mm 1,0 UV-I 221 W/m 12,3 C 0,0 km/h (0 Bft)
12.09.2016 08:42 14,6 C 14,6 C 87 % 1016,7 hPa 0,0 mm 0,0 km/h (0 Bft) W-NW 298 1 min 0,000 mm 1,0 UV-I 225 W/m 12,5 C 0,0 km/h (0 Bft)
12.09.2016 08:43 14,7 C 14,7 C 88 % 1016,7 hPa 0,0 mm 0,0 km/h (0 Bft) W-NW 298 1 min 0,000 mm 1,0 UV-I 227 W/m 12,7 C 0,0 km/h (0 Bft)
12.09.2016 08:44 14,7 C 14,7 C 87 % 1016,7 hPa 0,0 mm 0,0 km/h (0 Bft) W-NW 298 1 min 0,000 mm 1,0 UV-I 229 W/m 12,6 C 0,0 km/h (0 Bft)
12.09.2016 08:45 14,8 C 14,8 C 86 % 1016,8 hPa 0,0 mm 0,0 km/h (0 Bft) W-NW 298 1 min 0,000 mm 1,0 UV-I 232 W/m 12,5 C 0,0 km/h (0 Bft)
12.09.2016 08:46 14,9 C 14,9 C 85 % 1016,8 hPa 0,0 mm 0,0 km/h (0 Bft) W-NW 298 1 min 0,000 mm 1,0 UV-I 234 W/m 12,4 C 0,0 km/h (0 Bft)
12.09.2016 08:47 15,0 C 15,0 C 85 % 1016,8 hPa 0,0 mm 0,0 km/h (0 Bft) W-NW 298 1 min 0,000 mm 1,1 UV-I 239 W/m 12,5 C 0,0 km/h (0 Bft)
12.09.2016 08:48 15,1 C 15,1 C 86 % 1016,8 hPa 0,0 mm 0,0 km/h (0 Bft) W-NW 298 1 min 0,000 mm 1,1 UV-I 241 W/m 12,8 C 0,0 km/h (0 Bft)
12.09.2016 08:49 15,2 C 15,2 C 85 % 1016,8 hPa 0,0 mm 0,0 km/h (0 Bft) W-NW 298 1 min 0,000 mm 1,1 UV-I 244 W/m 12,7 C 0,0 km/h (0 Bft)
12.09.2016 08:50 15,2 C 15,2 C 83 % 1016,8 hPa 0,0 mm 0,0 km/h (0 Bft) W-NW 298 1 min 0,000 mm 1,1 UV-I 246 W/m 12,3 C 0,0 km/h (0 Bft)
12.09.2016 08:51 15,3 C 15,3 C 83 % 1016,7 hPa 0,0 mm 0,0 km/h (0 Bft) W-NW 298 1 min 0,000 mm 1,1 UV-I 250 W/m 12,4 C 0,0 km/h (0 Bft)
12.09.2016 08:52 15,4 C 15,4 C 82 % 1016,8 hPa 0,0 mm 0,0 km/h (0 Bft) W-NW 298 1 min 0,000 mm 1,2 UV-I 251 W/m 12,3 C 0,0 km/h (0 Bft)
12.09.2016 08:53 15,7 C 15,7 C 82 % 1016,8 hPa 0,0 mm 0,0 km/h (0 Bft) W-NW 298 1 min 0,000 mm 1,2 UV-I 257 W/m 12,6 C 0,0 km/h (0 Bft)
12.09.2016 08:54 15,8 C 15,8 C 81 % 1016,7 hPa 0,0 mm 0,0 km/h (0 Bft) W-NW 298 1 min 0,000 mm 1,2 UV-I 260 W/m 12,5 C 0,0 km/h (0 Bft)
12.09.2016 08:55 16,0 C 16,0 C 80 % 1016,7 hPa 0,0 mm 0,0 km/h (0 Bft) W-NW 298 1 min 0,000 mm 1,2 UV-I 262 W/m 12,5 C 0,0 km/h (0 Bft)
12.09.2016 08:56 16,1 C 16,1 C 80 % 1016,8 hPa 0,0 mm 0,0 km/h (0 Bft) W-NW 298 1 min 0,000 mm 1,2 UV-I 264 W/m 12,6 C 0,0 km/h (0 Bft)
12.09.2016 08:57 15,8 C 16,1 C 84 % 1016,8 hPa 0,0 mm 0,0 km/h (0 Bft) W-NW 298 1 min 0,000 mm 1,3 UV-I 267 W/m 13,1 C 0,0 km/h (0 Bft)
12.09.2016 08:58 15,7 C 15,8 C 86 % 1016,8 hPa 0,0 mm 0,0 km/h (0 Bft) W-NW 298 1 min 0,000 mm 1,3 UV-I 272 W/m 13,4 C 0,0 km/h (0 Bft)
12.09.2016 08:59 15,6 C 15,7 C 85 % 1016,8 hPa 0,0 mm 0,0 km/h (0 Bft) W-NW 298 1 min 0,000 mm 1,3 UV-I 276 W/m 13,1 C 0,0 km/h (0 Bft)
12.09.2016 09:00 15,6 C 15,6 C 88 % 1016,8 hPa 0,0 mm 0,0 km/h (0 Bft) W-NW 298 1 min 0,076 mm 1,4 UV-I 278 W/m 13,6 C 0,0 km/h (0 Bft)
12.09.2016 09:01 15,7 C 15,7 C 85 % 1016,8 hPa 0,0 mm 0,0 km/h (0 Bft) W-NW 298 1 min 0,000 mm 1,4 UV-I 281 W/m 13,2 C 0,0 km/h (0 Bft)
12.09.2016 09:02 15,8 C 15,8 C 81 % 1016,8 hPa 0,0 mm 0,0 km/h (0 Bft) W-NW 298 1 min 0,000 mm 1,4 UV-I 285 W/m 12,5 C 0,0 km/h (0 Bft)
12.09.2016 09:03 15,9 C 15,9 C 81 % 1016,8 hPa 0,0 mm 0,0 km/h (0 Bft) W-NW 298 1 min 0,000 mm 1,4 UV-I 288 W/m 12,6 C 0,0 km/h (0 Bft)
12.09.2016 09:04 16,2 C 16,2 C 82 % 1016,8 hPa 0,0 mm 0,0 km/h (0 Bft) W-NW 298 1 min 0,000 mm 1,4 UV-I 292 W/m 13,1 C 0,0 km/h (0 Bft)
12.09.2016 09:05 16,3 C 16,3 C 87 % 1016,8 hPa 0,0 mm 0,0 km/h (0 Bft) W-NW 298 1 min 0,000 mm 1,5 UV-I 301 W/m 14,1 C 0,0 km/h (0 Bft)
12.09.2016 09:06 16,3 C 16,3 C 83 % 1016,8 hPa 0,0 mm 0,0 km/h (0 Bft) W-NW 298 1 min 0,000 mm 1,5 UV-I 304 W/m 13,4 C 0,0 km/h (0 Bft)
12.09.2016 09:07 16,4 C 16,4 C 82 % 1016,8 hPa 0,0 mm 0,0 km/h (0 Bft) W-NW 298 1 min 0,000 mm 1,5 UV-I 308 W/m 13,3 C 0,0 km/h (0 Bft)
12.09.2016 09:08 16,6 C 16,6 C 80 % 1016,8 hPa 0,0 mm 0,0 km/h (0 Bft) W-NW 298 1 min 0,000 mm 1,5 UV-I 311 W/m 13,1 C 0,0 km/h (0 Bft)
12.09.2016 09:09 16,6 C 16,6 C 78 % 1016,9 hPa 0,0 mm 0,0 km/h (0 Bft) W-NW 298 1 min 0,000 mm 1,6 UV-I 315 W/m 12,7 C 0,0 km/h (0 Bft)
12.09.2016 09:10 16,7 C 16,7 C 78 % 1016,9 hPa 0,0 mm 0,0 km/h (0 Bft) W-NW 298 1 min 0,000 mm 1,6 UV-I 316 W/m 12,8 C 0,0 km/h (0 Bft)
12.09.2016 09:11 16,8 C 16,8 C 79 % 1016,9 hPa 0,0 mm 0,0 km/h (0 Bft) W-NW 298 1 min 0,000 mm 1,6 UV-I 322 W/m 13,1 C 0,0 km/h (0 Bft)
12.09.2016 09:12 16,8 C 16,8 C 80 % 1016,9 hPa 0,0 mm 0,0 km/h (0 Bft) W-NW 298 1 min 0,000 mm 1,6 UV-I 323 W/m 13,3 C 0,0 km/h (0 Bft)
12.09.2016 09:13 16,8 C 16,8 C 80 % 1016,9 hPa 0,0 mm 0,0 km/h (0 Bft) W-NW 298 1 min 0,000 mm 1,6 UV-I 325 W/m 13,3 C 0,0 km/h (0 Bft)
12.09.2016 09:14 16,9 C 16,9 C 79 % 1016,9 hPa 0,0 mm 0,0 km/h (0 Bft) W-NW 298 1 min 0,000 mm 1,7 UV-I 329 W/m 13,2 C 0,0 km/h (0 Bft)
12.09.2016 09:15 16,9 C 16,9 C 79 % 1016,9 hPa 0,0 mm 0,0 km/h (0 Bft) W-NW 298 1 min 0,000 mm 1,7 UV-I 330 W/m 13,2 C 0,0 km/h (0 Bft)
12.09.2016 09:16 16,9 C 16,9 C 79 % 1016,9 hPa 0,0 mm 0,0 km/h (0 Bft) W-NW 298 1 min 0,000 mm 1,7 UV-I 336 W/m 13,2 C 0,0 km/h (0 Bft)
12.09.2016 09:17 17,0 C 17,0 C 79 % 1016,9 hPa 0,0 mm 0,0 km/h (0 Bft) W-NW 298 1 min 0,000 mm 1,7 UV-I 338 W/m 13,3 C 0,0 km/h (0 Bft)
12.09.2016 09:18 17,1 C 17,1 C 79 % 1016,9 hPa 0,0 mm 0,0 km/h (0 Bft) W-NW 298 1 min 0,000 mm 1,7 UV-I 341 W/m 13,4 C 0,0 km/h (0 Bft)
12.09.2016 09:19 17,1 C 17,1 C 79 % 1016,9 hPa 0,0 mm 0,0 km/h (0 Bft) W-NW 298 1 min 0,000 mm 1,8 UV-I 343 W/m 13,4 C 0,0 km/h (0 Bft)
12.09.2016 09:20 17,1 C 17,1 C 78 % 1016,9 hPa 0,0 mm 0,0 km/h (0 Bft) W-NW 298 1 min 0,000 mm 1,8 UV-I 345 W/m 13,2 C 0,0 km/h (0 Bft)
12.09.2016 09:21 17,1 C 17,1 C 78 % 1016,9 hPa 0,0 mm 0,0 km/h (0 Bft) W-NW 298 1 min 0,000 mm 1,8 UV-I 348 W/m 13,2 C 0,0 km/h (0 Bft)
12.09.2016 09:22 17,2 C 17,2 C 78 % 1016,9 hPa 0,0 mm 0,0 km/h (0 Bft) W-NW 298 1 min 0,000 mm 1,8 UV-I 352 W/m 13,3 C 0,0 km/h (0 Bft)
12.09.2016 09:23 17,3 C 17,3 C 77 % 1016,9 hPa 0,0 mm 0,0 km/h (0 Bft) W-NW 298 1 min 0,000 mm 1,8 UV-I 353 W/m 13,2 C 0,0 km/h (0 Bft)
12.09.2016 09:24 17,3 C 17,3 C 77 % 1016,9 hPa 0,0 mm 0,0 km/h (0 Bft) W-NW 298 1 min 0,000 mm 1,9 UV-I 357 W/m 13,2 C 0,0 km/h (0 Bft)
12.09.2016 09:25 17,4 C 17,4 C 77 % 1017,0 hPa 0,0 mm 0,0 km/h (0 Bft) W-NW 298 1 min 0,000 mm 1,9 UV-I 359 W/m 13,3 C 0,0 km/h (0 Bft)
12.09.2016 09:26 17,5 C 17,5 C 78 % 1016,9 hPa 0,0 mm 0,0 km/h (0 Bft) W-NW 298 1 min 0,000 mm 1,9 UV-I 360 W/m 13,6 C 0,0 km/h (0 Bft)
12.09.2016 09:27 17,5 C 17,5 C 76 % 1016,9 hPa 0,0 mm 0,0 km/h (0 Bft) W-NW 298 1 min 0,000 mm 1,9 UV-I 362 W/m 13,2 C 0,0 km/h (0 Bft)
12.09.2016 09:28 17,6 C 17,6 C 75 % 1016,9 hPa 0,0 mm 0,0 km/h (0 Bft) W-NW 298 1 min 0,000 mm 1,9 UV-I 367 W/m 13,1 C 0,0 km/h (0 Bft)
12.09.2016 09:29 17,7 C 17,7 C 75 % 1017,0 hPa 0,0 mm 0,0 km/h (0 Bft) W-NW 298 1 min 0,000 mm 2,0 UV-I 369 W/m 13,2 C 0,0 km/h (0 Bft)
12.09.2016 09:30 17,7 C 17,7 C 75 % 1017,0 hPa 0,0 mm 0,0 km/h (0 Bft) W-NW 298 1 min 0,000 mm 2,0 UV-I 371 W/m 13,2 C 0,0 km/h (0 Bft)
12.09.2016 09:31 17,6 C 17,7 C 75 % 1017,0 hPa 0,0 mm 0,0 km/h (0 Bft) W-NW 298 1 min 0,000 mm 2,0 UV-I 374 W/m 13,1 C 0,0 km/h (0 Bft)
12.09.2016 09:32 17,6 C 17,6 C 76 % 1017,0 hPa 0,0 mm 0,0 km/h (0 Bft) W-NW 298 1 min 0,000 mm 2,0 UV-I 376 W/m 13,3 C 0,0 km/h (0 Bft)
12.09.2016 09:33 17,4 C 17,6 C 77 % 1017,0 hPa 0,0 mm 0,0 km/h (0 Bft) W-NW 298 1 min 0,000 mm 2,0 UV-I 380 W/m 13,3 C 0,0 km/h (0 Bft)
12.09.2016 09:34 17,4 C 17,4 C 77 % 1017,0 hPa 0,0 mm 0,0 km/h (0 Bft) W-NW 298 1 min 0,000 mm 2,1 UV-I 383 W/m 13,3 C 0,0 km/h (0 Bft)
12.09.2016 09:35 17,5 C 17,5 C 76 % 1017,0 hPa 0,0 mm 0,0 km/h (0 Bft) W-NW 298 1 min 0,000 mm 2,1 UV-I 385 W/m 13,2 C 0,0 km/h (0 Bft)
12.09.2016 09:36 17,6 C 17,6 C 76 % 1017,0 hPa 0,0 mm 0,0 km/h (0 Bft) W-NW 298 1 min 0,000 mm 2,1 UV-I 387 W/m 13,3 C 0,0 km/h (0 Bft)
12.09.2016 09:37 17,7 C 17,7 C 76 % 1017,0 hPa 0,0 mm 0,0 km/h (0 Bft) W-NW 298 1 min 0,000 mm 2,1 UV-I 390 W/m 13,4 C 0,0 km/h (0 Bft)
12.09.2016 09:38 17,7 C 17,7 C 76 % 1017,0 hPa 0,0 mm 0,0 km/h (0 Bft) W-NW 298 1 min 0,000 mm 2,1 UV-I 392 W/m 13,4 C 0,0 km/h (0 Bft)
12.09.2016 09:39 17,7 C 17,7 C 75 % 1017,0 hPa 0,0 mm 0,0 km/h (0 Bft) W-NW 298 1 min 0,000 mm 2,2 UV-I 394 W/m 13,2 C 0,0 km/h (0 Bft)
12.09.2016 09:40 17,8 C 17,8 C 75 % 1017,0 hPa 0,0 mm 0,0 km/h (0 Bft) W-NW 298 1 min 0,000 mm 2,2 UV-I 399 W/m 13,3 C 0,0 km/h (0 Bft)
12.09.2016 09:41 17,9 C 17,9 C 74 % 1017,0 hPa 0,0 mm 0,0 km/h (0 Bft) W-NW 298 1 min 0,000 mm 2,2 UV-I 401 W/m 13,2 C 0,0 km/h (0 Bft)
12.09.2016 09:42 18,0 C 18,0 C 75 % 1017,0 hPa 0,0 mm 0,0 km/h (0 Bft) W-NW 298 1 min 0,000 mm 2,2 UV-I 404 W/m 13,5 C 0,0 km/h (0 Bft)
12.09.2016 09:43 18,0 C 18,0 C 75 % 1017,0 hPa 0,0 mm 0,0 km/h (0 Bft) W-NW 298 1 min 0,000 mm 2,2 UV-I 406 W/m 13,5 C 0,0 km/h (0 Bft)
12.09.2016 09:44 18,1 C 18,1 C 76 % 1017,0 hPa 0,0 mm 0,0 km/h (0 Bft) W-NW 298 1 min 0,000 mm 2,2 UV-I 408 W/m 13,8 C 0,0 km/h (0 Bft)
12.09.2016 09:45 18,1 C 18,1 C 75 % 1017,0 hPa 0,0 mm 0,0 km/h (0 Bft) W-NW 298 1 min 0,000 mm 2,3 UV-I 413 W/m 13,6 C 0,0 km/h (0 Bft)
12.09.2016 09:46 18,2 C 18,2 C 74 % 1017,0 hPa 0,0 mm 0,0 km/h (0 Bft) W-NW 298 1 min 0,000 mm 2,3 UV-I 415 W/m 13,5 C 0,0 km/h (0 Bft)
12.09.2016 09:47 18,2 C 18,2 C 75 % 1017,0 hPa 0,0 mm 0,0 km/h (0 Bft) W-NW 298 1 min 0,000 mm 2,3 UV-I 418 W/m 13,7 C 0,0 km/h (0 Bft)
12.09.2016 09:48 18,3 C 18,3 C 74 % 1017,0 hPa 0,0 mm 0,0 km/h (0 Bft) W-NW 298 1 min 0,000 mm 2,3 UV-I 420 W/m 13,6 C 0,0 km/h (0 Bft)
12.09.2016 09:49 18,4 C 18,4 C 73 % 1017,0 hPa 0,0 mm 0,0 km/h (0 Bft) W-NW 298 1 min 0,000 mm 2,3 UV-I 422 W/m 13,5 C 0,0 km/h (0 Bft)
12.09.2016 09:50 18,4 C 18,4 C 73 % 1017,0 hPa 0,0 mm 0,0 km/h (0 Bft) W-NW 298 1 min 0,000 mm 2,4 UV-I 424 W/m 13,5 C 0,0 km/h (0 Bft)
12.09.2016 09:51 18,5 C 18,5 C 73 % 1017,0 hPa 0,0 mm 0,0 km/h (0 Bft) W-NW 298 1 min 0,000 mm 2,4 UV-I 425 W/m 13,6 C 0,0 km/h (0 Bft)
12.09.2016 09:52 18,6 C 18,6 C 73 % 1017,1 hPa 0,0 mm 0,0 km/h (0 Bft) W-NW 298 1 min 0,000 mm 2,4 UV-I 429 W/m 13,7 C 0,0 km/h (0 Bft)
12.09.2016 09:53 18,7 C 18,7 C 73 % 1017,1 hPa 0,0 mm 0,0 km/h (0 Bft) W-NW 298 1 min 0,000 mm 2,4 UV-I 432 W/m 13,8 C 0,0 km/h (0 Bft)
12.09.2016 09:54 18,7 C 18,7 C 73 % 1017,1 hPa 0,0 mm 0,0 km/h (0 Bft) W-NW 298 1 min 0,000 mm 2,4 UV-I 434 W/m 13,8 C 0,0 km/h (0 Bft)
12.09.2016 09:55 18,8 C 18,8 C 72 % 1017,1 hPa 0,0 mm 0,0 km/h (0 Bft) W-NW 298 1 min 0,000 mm 2,5 UV-I 436 W/m 13,6 C 0,0 km/h (0 Bft)
12.09.2016 09:56 18,8 C 18,8 C 72 % 1017,1 hPa 0,0 mm 0,0 km/h (0 Bft) W-NW 298 1 min 0,000 mm 2,5 UV-I 439 W/m 13,6 C 0,0 km/h (0 Bft)
12.09.2016 09:57 18,8 C 18,8 C 72 % 1017,1 hPa 0,0 mm 0,0 km/h (0 Bft) W-NW 298 1 min 0,000 mm 2,5 UV-I 443 W/m 13,6 C 0,0 km/h (0 Bft)
12.09.2016 09:58 18,9 C 18,9 C 71 % 1017,1 hPa 0,0 mm 0,0 km/h (0 Bft) W-NW 298 1 min 0,000 mm 2,5 UV-I 445 W/m 13,5 C 0,0 km/h (0 Bft)
12.09.2016 09:59 18,9 C 18,9 C 71 % 1017,2 hPa 0,0 mm 0,0 km/h (0 Bft) W-NW 298 1 min 0,000 mm 2,6 UV-I 446 W/m 13,5 C 0,0 km/h (0 Bft)
12.09.2016 10:00 18,9 C 18,9 C 71 % 1017,2 hPa 0,0 mm 0,0 km/h (0 Bft) W-NW 298 1 min 0,203 mm 2,6 UV-I 448 W/m 13,5 C 0,0 km/h (0 Bft)
12.09.2016 10:01 19,0 C 19,0 C 70 % 1017,2 hPa 0,0 mm 0,0 km/h (0 Bft) W-NW 298 1 min 0,000 mm 2,6 UV-I 450 W/m 13,4 C 0,0 km/h (0 Bft)
12.09.2016 10:02 19,1 C 19,1 C 70 % 1017,2 hPa 0,0 mm 0,0 km/h (0 Bft) W-NW 298 1 min 0,000 mm 2,6 UV-I 452 W/m 13,5 C 0,0 km/h (0 Bft)
12.09.2016 10:03 19,2 C 19,2 C 71 % 1017,2 hPa 0,0 mm 0,0 km/h (0 Bft) W-NW 298 1 min 0,000 mm 2,6 UV-I 457 W/m 13,8 C 0,0 km/h (0 Bft)
12.09.2016 10:04 19,2 C 19,2 C 70 % 1017,2 hPa 0,0 mm 0,0 km/h (0 Bft) W-NW 298 1 min 0,000 mm 2,6 UV-I 459 W/m 13,6 C 0,0 km/h (0 Bft)
12.09.2016 10:05 19,1 C 19,2 C 71 % 1017,2 hPa 0,0 mm 0,0 km/h (0 Bft) W-NW 298 1 min 0,000 mm 2,7 UV-I 462 W/m 13,7 C 0,0 km/h (0 Bft)
12.09.2016 10:06 19,1 C 19,1 C 70 % 1017,1 hPa 0,0 mm 0,0 km/h (0 Bft) W-NW 298 1 min 0,000 mm 2,7 UV-I 464 W/m 13,5 C 0,0 km/h (0 Bft)
12.09.2016 10:07 19,1 C 19,1 C 71 % 1017,2 hPa 0,0 mm 0,0 km/h (0 Bft) W-NW 298 1 min 0,000 mm 2,7 UV-I 466 W/m 13,7 C 0,0 km/h (0 Bft)
12.09.2016 10:08 18,9 C 19,1 C 71 % 1017,2 hPa 0,0 mm 0,0 km/h (0 Bft) W-NW 298 1 min 0,000 mm 2,7 UV-I 468 W/m 13,5 C 0,0 km/h (0 Bft)
12.09.2016 10:09 19,1 C 19,1 C 71 % 1017,2 hPa 0,0 mm 0,0 km/h (0 Bft) W-NW 298 1 min 0,000 mm 2,8 UV-I 471 W/m 13,7 C 0,0 km/h (0 Bft)
12.09.2016 10:10 19,1 C 19,1 C 70 % 1017,2 hPa 0,0 mm 0,0 km/h (0 Bft) W-NW 298 1 min 0,000 mm 2,8 UV-I 473 W/m 13,5 C 0,0 km/h (0 Bft)
12.09.2016 10:11 19,2 C 19,2 C 71 % 1017,2 hPa 0,0 mm 0,0 km/h (0 Bft) W-NW 298 1 min 0,000 mm 2,8 UV-I 475 W/m 13,8 C 0,0 km/h (0 Bft)
12.09.2016 10:12 19,2 C 19,2 C 71 % 1017,2 hPa 0,0 mm 0,0 km/h (0 Bft) W-NW 299 1 min 0,000 mm 2,8 UV-I 476 W/m 13,8 C 0,0 km/h (0 Bft)
12.09.2016 10:13 19,2 C 19,2 C 71 % 1017,2 hPa 0,0 mm 0,0 km/h (0 Bft) W-NW 299 1 min 0,000 mm 2,8 UV-I 478 W/m 13,8 C 0,0 km/h (0 Bft)
12.09.2016 10:14 19,3 C 19,3 C 69 % 1017,2 hPa 0,0 mm 0,0 km/h (0 Bft) W-NW 299 1 min 0,000 mm 2,9 UV-I 480 W/m 13,5 C 0,0 km/h (0 Bft)
12.09.2016 10:15 19,3 C 19,3 C 75 % 1017,2 hPa 0,0 mm 0,0 km/h (0 Bft) W-NW 299 1 min 0,000 mm 2,9 UV-I 483 W/m 14,8 C 0,0 km/h (0 Bft)
12.09.2016 10:16 19,4 C 19,4 C 70 % 1017,2 hPa 0,0 mm 0,0 km/h (0 Bft) W-NW 299 1 min 0,000 mm 2,9 UV-I 483 W/m 13,8 C 0,0 km/h (0 Bft)
12.09.2016 10:17 19,5 C 19,6 C 79 % 1017,2 hPa 0,0 mm 0,0 km/h (0 Bft) W-NW 298 1 min 0,000 mm 2,9 UV-I 487 W/m 15,8 C 0,0 km/h (0 Bft)
12.09.2016 10:18 19,6 C 19,6 C 71 % 1017,2 hPa 0,0 mm 0,0 km/h (0 Bft) W-NW 292 1 min 0,000 mm 3,0 UV-I 489 W/m 14,2 C 0,0 km/h (0 Bft)
12.09.2016 10:19 19,9 C 19,9 C 70 % 1017,2 hPa 0,0 mm 0,0 km/h (0 Bft) NW 305 1 min 0,000 mm 3,0 UV-I 490 W/m 14,3 C 0,0 km/h (0 Bft)
12.09.2016 10:20 20,1 C 20,1 C 72 % 1017,2 hPa 0,0 mm 0,0 km/h (0 Bft) NW 304 1 min 0,000 mm 3,0 UV-I 492 W/m 14,9 C 0,0 km/h (0 Bft)
12.09.2016 10:21 20,0 C 20,1 C 74 % 1017,2 hPa 0,0 mm 0,0 km/h (0 Bft) NW 304 1 min 0,000 mm 3,0 UV-I 494 W/m 15,2 C 0,0 km/h (0 Bft)
12.09.2016 10:22 19,8 C 20,0 C 69 % 1017,2 hPa 0,0 mm 0,0 km/h (0 Bft) NW 304 1 min 0,000 mm 3,0 UV-I 499 W/m 13,9 C 0,0 km/h (0 Bft)
12.09.2016 10:23 19,8 C 19,8 C 68 % 1017,2 hPa 0,0 mm 0,0 km/h (0 Bft) NW 304 1 min 0,000 mm 3,1 UV-I 501 W/m 13,7 C 0,0 km/h (0 Bft)
12.09.2016 10:24 19,9 C 19,9 C 67 % 1017,2 hPa 0,0 mm 0,0 km/h (0 Bft) NW 304 1 min 0,000 mm 3,1 UV-I 503 W/m 13,6 C 0,0 km/h (0 Bft)
12.09.2016 10:25 19,9 C 19,9 C 68 % 1017,2 hPa 0,0 mm 0,0 km/h (0 Bft) NW 304 1 min 0,000 mm 3,1 UV-I 504 W/m 13,8 C 0,0 km/h (0 Bft)
12.09.2016 10:26 19,8 C 19,9 C 68 % 1017,2 hPa 0,0 mm 0,0 km/h (0 Bft) NW 304 1 min 0,000 mm 3,1 UV-I 508 W/m 13,7 C 0,0 km/h (0 Bft)
12.09.2016 10:27 19,8 C 19,8 C 68 % 1017,2 hPa 0,0 mm 0,0 km/h (0 Bft) NW 304 1 min 0,000 mm 3,1 UV-I 512 W/m 13,7 C 0,0 km/h (0 Bft)
12.09.2016 10:28 19,8 C 19,8 C 68 % 1017,2 hPa 0,0 mm 0,0 km/h (0 Bft) NW 304 1 min 0,000 mm 3,2 UV-I 513 W/m 13,7 C 0,0 km/h (0 Bft)
12.09.2016 10:29 19,8 C 19,8 C 71 % 1017,2 hPa 0,0 mm 0,0 km/h (0 Bft) NW 304 1 min 0,000 mm 3,2 UV-I 515 W/m 14,4 C 0,0 km/h (0 Bft)
12.09.2016 10:30 20,0 C 20,0 C 77 % 1017,2 hPa 0,0 mm 0,0 km/h (0 Bft) NW 304 1 min 0,000 mm 3,2 UV-I 517 W/m 15,8 C 0,0 km/h (0 Bft)
12.09.2016 10:31 20,1 C 20,1 C 77 % 1017,2 hPa 0,0 mm 0,0 km/h (0 Bft) NW 304 1 min 0,000 mm 3,2 UV-I 517 W/m 15,9 C 0,0 km/h (0 Bft)
12.09.2016 10:32 20,1 C 20,1 C 76 % 1017,2 hPa 0,0 mm 0,0 km/h (0 Bft) NW 304 1 min 0,000 mm 3,2 UV-I 520 W/m 15,7 C 0,0 km/h (0 Bft)
12.09.2016 10:33 20,2 C 20,2 C 72 % 1017,3 hPa 0,0 mm 0,0 km/h (0 Bft) NW 304 1 min 0,000 mm 3,2 UV-I 522 W/m 15,0 C 0,0 km/h (0 Bft)
12.09.2016 10:34 20,2 C 20,2 C 69 % 1017,2 hPa 0,0 mm 0,0 km/h (0 Bft) NW 304 1 min 0,000 mm 3,3 UV-I 526 W/m 14,3 C 0,0 km/h (0 Bft)
12.09.2016 10:35 20,2 C 20,2 C 70 % 1017,2 hPa 0,0 mm 0,0 km/h (0 Bft) NW 304 1 min 0,000 mm 3,3 UV-I 527 W/m 14,5 C 0,0 km/h (0 Bft)
12.09.2016 10:36 20,2 C 20,2 C 71 % 1017,2 hPa 0,0 mm 0,0 km/h (0 Bft) NW 304 1 min 0,000 mm 3,3 UV-I 529 W/m 14,8 C 0,0 km/h (0 Bft)
12.09.2016 10:37 20,2 C 20,2 C 69 % 1017,2 hPa 0,0 mm 0,0 km/h (0 Bft) NW 304 1 min 0,000 mm 3,3 UV-I 531 W/m 14,3 C 0,0 km/h (0 Bft)
12.09.2016 10:38 20,2 C 20,2 C 72 % 1017,2 hPa 0,0 mm 0,0 km/h (0 Bft) NW 304 1 min 0,000 mm 3,3 UV-I 534 W/m 15,0 C 0,0 km/h (0 Bft)
12.09.2016 10:39 20,3 C 20,3 C 69 % 1017,2 hPa 0,0 mm 0,0 km/h (0 Bft) NW 317 1 min 0,000 mm 3,4 UV-I 536 W/m 14,4 C 0,0 km/h (0 Bft)
12.09.2016 10:40 20,3 C 20,3 C 69 % 1017,2 hPa 0,0 mm 0,0 km/h (0 Bft) NO 48 1 min 0,000 mm 3,4 UV-I 538 W/m 14,4 C 0,0 km/h (0 Bft)
12.09.2016 10:41 20,3 C 20,3 C 69 % 1017,2 hPa 0,0 mm 0,0 km/h (0 Bft) NO 48 1 min 0,000 mm 3,4 UV-I 540 W/m 14,4 C 0,0 km/h (0 Bft)
12.09.2016 10:42 20,3 C 20,3 C 77 % 1017,2 hPa 0,0 mm 0,0 km/h (0 Bft) NO 48 1 min 0,000 mm 3,4 UV-I 540 W/m 16,1 C 0,0 km/h (0 Bft)
12.09.2016 10:43 20,4 C 20,4 C 79 % 1017,2 hPa 0,0 mm 0,0 km/h (0 Bft) NO 48 1 min 0,000 mm 3,4 UV-I 543 W/m 16,6 C 0,0 km/h (0 Bft)
12.09.2016 10:44 20,7 C 20,7 C 75 % 1017,1 hPa 0,0 mm 0,0 km/h (0 Bft) NO 48 1 min 0,000 mm 3,5 UV-I 547 W/m 16,1 C 0,0 km/h (0 Bft)
12.09.2016 10:45 20,9 C 20,9 C 68 % 1017,2 hPa 0,0 mm 0,0 km/h (0 Bft) NO 48 1 min 0,000 mm 3,5 UV-I 548 W/m 14,8 C 0,0 km/h (0 Bft)
12.09.2016 10:46 21,0 C 21,0 C 68 % 1017,2 hPa 0,0 mm 0,0 km/h (0 Bft) NO 48 1 min 0,000 mm 3,5 UV-I 550 W/m 14,9 C 0,0 km/h (0 Bft)
12.09.2016 10:47 21,1 C 21,1 C 63 % 1017,2 hPa 0,0 mm 0,0 km/h (0 Bft) NO 48 1 min 0,000 mm 3,5 UV-I 552 W/m 13,8 C 0,0 km/h (0 Bft)
12.09.2016 10:48 21,0 C 21,1 C 69 % 1017,2 hPa 0,0 mm 0,0 km/h (0 Bft) NO 48 1 min 0,000 mm 3,6 UV-I 554 W/m 15,1 C 0,0 km/h (0 Bft)
12.09.2016 10:49 20,9 C 21,0 C 65 % 1017,2 hPa 0,0 mm 0,0 km/h (0 Bft) NO 48 1 min 0,000 mm 3,6 UV-I 555 W/m 14,1 C 0,0 km/h (0 Bft)
12.09.2016 10:50 20,8 C 20,9 C 66 % 1017,2 hPa 0,0 mm 0,0 km/h (0 Bft) NO 48 1 min 0,000 mm 3,6 UV-I 561 W/m 14,2 C 0,0 km/h (0 Bft)
12.09.2016 10:51 20,7 C 20,8 C 65 % 1017,2 hPa 0,0 mm 0,0 km/h (0 Bft) NO 48 1 min 0,000 mm 3,6 UV-I 563 W/m 13,9 C 0,0 km/h (0 Bft)
12.09.2016 10:52 20,7 C 20,7 C 65 % 1017,2 hPa 0,0 mm 0,0 km/h (0 Bft) NO 48 1 min 0,000 mm 3,6 UV-I 564 W/m 13,9 C 0,0 km/h (0 Bft)
12.09.2016 10:53 20,7 C 20,7 C 65 % 1017,2 hPa 0,0 mm 0,0 km/h (0 Bft) NO 48 1 min 0,000 mm 3,7 UV-I 564 W/m 13,9 C 0,0 km/h (0 Bft)
12.09.2016 10:54 20,6 C 20,7 C 70 % 1017,2 hPa 0,0 mm 0,0 km/h (0 Bft) NO 48 1 min 0,000 mm 3,7 UV-I 566 W/m 14,9 C 0,0 km/h (0 Bft)
12.09.2016 10:55 20,6 C 20,6 C 72 % 1017,2 hPa 0,0 mm 0,0 km/h (0 Bft) NO 48 1 min 0,000 mm 3,7 UV-I 568 W/m 15,4 C 0,0 km/h (0 Bft)
12.09.2016 10:56 20,7 C 20,7 C 73 % 1017,2 hPa 0,0 mm 0,0 km/h (0 Bft) NO 48 1 min 0,000 mm 3,7 UV-I 571 W/m 15,7 C 0,0 km/h (0 Bft)
12.09.2016 10:57 20,6 C 20,7 C 73 % 1017,1 hPa 0,0 mm 0,0 km/h (0 Bft) NO 48 1 min 0,000 mm 3,7 UV-I 573 W/m 15,6 C 0,0 km/h (0 Bft)
12.09.2016 10:58 20,6 C 20,6 C 68 % 1017,1 hPa 0,0 mm 0,0 km/h (0 Bft) NO 48 1 min 0,000 mm 3,7 UV-I 575 W/m 14,5 C 0,0 km/h (0 Bft)
12.09.2016 10:59 20,7 C 20,7 C 68 % 1017,2 hPa 0,0 mm 0,0 km/h (0 Bft) NO 48 1 min 0,000 mm 3,8 UV-I 577 W/m 14,6 C 0,0 km/h (0 Bft)
12.09.2016 11:00 20,7 C 20,7 C 66 % 1017,1 hPa 0,0 mm 0,0 km/h (0 Bft) NO 48 1 min 0,000 mm 3,8 UV-I 577 W/m 14,1 C 0,0 km/h (0 Bft)
12.09.2016 11:01 20,8 C 20,8 C 65 % 1017,1 hPa 0,0 mm 0,0 km/h (0 Bft) NO 48 1 min 0,305 mm 3,8 UV-I 578 W/m 14,0 C 0,0 km/h (0 Bft)
12.09.2016 11:02 20,9 C 20,9 C 65 % 1017,1 hPa 0,0 mm 0,0 km/h (0 Bft) NO 48 1 min 0,000 mm 3,8 UV-I 580 W/m 14,1 C 0,0 km/h (0 Bft)
12.09.2016 11:03 21,0 C 21,0 C 67 % 1017,2 hPa 0,0 mm 0,0 km/h (0 Bft) NO 48 1 min 0,000 mm 3,8 UV-I 582 W/m 14,6 C 0,0 km/h (0 Bft)
12.09.2016 11:04 20,9 C 21,0 C 66 % 1017,2 hPa 0,0 mm 0,0 km/h (0 Bft) NO 48 1 min 0,000 mm 3,8 UV-I 582 W/m 14,3 C 0,0 km/h (0 Bft)
12.09.2016 11:05 20,9 C 21,0 C 66 % 1017,2 hPa 0,0 mm 0,0 km/h (0 Bft) NO 48 1 min 0,000 mm 3,9 UV-I 585 W/m 14,3 C 0,0 km/h (0 Bft)
12.09.2016 11:06 20,9 C 20,9 C 69 % 1017,2 hPa 0,0 mm 0,0 km/h (0 Bft) NO 48 1 min 0,000 mm 3,9 UV-I 585 W/m 15,0 C 0,0 km/h (0 Bft)
12.09.2016 11:07 20,9 C 21,0 C 66 % 1017,2 hPa 0,0 mm 0,0 km/h (0 Bft) NO 48 1 min 0,000 mm 3,9 UV-I 589 W/m 14,3 C 0,0 km/h (0 Bft)
12.09.2016 11:08 20,9 C 20,9 C 65 % 1017,2 hPa 0,0 mm 0,0 km/h (0 Bft) NO 48 1 min 0,000 mm 3,9 UV-I 592 W/m 14,1 C 0,0 km/h (0 Bft)
12.09.2016 11:09 20,9 C 20,9 C 64 % 1017,2 hPa 0,0 mm 0,0 km/h (0 Bft) NO 48 1 min 0,000 mm 3,9 UV-I 592 W/m 13,8 C 0,0 km/h (0 Bft)
12.09.2016 11:10 20,9 C 21,0 C 65 % 1017,2 hPa 0,0 mm 0,0 km/h (0 Bft) NO 48 1 min 0,000 mm 4,0 UV-I 594 W/m 14,1 C 0,0 km/h (0 Bft)
12.09.2016 11:11 21,0 C 21,0 C 66 % 1017,2 hPa 0,0 mm 0,0 km/h (0 Bft) NO 48 1 min 0,000 mm 4,0 UV-I 596 W/m 14,4 C 0,0 km/h (0 Bft)
12.09.2016 11:12 21,0 C 21,0 C 68 % 1017,2 hPa 0,0 mm 0,0 km/h (0 Bft) NO 48 1 min 0,000 mm 4,0 UV-I 596 W/m 14,9 C 0,0 km/h (0 Bft)
12.09.2016 11:13 21,0 C 21,0 C 66 % 1017,2 hPa 0,0 mm 0,0 km/h (0 Bft) NO 48 1 min 0,000 mm 4,0 UV-I 599 W/m 14,4 C 0,0 km/h (0 Bft)
12.09.2016 11:14 21,1 C 21,1 C 68 % 1017,2 hPa 0,0 mm 0,0 km/h (0 Bft) N 0 1 min 0,000 mm 4,0 UV-I 601 W/m 15,0 C 0,0 km/h (0 Bft)
12.09.2016 11:15 21,2 C 21,2 C 67 % 1017,2 hPa 0,0 mm 0,0 km/h (0 Bft) N 0 1 min 0,000 mm 4,0 UV-I 603 W/m 14,8 C 0,0 km/h (0 Bft)
12.09.2016 11:16 21,3 C 21,3 C 67 % 1017,2 hPa 0,0 mm 0,0 km/h (0 Bft) N 0 1 min 0,000 mm 4,0 UV-I 605 W/m 14,9 C 0,0 km/h (0 Bft)
12.09.2016 11:17 21,3 C 21,3 C 65 % 1017,2 hPa 0,0 mm 0,0 km/h (0 Bft) N 0 1 min 0,000 mm 4,1 UV-I 606 W/m 14,4 C 0,0 km/h (0 Bft)
12.09.2016 11:18 21,3 C 21,3 C 65 % 1017,2 hPa 0,0 mm 0,0 km/h (0 Bft) N 0 1 min 0,000 mm 4,1 UV-I 606 W/m 14,4 C 0,0 km/h (0 Bft)
12.09.2016 11:19 21,3 C 21,3 C 66 % 1017,2 hPa 0,0 mm 0,0 km/h (0 Bft) N 0 1 min 0,000 mm 4,1 UV-I 610 W/m 14,7 C 0,0 km/h (0 Bft)
12.09.2016 11:20 21,3 C 21,3 C 66 % 1017,2 hPa 0,0 mm 0,0 km/h (0 Bft) N 0 1 min 0,000 mm 4,1 UV-I 610 W/m 14,7 C 0,0 km/h (0 Bft)
12.09.2016 11:21 21,4 C 21,4 C 66 % 1017,1 hPa 0,0 mm 0,0 km/h (0 Bft) N 0 1 min 0,000 mm 4,1 UV-I 613 W/m 14,8 C 0,0 km/h (0 Bft)
12.09.2016 11:22 21,3 C 21,4 C 66 % 1017,1 hPa 0,0 mm 0,0 km/h (0 Bft) N 0 1 min 0,000 mm 4,1 UV-I 613 W/m 14,7 C 0,0 km/h (0 Bft)
12.09.2016 11:23 21,4 C 21,4 C 68 % 1017,1 hPa 0,0 mm 0,0 km/h (0 Bft) N 0 1 min 0,000 mm 4,2 UV-I 613 W/m 15,2 C 0,0 km/h (0 Bft)
12.09.2016 11:24 21,6 C 21,6 C 67 % 1017,1 hPa 0,0 mm 0,0 km/h (0 Bft) W-NW 292 1 min 0,000 mm 4,2 UV-I 615 W/m 15,2 C 1,6 km/h (1 Bft)
12.09.2016 11:25 21,6 C 21,6 C 68 % 1017,1 hPa 0,0 mm 0,0 km/h (0 Bft) N 0 1 min 0,000 mm 4,2 UV-I 619 W/m 15,4 C 0,0 km/h (0 Bft)
12.09.2016 11:26 21,6 C 21,6 C 71 % 1017,0 hPa 0,0 mm 0,0 km/h (0 Bft) N 360 1 min 0,000 mm 4,2 UV-I 619 W/m 16,1 C 1,6 km/h (1 Bft)
12.09.2016 11:27 21,8 C 21,8 C 69 % 1017,1 hPa 0,0 mm 3,2 km/h (1 Bft) N 360 1 min 0,000 mm 4,2 UV-I 621 W/m 15,9 C 6,4 km/h (2 Bft)
12.09.2016 11:28 22,1 C 22,1 C 66 % 1017,1 hPa 0,0 mm 4,8 km/h (1 Bft) NW 315 1 min 0,000 mm 4,2 UV-I 622 W/m 15,4 C 4,8 km/h (1 Bft)
12.09.2016 11:29 22,3 C 22,3 C 66 % 1017,0 hPa 0,0 mm 3,2 km/h (1 Bft) NW 315 1 min 0,000 mm 4,3 UV-I 624 W/m 15,6 C 6,4 km/h (2 Bft)
12.09.2016 11:30 22,4 C 22,4 C 61 % 1017,0 hPa 0,0 mm 3,2 km/h (1 Bft) W-NW 292 1 min 0,000 mm 4,3 UV-I 626 W/m 14,5 C 4,8 km/h (1 Bft)
12.09.2016 11:31 22,5 C 22,5 C 61 % 1017,0 hPa 0,0 mm 1,6 km/h (1 Bft) W-NW 292 1 min 0,000 mm 4,3 UV-I 629 W/m 14,6 C 3,2 km/h (1 Bft)
12.09.2016 11:32 22,6 C 22,6 C 63 % 1017,0 hPa 0,0 mm 3,2 km/h (1 Bft) NW 315 1 min 0,000 mm 4,3 UV-I 629 W/m 15,2 C 4,8 km/h (1 Bft)
12.09.2016 11:33 22,6 C 22,6 C 60 % 1017,1 hPa 0,0 mm 0,0 km/h (0 Bft) NW 315 1 min 0,000 mm 4,3 UV-I 629 W/m 14,4 C 1,6 km/h (1 Bft)
12.09.2016 11:34 22,7 C 22,7 C 64 % 1017,0 hPa 0,0 mm 0,0 km/h (0 Bft) NW 315 1 min 0,000 mm 4,3 UV-I 631 W/m 15,5 C 1,6 km/h (1 Bft)
12.09.2016 11:35 22,7 C 22,7 C 62 % 1017,0 hPa 0,0 mm 0,0 km/h (0 Bft) NW 315 1 min 0,000 mm 4,4 UV-I 633 W/m 15,0 C 1,6 km/h (1 Bft)
12.09.2016 11:36 22,6 C 22,7 C 65 % 1017,0 hPa 0,0 mm 0,0 km/h (0 Bft) NW 315 1 min 0,000 mm 4,4 UV-I 633 W/m 15,7 C 1,6 km/h (1 Bft)
12.09.2016 11:37 22,6 C 22,6 C 61 % 1017,0 hPa 0,0 mm 0,0 km/h (0 Bft) NW 315 1 min 0,000 mm 4,4 UV-I 636 W/m 14,7 C 1,6 km/h (1 Bft)
12.09.2016 11:38 22,7 C 22,7 C 66 % 1017,0 hPa 0,0 mm 0,0 km/h (0 Bft) NW 315 1 min 0,000 mm 4,4 UV-I 636 W/m 16,0 C 1,6 km/h (1 Bft)
12.09.2016 11:39 22,8 C 22,8 C 69 % 1017,0 hPa 0,0 mm 0,0 km/h (0 Bft) N 0 1 min 0,000 mm 4,4 UV-I 638 W/m 16,8 C 0,0 km/h (0 Bft)
12.09.2016 11:40 22,8 C 22,8 C 62 % 1017,0 hPa 0,0 mm 0,0 km/h (0 Bft) NW 315 1 min 0,000 mm 4,4 UV-I 640 W/m 15,1 C 1,6 km/h (1 Bft)
12.09.2016 11:41 22,7 C 22,8 C 64 % 1017,0 hPa 0,0 mm 0,0 km/h (0 Bft) N 360 1 min 0,000 mm 4,5 UV-I 642 W/m 15,5 C 3,2 km/h (1 Bft)
12.09.2016 11:42 22,5 C 22,7 C 67 % 1017,0 hPa 0,0 mm 1,6 km/h (1 Bft) NO 45 1 min 0,000 mm 4,5 UV-I 643 W/m 16,1 C 3,2 km/h (1 Bft)
12.09.2016 11:43 22,2 C 22,4 C 63 % 1017,0 hPa 0,0 mm 0,0 km/h (0 Bft) NO 45 1 min 0,000 mm 4,5 UV-I 645 W/m 14,8 C 1,6 km/h (1 Bft)
12.09.2016 11:44 22,1 C 22,1 C 63 % 1017,0 hPa 0,0 mm 3,2 km/h (1 Bft) N-NW 337 1 min 0,000 mm 4,5 UV-I 647 W/m 14,7 C 6,4 km/h (2 Bft)
12.09.2016 11:45 22,1 C 22,1 C 65 % 1017,0 hPa 0,0 mm 3,2 km/h (1 Bft) N-NW 337 1 min 0,000 mm 4,5 UV-I 647 W/m 15,2 C 4,8 km/h (1 Bft)
12.09.2016 11:46 22,2 C 22,2 C 63 % 1017,0 hPa 0,0 mm 4,8 km/h (1 Bft) NO 45 1 min 0,000 mm 4,5 UV-I 649 W/m 14,8 C 6,4 km/h (2 Bft)
12.09.2016 11:47 22,2 C 22,2 C 62 % 1017,0 hPa 0,0 mm 3,2 km/h (1 Bft) NO 45 1 min 0,000 mm 4,5 UV-I 649 W/m 14,6 C 4,8 km/h (1 Bft)
12.09.2016 11:48 22,2 C 22,2 C 59 % 1017,0 hPa 0,0 mm 0,0 km/h (0 Bft) NO 45 1 min 0,000 mm 4,5 UV-I 649 W/m 13,8 C 1,6 km/h (1 Bft)
12.09.2016 11:49 22,1 C 22,2 C 62 % 1017,0 hPa 0,0 mm 0,0 km/h (0 Bft) NO 45 1 min 0,000 mm 4,5 UV-I 652 W/m 14,5 C 1,6 km/h (1 Bft)
12.09.2016 11:50 22,1 C 22,1 C 60 % 1017,0 hPa 0,0 mm 1,6 km/h (1 Bft) NO 45 1 min 0,000 mm 4,6 UV-I 652 W/m 14,0 C 3,2 km/h (1 Bft)
12.09.2016 11:51 22,3 C 22,3 C 58 % 1017,0 hPa 0,0 mm 1,6 km/h (1 Bft) NO 45 1 min 0,000 mm 4,6 UV-I 654 W/m 13,6 C 1,6 km/h (1 Bft)
12.09.2016 11:52 22,4 C 22,4 C 57 % 1017,0 hPa 0,0 mm 0,0 km/h (0 Bft) NO 45 1 min 0,000 mm 4,6 UV-I 656 W/m 13,5 C 1,6 km/h (1 Bft)
12.09.2016 11:53 22,6 C 22,6 C 62 % 1017,0 hPa 0,0 mm 1,6 km/h (1 Bft) NO 45 1 min 0,000 mm 4,6 UV-I 656 W/m 14,9 C 3,2 km/h (1 Bft)
12.09.2016 11:54 22,7 C 22,7 C 57 % 1017,0 hPa 0,0 mm 1,6 km/h (1 Bft) NO 45 1 min 0,000 mm 4,6 UV-I 656 W/m 13,7 C 1,6 km/h (1 Bft)
12.09.2016 11:55 22,8 C 22,8 C 62 % 1017,0 hPa 0,0 mm 0,0 km/h (0 Bft) NO 45 1 min 0,000 mm 4,6 UV-I 657 W/m 15,1 C 1,6 km/h (1 Bft)
12.09.2016 11:56 22,9 C 22,9 C 57 % 1017,0 hPa 0,0 mm 1,6 km/h (1 Bft) NO 45 1 min 0,000 mm 4,6 UV-I 657 W/m 13,9 C 1,6 km/h (1 Bft)
12.09.2016 11:57 22,8 C 22,9 C 57 % 1017,0 hPa 0,0 mm 0,0 km/h (0 Bft) NO 45 1 min 0,000 mm 4,7 UV-I 659 W/m 13,8 C 1,6 km/h (1 Bft)
12.09.2016 11:58 22,7 C 22,8 C 56 % 1017,0 hPa 0,0 mm 0,0 km/h (0 Bft) NO 45 1 min 0,000 mm 4,7 UV-I 661 W/m 13,5 C 1,6 km/h (1 Bft)
12.09.2016 11:59 22,8 C 22,8 C 62 % 1017,0 hPa 0,0 mm 1,6 km/h (1 Bft) NO 45 1 min 0,000 mm 4,7 UV-I 661 W/m 15,1 C 3,2 km/h (1 Bft)
12.09.2016 12:00 22,8 C 22,8 C 61 % 1017,0 hPa 0,0 mm 1,6 km/h (1 Bft) NO 45 1 min 0,381 mm 4,7 UV-I 663 W/m 14,9 C 3,2 km/h (1 Bft)
12.09.2016 12:01 22,7 C 22,8 C 58 % 1017,0 hPa 0,0 mm 1,6 km/h (1 Bft) NO 45 1 min 0,000 mm 4,7 UV-I 664 W/m 14,0 C 3,2 km/h (1 Bft)
12.09.2016 12:02 22,7 C 22,7 C 60 % 1017,0 hPa 0,0 mm 3,2 km/h (1 Bft) NO 45 1 min 0,000 mm 4,7 UV-I 664 W/m 14,5 C 3,2 km/h (1 Bft)
12.09.2016 12:03 22,6 C 22,7 C 59 % 1017,0 hPa 0,0 mm 1,6 km/h (1 Bft) NO 45 1 min 0,000 mm 4,7 UV-I 666 W/m 14,2 C 3,2 km/h (1 Bft)
12.09.2016 12:04 22,6 C 22,6 C 58 % 1017,0 hPa 0,0 mm 1,6 km/h (1 Bft) NO 45 1 min 0,000 mm 4,7 UV-I 666 W/m 13,9 C 3,2 km/h (1 Bft)
12.09.2016 12:05 22,7 C 22,7 C 62 % 1017,0 hPa 0,0 mm 1,6 km/h (1 Bft) NO 45 1 min 0,000 mm 4,7 UV-I 668 W/m 15,0 C 3,2 km/h (1 Bft)
12.09.2016 12:06 22,8 C 22,8 C 57 % 1016,9 hPa 0,0 mm 1,6 km/h (1 Bft) NO 45 1 min 0,000 mm 4,8 UV-I 670 W/m 13,8 C 1,6 km/h (1 Bft)
12.09.2016 12:07 22,8 C 22,8 C 65 % 1017,0 hPa 0,0 mm 1,6 km/h (1 Bft) NO 45 1 min 0,000 mm 4,8 UV-I 671 W/m 15,9 C 3,2 km/h (1 Bft)
12.09.2016 12:08 22,8 C 22,9 C 60 % 1017,0 hPa 0,0 mm 1,6 km/h (1 Bft) NO 45 1 min 0,000 mm 4,8 UV-I 671 W/m 14,6 C 1,6 km/h (1 Bft)
12.09.2016 12:09 22,8 C 22,8 C 58 % 1017,0 hPa 0,0 mm 1,6 km/h (1 Bft) NO 45 1 min 0,000 mm 4,8 UV-I 671 W/m 14,1 C 1,6 km/h (1 Bft)
12.09.2016 12:10 22,8 C 22,8 C 63 % 1017,0 hPa 0,0 mm 1,6 km/h (1 Bft) NO 45 1 min 0,000 mm 4,8 UV-I 673 W/m 15,4 C 1,6 km/h (1 Bft)
12.09.2016 12:11 22,8 C 22,8 C 64 % 1016,9 hPa 0,0 mm 1,6 km/h (1 Bft) NO 45 1 min 0,000 mm 4,8 UV-I 673 W/m 15,6 C 1,6 km/h (1 Bft)
12.09.2016 12:12 22,9 C 22,9 C 58 % 1016,9 hPa 0,0 mm 1,6 km/h (1 Bft) NO 45 1 min 0,000 mm 4,8 UV-I 675 W/m 14,2 C 1,6 km/h (1 Bft)
12.09.2016 12:13 22,8 C 22,9 C 57 % 1017,0 hPa 0,0 mm 1,6 km/h (1 Bft) NO 45 1 min 0,000 mm 4,8 UV-I 675 W/m 13,8 C 1,6 km/h (1 Bft)
12.09.2016 12:14 22,8 C 22,8 C 57 % 1016,9 hPa 0,0 mm 0,0 km/h (0 Bft) NO 45 1 min 0,000 mm 4,9 UV-I 677 W/m 13,8 C 1,6 km/h (1 Bft)
12.09.2016 12:15 22,9 C 22,9 C 57 % 1017,0 hPa 0,0 mm 0,0 km/h (0 Bft) NO 45 1 min 0,000 mm 4,8 UV-I 673 W/m 13,9 C 1,6 km/h (1 Bft)
12.09.2016 12:16 22,9 C 22,9 C 57 % 1016,9 hPa 0,0 mm 1,6 km/h (1 Bft) NO 45 1 min 0,000 mm 4,9 UV-I 679 W/m 13,9 C 3,2 km/h (1 Bft)
12.09.2016 12:17 22,9 C 22,9 C 61 % 1016,9 hPa 0,0 mm 1,6 km/h (1 Bft) NO 45 1 min 0,000 mm 4,9 UV-I 679 W/m 15,0 C 3,2 km/h (1 Bft)
12.09.2016 12:18 22,9 C 22,9 C 60 % 1017,0 hPa 0,0 mm 3,2 km/h (1 Bft) NO 45 1 min 0,000 mm 4,9 UV-I 680 W/m 14,7 C 3,2 km/h (1 Bft)
12.09.2016 12:19 22,8 C 22,9 C 60 % 1017,0 hPa 0,0 mm 1,6 km/h (1 Bft) NO 45 1 min 0,000 mm 4,9 UV-I 680 W/m 14,6 C 3,2 km/h (1 Bft)
12.09.2016 12:20 22,8 C 22,8 C 61 % 1016,9 hPa 0,0 mm 1,6 km/h (1 Bft) NO 45 1 min 0,000 mm 4,9 UV-I 680 W/m 14,9 C 3,2 km/h (1 Bft)
12.09.2016 12:21 22,9 C 22,9 C 58 % 1017,0 hPa 0,0 mm 1,6 km/h (1 Bft) NO 45 1 min 0,000 mm 4,9 UV-I 682 W/m 14,2 C 3,2 km/h (1 Bft)
12.09.2016 12:22 23,2 C 23,2 C 58 % 1017,0 hPa 0,0 mm 1,6 km/h (1 Bft) NO 45 1 min 0,000 mm 4,9 UV-I 680 W/m 14,5 C 3,2 km/h (1 Bft)
12.09.2016 12:23 23,3 C 23,3 C 61 % 1017,0 hPa 0,0 mm 1,6 km/h (1 Bft) NO 45 1 min 0,000 mm 4,9 UV-I 682 W/m 15,3 C 3,2 km/h (1 Bft)
12.09.2016 12:24 23,3 C 23,3 C 61 % 1017,0 hPa 0,0 mm 1,6 km/h (1 Bft) NO 45 1 min 0,000 mm 4,9 UV-I 684 W/m 15,3 C 1,6 km/h (1 Bft)
12.09.2016 12:25 23,4 C 23,4 C 60 % 1017,0 hPa 0,0 mm 0,0 km/h (0 Bft) NO 45 1 min 0,000 mm 4,9 UV-I 684 W/m 15,2 C 1,6 km/h (1 Bft)
12.09.2016 12:26 23,6 C 23,6 C 56 % 1017,0 hPa 0,0 mm 1,6 km/h (1 Bft) NO 45 1 min 0,000 mm 4,9 UV-I 684 W/m 14,3 C 1,6 km/h (1 Bft)
12.09.2016 12:27 23,8 C 23,8 C 59 % 1017,0 hPa 0,0 mm 0,0 km/h (0 Bft) N 0 1 min 0,000 mm 4,9 UV-I 684 W/m 15,3 C 0,0 km/h (0 Bft)
12.09.2016 12:28 23,9 C 23,9 C 58 % 1017,0 hPa 0,0 mm 1,6 km/h (1 Bft) N-NW 337 1 min 0,000 mm 4,9 UV-I 682 W/m 15,1 C 4,8 km/h (1 Bft)
12.09.2016 12:29 24,1 C 24,1 C 56 % 1017,0 hPa 0,0 mm 3,2 km/h (1 Bft) N-NW 337 1 min 0,000 mm 4,9 UV-I 684 W/m 14,8 C 4,8 km/h (1 Bft)
12.09.2016 12:30 24,1 C 24,1 C 61 % 1017,0 hPa 0,0 mm 1,6 km/h (1 Bft) N-NW 337 1 min 0,000 mm 5,0 UV-I 682 W/m 16,1 C 3,2 km/h (1 Bft)
12.09.2016 12:31 24,1 C 24,2 C 63 % 1017,0 hPa 0,0 mm 3,2 km/h (1 Bft) O 90 1 min 0,000 mm 5,0 UV-I 682 W/m 16,6 C 4,8 km/h (1 Bft)
12.09.2016 12:32 23,9 C 24,1 C 57 % 1017,0 hPa 0,0 mm 1,6 km/h (1 Bft) O 90 1 min 0,000 mm 5,0 UV-I 684 W/m 14,9 C 3,2 km/h (1 Bft)
12.09.2016 12:33 23,8 C 23,9 C 60 % 1017,0 hPa 0,0 mm 0,0 km/h (0 Bft) O 90 1 min 0,000 mm 5,0 UV-I 684 W/m 15,6 C 1,6 km/h (1 Bft)
12.09.2016 12:34 23,8 C 23,8 C 63 % 1017,0 hPa 0,0 mm 0,0 km/h (0 Bft) O 90 1 min 0,000 mm 5,0 UV-I 684 W/m 16,3 C 1,6 km/h (1 Bft)
12.09.2016 12:35 23,7 C 23,7 C 65 % 1017,0 hPa 0,0 mm 1,6 km/h (1 Bft) O 90 1 min 0,000 mm 5,0 UV-I 686 W/m 16,7 C 3,2 km/h (1 Bft)
12.09.2016 12:36 23,6 C 23,7 C 61 % 1017,0 hPa 0,0 mm 1,6 km/h (1 Bft) NO 45 1 min 0,000 mm 5,0 UV-I 686 W/m 15,6 C 3,2 km/h (1 Bft)
12.09.2016 12:37 23,5 C 23,5 C 59 % 1017,0 hPa 0,0 mm 1,6 km/h (1 Bft) O-NO 67 1 min 0,000 mm 5,0 UV-I 682 W/m 15,0 C 4,8 km/h (1 Bft)
12.09.2016 12:38 23,7 C 23,7 C 62 % 1017,0 hPa 0,0 mm 3,2 km/h (1 Bft) O-NO 67 1 min 0,000 mm 5,0 UV-I 684 W/m 16,0 C 6,4 km/h (2 Bft)
12.09.2016 12:39 23,7 C 23,7 C 62 % 1017,0 hPa 0,0 mm 3,2 km/h (1 Bft) O-NO 67 1 min 0,000 mm 5,0 UV-I 687 W/m 16,0 C 6,4 km/h (2 Bft)
12.09.2016 12:40 23,7 C 23,7 C 61 % 1017,0 hPa 0,0 mm 4,8 km/h (1 Bft) O 90 1 min 0,000 mm 5,0 UV-I 687 W/m 15,7 C 6,4 km/h (2 Bft)
12.09.2016 12:41 23,8 C 23,8 C 60 % 1017,1 hPa 0,0 mm 3,2 km/h (1 Bft) O 90 1 min 0,000 mm 5,0 UV-I 684 W/m 15,6 C 3,2 km/h (1 Bft)
12.09.2016 12:42 23,9 C 23,9 C 59 % 1017,1 hPa 0,0 mm 3,2 km/h (1 Bft) O 90 1 min 0,000 mm 4,9 UV-I 675 W/m 15,4 C 4,8 km/h (1 Bft)
12.09.2016 12:43 24,0 C 24,0 C 60 % 1017,1 hPa 0,0 mm 3,2 km/h (1 Bft) O 90 1 min 0,000 mm 4,9 UV-I 671 W/m 15,7 C 4,8 km/h (1 Bft)
12.09.2016 12:44 24,1 C 24,1 C 61 % 1017,1 hPa 0,0 mm 3,2 km/h (1 Bft) N 360 1 min 0,000 mm 4,9 UV-I 680 W/m 16,1 C 4,8 km/h (1 Bft)
12.09.2016 12:45 24,2 C 24,2 C 56 % 1017,0 hPa 0,0 mm 3,2 km/h (1 Bft) N-NW 337 1 min 0,000 mm 5,0 UV-I 684 W/m 14,9 C 4,8 km/h (1 Bft)
12.09.2016 12:46 24,3 C 24,3 C 57 % 1017,0 hPa 0,0 mm 3,2 km/h (1 Bft) N-NW 337 1 min 0,000 mm 5,0 UV-I 684 W/m 15,2 C 4,8 km/h (1 Bft)
12.09.2016 12:47 24,3 C 24,3 C 64 % 1017,0 hPa 0,0 mm 3,2 km/h (1 Bft) N-NO 22 1 min 0,000 mm 5,0 UV-I 687 W/m 17,0 C 4,8 km/h (1 Bft)
12.09.2016 12:48 24,1 C 24,3 C 60 % 1017,0 hPa 0,0 mm 1,6 km/h (1 Bft) N-NO 22 1 min 0,000 mm 5,0 UV-I 687 W/m 15,8 C 3,2 km/h (1 Bft)
12.09.2016 12:49 23,8 C 24,1 C 61 % 1017,0 hPa 0,0 mm 3,2 km/h (1 Bft) O-SO 112 1 min 0,000 mm 5,0 UV-I 687 W/m 15,8 C 4,8 km/h (1 Bft)
12.09.2016 12:50 23,8 C 23,9 C 60 % 1017,0 hPa 0,0 mm 1,6 km/h (1 Bft) O-SO 112 1 min 0,000 mm 5,0 UV-I 691 W/m 15,6 C 3,2 km/h (1 Bft)
12.09.2016 12:51 23,9 C 23,9 C 62 % 1017,0 hPa 0,0 mm 1,6 km/h (1 Bft) O-SO 112 1 min 0,000 mm 5,0 UV-I 691 W/m 16,2 C 3,2 km/h (1 Bft)
12.09.2016 12:52 23,9 C 23,9 C 62 % 1017,0 hPa 0,0 mm 3,2 km/h (1 Bft) O-SO 112 1 min 0,000 mm 5,0 UV-I 691 W/m 16,2 C 8,0 km/h (2 Bft)
12.09.2016 12:53 23,9 C 23,9 C 60 % 1017,0 hPa 0,0 mm 4,8 km/h (1 Bft) NO 45 1 min 0,000 mm 5,0 UV-I 693 W/m 15,7 C 9,7 km/h (2 Bft)
12.09.2016 12:54 23,9 C 23,9 C 65 % 1017,0 hPa 0,0 mm 4,8 km/h (1 Bft) O 90 1 min 0,000 mm 5,0 UV-I 664 W/m 16,9 C 9,7 km/h (2 Bft)
12.09.2016 12:55 23,9 C 23,9 C 61 % 1017,0 hPa 0,0 mm 4,8 km/h (1 Bft) O 90 1 min 0,000 mm 5,0 UV-I 686 W/m 15,9 C 6,4 km/h (2 Bft)
12.09.2016 12:56 23,9 C 23,9 C 60 % 1017,0 hPa 0,0 mm 4,8 km/h (1 Bft) O-SO 112 1 min 0,000 mm 5,0 UV-I 691 W/m 15,7 C 4,8 km/h (1 Bft)
12.09.2016 12:57 23,9 C 23,9 C 58 % 1017,0 hPa 0,0 mm 1,6 km/h (1 Bft) O-SO 112 1 min 0,000 mm 5,0 UV-I 691 W/m 15,1 C 4,8 km/h (1 Bft)
12.09.2016 12:58 23,9 C 23,9 C 59 % 1017,0 hPa 0,0 mm 1,6 km/h (1 Bft) O-SO 112 1 min 0,000 mm 5,0 UV-I 691 W/m 15,4 C 3,2 km/h (1 Bft)
12.09.2016 12:59 24,1 C 24,1 C 62 % 1017,0 hPa 0,0 mm 3,2 km/h (1 Bft) O-SO 112 1 min 0,000 mm 5,0 UV-I 693 W/m 16,4 C 3,2 km/h (1 Bft)
12.09.2016 13:00 24,0 C 24,1 C 60 % 1017,0 hPa 0,0 mm 3,2 km/h (1 Bft) O-SO 112 1 min 0,432 mm 5,0 UV-I 693 W/m 15,7 C 4,8 km/h (1 Bft)
12.09.2016 13:01 24,0 C 24,0 C 57 % 1017,0 hPa 0,0 mm 0,0 km/h (0 Bft) O-SO 112 1 min 0,000 mm 5,0 UV-I 693 W/m 14,9 C 3,2 km/h (1 Bft)
12.09.2016 13:02 24,0 C 24,1 C 58 % 1016,9 hPa 0,0 mm 1,6 km/h (1 Bft) O-SO 112 1 min 0,000 mm 5,0 UV-I 693 W/m 15,2 C 3,2 km/h (1 Bft)
12.09.2016 13:03 24,1 C 24,1 C 61 % 1017,0 hPa 0,0 mm 3,2 km/h (1 Bft) O-NO 67 1 min 0,000 mm 5,0 UV-I 691 W/m 16,1 C 4,8 km/h (1 Bft)
12.09.2016 13:04 24,0 C 24,1 C 60 % 1016,9 hPa 0,0 mm 3,2 km/h (1 Bft) O-NO 67 1 min 0,000 mm 5,0 UV-I 691 W/m 15,7 C 4,8 km/h (1 Bft)
12.09.2016 13:05 23,9 C 24,0 C 58 % 1017,0 hPa 0,0 mm 3,2 km/h (1 Bft) O 90 1 min 0,000 mm 5,0 UV-I 693 W/m 15,1 C 4,8 km/h (1 Bft)
12.09.2016 13:06 24,0 C 24,0 C 60 % 1016,9 hPa 0,0 mm 3,2 km/h (1 Bft) NO 45 1 min 0,000 mm 5,1 UV-I 693 W/m 15,7 C 4,8 km/h (1 Bft)
12.09.2016 13:07 24,1 C 24,1 C 60 % 1016,9 hPa 0,0 mm 3,2 km/h (1 Bft) N 360 1 min 0,000 mm 5,1 UV-I 693 W/m 15,8 C 4,8 km/h (1 Bft)
12.09.2016 13:08 24,4 C 24,4 C 63 % 1016,9 hPa 0,0 mm 6,4 km/h (2 Bft) N-NO 22 1 min 0,000 mm 5,1 UV-I 694 W/m 16,9 C 8,0 km/h (2 Bft)
12.09.2016 13:09 24,2 C 24,4 C 61 % 1016,9 hPa 0,0 mm 4,8 km/h (1 Bft) O 90 1 min 0,000 mm 5,0 UV-I 696 W/m 16,2 C 6,4 km/h (2 Bft)
12.09.2016 13:10 24,1 C 24,1 C 61 % 1016,9 hPa 0,0 mm 3,2 km/h (1 Bft) O 90 1 min 0,000 mm 5,1 UV-I 694 W/m 16,1 C 3,2 km/h (1 Bft)
12.09.2016 13:11 24,2 C 24,2 C 59 % 1016,9 hPa 0,0 mm 1,6 km/h (1 Bft) O 90 1 min 0,000 mm 5,1 UV-I 696 W/m 15,7 C 3,2 km/h (1 Bft)
12.09.2016 13:12 24,3 C 24,4 C 65 % 1016,9 hPa 0,0 mm 1,6 km/h (1 Bft) O 90 1 min 0,000 mm 5,1 UV-I 696 W/m 17,3 C 3,2 km/h (1 Bft)
12.09.2016 13:13 24,4 C 24,4 C 59 % 1016,8 hPa 0,0 mm 0,0 km/h (0 Bft) O 90 1 min 0,000 mm 5,0 UV-I 691 W/m 15,9 C 1,6 km/h (1 Bft)
12.09.2016 13:14 24,4 C 24,4 C 57 % 1016,9 hPa 0,0 mm 1,6 km/h (1 Bft) O 90 1 min 0,000 mm 5,0 UV-I 687 W/m 15,3 C 3,2 km/h (1 Bft)
12.09.2016 13:15 24,4 C 24,4 C 63 % 1016,8 hPa 0,0 mm 1,6 km/h (1 Bft) O-NO 67 1 min 0,000 mm 5,0 UV-I 689 W/m 16,9 C 4,8 km/h (1 Bft)
12.09.2016 13:16 24,5 C 24,5 C 58 % 1016,9 hPa 0,0 mm 1,6 km/h (1 Bft) O-NO 67 1 min 0,000 mm 5,1 UV-I 694 W/m 15,7 C 3,2 km/h (1 Bft)
12.09.2016 13:17 24,6 C 24,6 C 60 % 1016,8 hPa 0,0 mm 1,6 km/h (1 Bft) O-NO 67 1 min 0,000 mm 5,1 UV-I 696 W/m 16,3 C 4,8 km/h (1 Bft)
12.09.2016 13:18 24,7 C 24,7 C 61 % 1016,9 hPa 0,0 mm 3,2 km/h (1 Bft) N-NW 337 1 min 0,000 mm 5,1 UV-I 696 W/m 16,7 C 4,8 km/h (1 Bft)
12.09.2016 13:19 24,6 C 24,7 C 58 % 1016,9 hPa 0,0 mm 4,8 km/h (1 Bft) NO 45 1 min 0,000 mm 5,1 UV-I 694 W/m 15,8 C 9,7 km/h (2 Bft)
12.09.2016 13:20 24,5 C 24,6 C 57 % 1016,8 hPa 0,0 mm 3,2 km/h (1 Bft) O-SO 112 1 min 0,000 mm 5,1 UV-I 694 W/m 15,4 C 6,4 km/h (2 Bft)
12.09.2016 13:21 24,6 C 24,6 C 55 % 1016,8 hPa 0,0 mm 3,2 km/h (1 Bft) O-SO 112 1 min 0,000 mm 5,1 UV-I 694 W/m 14,9 C 4,8 km/h (1 Bft)
12.09.2016 13:22 24,6 C 24,6 C 58 % 1016,8 hPa 0,0 mm 3,2 km/h (1 Bft) O-SO 112 1 min 0,000 mm 5,1 UV-I 694 W/m 15,8 C 4,8 km/h (1 Bft)
12.09.2016 13:23 24,5 C 24,6 C 62 % 1016,8 hPa 0,0 mm 1,6 km/h (1 Bft) O 90 1 min 0,000 mm 5,1 UV-I 694 W/m 16,7 C 4,8 km/h (1 Bft)
12.09.2016 13:24 24,4 C 24,4 C 57 % 1016,8 hPa 0,0 mm 1,6 km/h (1 Bft) O 90 1 min 0,000 mm 5,1 UV-I 694 W/m 15,3 C 4,8 km/h (1 Bft)
12.09.2016 13:25 24,4 C 24,4 C 58 % 1016,8 hPa 0,0 mm 1,6 km/h (1 Bft) O 90 1 min 0,000 mm 5,1 UV-I 694 W/m 15,6 C 3,2 km/h (1 Bft)
12.09.2016 13:26 24,4 C 24,4 C 62 % 1016,8 hPa 0,0 mm 4,8 km/h (1 Bft) SO 135 1 min 0,000 mm 5,1 UV-I 693 W/m 16,6 C 8,0 km/h (2 Bft)
12.09.2016 13:27 24,3 C 24,4 C 55 % 1016,8 hPa 0,0 mm 3,2 km/h (1 Bft) SO 135 1 min 0,000 mm 5,0 UV-I 694 W/m 14,7 C 4,8 km/h (1 Bft)
12.09.2016 13:28 24,4 C 24,4 C 60 % 1016,8 hPa 0,0 mm 3,2 km/h (1 Bft) O 90 1 min 0,000 mm 5,0 UV-I 693 W/m 16,1 C 4,8 km/h (1 Bft)
12.09.2016 13:29 24,5 C 24,5 C 57 % 1016,8 hPa 0,0 mm 3,2 km/h (1 Bft) O-NO 67 1 min 0,000 mm 5,0 UV-I 693 W/m 15,4 C 6,4 km/h (2 Bft)
12.09.2016 13:30 24,5 C 24,5 C 57 % 1016,8 hPa 0,0 mm 1,6 km/h (1 Bft) O-NO 67 1 min 0,000 mm 5,0 UV-I 691 W/m 15,4 C 4,8 km/h (1 Bft)
12.09.2016 13:31 24,6 C 24,6 C 59 % 1016,8 hPa 0,0 mm 1,6 km/h (1 Bft) SO 135 1 min 0,000 mm 5,0 UV-I 693 W/m 16,0 C 4,8 km/h (1 Bft)
12.09.2016 13:32 24,7 C 24,7 C 57 % 1016,8 hPa 0,0 mm 3,2 km/h (1 Bft) S-SO 157 1 min 0,000 mm 5,0 UV-I 691 W/m 15,6 C 4,8 km/h (1 Bft)
12.09.2016 13:33 24,7 C 24,7 C 58 % 1016,8 hPa 0,0 mm 3,2 km/h (1 Bft) S-SO 157 1 min 0,000 mm 5,0 UV-I 691 W/m 15,9 C 4,8 km/h (1 Bft)
12.09.2016 13:34 24,6 C 24,6 C 59 % 1016,8 hPa 0,0 mm 1,6 km/h (1 Bft) S-SO 157 1 min 0,000 mm 5,0 UV-I 687 W/m 16,0 C 3,2 km/h (1 Bft)
12.09.2016 13:35 24,7 C 24,7 C 58 % 1016,8 hPa 0,0 mm 0,0 km/h (0 Bft) S-SO 157 1 min 0,000 mm 5,0 UV-I 686 W/m 15,9 C 1,6 km/h (1 Bft)
12.09.2016 13:36 24,7 C 24,7 C 58 % 1016,8 hPa 0,0 mm 0,0 km/h (0 Bft) S-SO 157 1 min 0,000 mm 5,0 UV-I 686 W/m 15,9 C 1,6 km/h (1 Bft)
12.09.2016 13:37 24,8 C 24,8 C 57 % 1016,8 hPa 0,0 mm 1,6 km/h (1 Bft) S-SO 157 1 min 0,000 mm 5,0 UV-I 686 W/m 15,7 C 3,2 km/h (1 Bft)
12.09.2016 13:38 24,7 C 24,8 C 58 % 1016,8 hPa 0,0 mm 1,6 km/h (1 Bft) S-SO 157 1 min 0,000 mm 5,0 UV-I 686 W/m 15,9 C 3,2 km/h (1 Bft)
12.09.2016 13:39 24,7 C 24,7 C 58 % 1016,8 hPa 0,0 mm 1,6 km/h (1 Bft) S-SO 157 1 min 0,000 mm 5,0 UV-I 686 W/m 15,9 C 3,2 km/h (1 Bft)
12.09.2016 13:40 24,7 C 24,7 C 57 % 1016,7 hPa 0,0 mm 3,2 km/h (1 Bft) O-SO 112 1 min 0,000 mm 5,0 UV-I 686 W/m 15,6 C 4,8 km/h (1 Bft)
12.09.2016 13:41 24,7 C 24,7 C 56 % 1016,8 hPa 0,0 mm 3,2 km/h (1 Bft) O-SO 112 1 min 0,000 mm 5,0 UV-I 686 W/m 15,3 C 6,4 km/h (2 Bft)
12.09.2016 13:42 24,7 C 24,7 C 62 % 1016,7 hPa 0,0 mm 4,8 km/h (1 Bft) O 90 1 min 0,000 mm 5,0 UV-I 682 W/m 16,9 C 6,4 km/h (2 Bft)
12.09.2016 13:43 24,7 C 24,7 C 59 % 1016,8 hPa 0,0 mm 4,8 km/h (1 Bft) O-SO 112 1 min 0,000 mm 5,0 UV-I 686 W/m 16,1 C 6,4 km/h (2 Bft)
12.09.2016 13:44 24,8 C 24,8 C 65 % 1016,8 hPa 0,0 mm 3,2 km/h (1 Bft) O 90 1 min 0,000 mm 5,0 UV-I 684 W/m 17,8 C 4,8 km/h (1 Bft)
12.09.2016 13:45 24,8 C 24,9 C 57 % 1016,8 hPa 0,0 mm 3,2 km/h (1 Bft) O-NO 67 1 min 0,000 mm 5,0 UV-I 682 W/m 15,7 C 4,8 km/h (1 Bft)
12.09.2016 13:46 24,8 C 24,9 C 61 % 1016,8 hPa 0,0 mm 3,2 km/h (1 Bft) O-NO 67 1 min 0,000 mm 4,9 UV-I 682 W/m 16,8 C 4,8 km/h (1 Bft)
12.09.2016 13:47 24,8 C 24,9 C 57 % 1016,7 hPa 0,0 mm 0,0 km/h (0 Bft) O-NO 67 1 min 0,000 mm 4,9 UV-I 680 W/m 15,7 C 1,6 km/h (1 Bft)
12.09.2016 13:48 24,9 C 24,9 C 56 % 1016,8 hPa 0,0 mm 0,0 km/h (0 Bft) O-NO 67 1 min 0,000 mm 4,9 UV-I 682 W/m 15,5 C 1,6 km/h (1 Bft)
12.09.2016 13:49 24,8 C 24,9 C 61 % 1016,7 hPa 0,0 mm 4,8 km/h (1 Bft) O-NO 67 1 min 0,000 mm 4,9 UV-I 675 W/m 16,8 C 6,4 km/h (2 Bft)
12.09.2016 13:50 24,7 C 24,8 C 60 % 1016,7 hPa 0,0 mm 1,6 km/h (1 Bft) O 90 1 min 0,000 mm 4,9 UV-I 679 W/m 16,4 C 3,2 km/h (1 Bft)
12.09.2016 13:51 24,7 C 24,7 C 58 % 1016,7 hPa 0,0 mm 0,0 km/h (0 Bft) N 0 1 min 0,000 mm 4,9 UV-I 677 W/m 15,9 C 0,0 km/h (0 Bft)
12.09.2016 13:52 24,8 C 24,8 C 57 % 1016,7 hPa 0,0 mm 0,0 km/h (0 Bft) O 90 1 min 0,000 mm 4,9 UV-I 673 W/m 15,7 C 1,6 km/h (1 Bft)
12.09.2016 13:53 24,7 C 24,8 C 60 % 1016,7 hPa 0,0 mm 4,8 km/h (1 Bft) O-SO 112 1 min 0,000 mm 4,9 UV-I 668 W/m 16,4 C 6,4 km/h (2 Bft)
12.09.2016 13:54 24,6 C 24,6 C 60 % 1016,7 hPa 0,0 mm 3,2 km/h (1 Bft) O-NO 67 1 min 0,000 mm 4,9 UV-I 675 W/m 16,3 C 6,4 km/h (2 Bft)
12.09.2016 13:55 24,6 C 24,6 C 62 % 1016,7 hPa 0,0 mm 4,8 km/h (1 Bft) NO 45 1 min 0,000 mm 4,9 UV-I 675 W/m 16,8 C 4,8 km/h (1 Bft)
12.09.2016 13:56 24,7 C 24,7 C 58 % 1016,7 hPa 0,0 mm 3,2 km/h (1 Bft) S-SO 157 1 min 0,000 mm 4,9 UV-I 673 W/m 15,9 C 6,4 km/h (2 Bft)
12.09.2016 13:57 24,8 C 24,8 C 58 % 1016,7 hPa 0,0 mm 3,2 km/h (1 Bft) O-NO 67 1 min 0,000 mm 4,9 UV-I 673 W/m 16,0 C 6,4 km/h (2 Bft)
12.09.2016 13:58 24,9 C 24,9 C 58 % 1016,7 hPa 0,0 mm 6,4 km/h (2 Bft) NO 45 1 min 0,000 mm 4,9 UV-I 673 W/m 16,1 C 9,7 km/h (2 Bft)
12.09.2016 13:59 24,9 C 24,9 C 63 % 1016,7 hPa 0,0 mm 6,4 km/h (2 Bft) O-SO 112 1 min 0,000 mm 4,9 UV-I 663 W/m 17,4 C 11,3 km/h (2 Bft)
12.09.2016 14:00 24,9 C 24,9 C 58 % 1016,7 hPa 0,0 mm 3,2 km/h (1 Bft) O-NO 67 1 min 0,432 mm 4,8 UV-I 663 W/m 16,1 C 11,3 km/h (2 Bft)
12.09.2016 14:01 24,9 C 24,9 C 61 % 1016,7 hPa 0,0 mm 6,4 km/h (2 Bft) O 90 1 min 0,000 mm 4,8 UV-I 668 W/m 16,8 C 11,3 km/h (2 Bft)
12.09.2016 14:02 25,0 C 25,0 C 57 % 1016,7 hPa 0,0 mm 8,0 km/h (2 Bft) NO 45 1 min 0,000 mm 4,8 UV-I 668 W/m 15,9 C 11,3 km/h (2 Bft)
12.09.2016 14:03 24,9 C 25,0 C 60 % 1016,7 hPa 0,0 mm 6,4 km/h (2 Bft) N-NO 22 1 min 0,000 mm 4,8 UV-I 654 W/m 16,6 C 8,0 km/h (2 Bft)
12.09.2016 14:04 25,1 C 25,1 C 58 % 1016,7 hPa 0,0 mm 4,8 km/h (1 Bft) N-NW 337 1 min 0,000 mm 4,8 UV-I 666 W/m 16,2 C 4,8 km/h (1 Bft)
12.09.2016 14:05 25,2 C 25,2 C 58 % 1016,7 hPa 0,0 mm 6,4 km/h (2 Bft) O 90 1 min 0,000 mm 4,8 UV-I 664 W/m 16,3 C 8,0 km/h (2 Bft)
12.09.2016 14:06 25,2 C 25,2 C 55 % 1016,7 hPa 0,0 mm 4,8 km/h (1 Bft) NO 45 1 min 0,000 mm 4,8 UV-I 663 W/m 15,5 C 8,0 km/h (2 Bft)
12.09.2016 14:07 25,1 C 25,2 C 61 % 1016,7 hPa 0,0 mm 4,8 km/h (1 Bft) O 90 1 min 0,000 mm 4,8 UV-I 668 W/m 17,0 C 4,8 km/h (1 Bft)
12.09.2016 14:08 25,0 C 25,1 C 57 % 1016,7 hPa 0,0 mm 4,8 km/h (1 Bft) O 90 1 min 0,000 mm 4,8 UV-I 666 W/m 15,9 C 6,4 km/h (2 Bft)
12.09.2016 14:09 25,1 C 25,1 C 59 % 1016,7 hPa 0,0 mm 1,6 km/h (1 Bft) O 90 1 min 0,000 mm 4,8 UV-I 666 W/m 16,5 C 4,8 km/h (1 Bft)
12.09.2016 14:10 25,1 C 25,1 C 61 % 1016,7 hPa 0,0 mm 3,2 km/h (1 Bft) O-SO 112 1 min 0,000 mm 4,8 UV-I 663 W/m 17,0 C 6,4 km/h (2 Bft)
12.09.2016 14:11 25,0 C 25,1 C 59 % 1016,7 hPa 0,0 mm 4,8 km/h (1 Bft) O-NO 67 1 min 0,000 mm 4,7 UV-I 663 W/m 16,4 C 6,4 km/h (2 Bft)
12.09.2016 14:12 25,1 C 25,1 C 58 % 1016,7 hPa 0,0 mm 3,2 km/h (1 Bft) N-NO 22 1 min 0,000 mm 4,7 UV-I 661 W/m 16,2 C 4,8 km/h (1 Bft)
12.09.2016 14:13 25,2 C 25,2 C 57 % 1016,6 hPa 0,0 mm 4,8 km/h (1 Bft) O-NO 67 1 min 0,000 mm 4,7 UV-I 661 W/m 16,1 C 4,8 km/h (1 Bft)
12.09.2016 14:14 25,1 C 25,2 C 57 % 1016,7 hPa 0,0 mm 3,2 km/h (1 Bft) SO 135 1 min 0,000 mm 4,7 UV-I 663 W/m 16,0 C 4,8 km/h (1 Bft)
12.09.2016 14:15 25,0 C 25,1 C 59 % 1016,6 hPa 0,0 mm 6,4 km/h (2 Bft) O 90 1 min 0,000 mm 4,7 UV-I 663 W/m 16,4 C 11,3 km/h (2 Bft)
12.09.2016 14:16 24,9 C 25,0 C 57 % 1016,6 hPa 0,0 mm 3,2 km/h (1 Bft) O-SO 112 1 min 0,000 mm 4,7 UV-I 661 W/m 15,8 C 6,4 km/h (2 Bft)
12.09.2016 14:17 24,9 C 24,9 C 58 % 1016,7 hPa 0,0 mm 3,2 km/h (1 Bft) O 90 1 min 0,000 mm 4,7 UV-I 657 W/m 16,1 C 8,0 km/h (2 Bft)
12.09.2016 14:18 24,9 C 24,9 C 55 % 1016,6 hPa 0,0 mm 3,2 km/h (1 Bft) O-NO 67 1 min 0,000 mm 4,7 UV-I 657 W/m 15,2 C 4,8 km/h (1 Bft)
12.09.2016 14:19 24,9 C 24,9 C 57 % 1016,6 hPa 0,0 mm 4,8 km/h (1 Bft) O-NO 67 1 min 0,000 mm 4,7 UV-I 656 W/m 15,8 C 6,4 km/h (2 Bft)
12.09.2016 14:20 24,8 C 24,9 C 52 % 1016,6 hPa 0,0 mm 4,8 km/h (1 Bft) SO 135 1 min 0,000 mm 4,7 UV-I 656 W/m 14,3 C 6,4 km/h (2 Bft)
12.09.2016 14:21 24,8 C 24,8 C 53 % 1016,6 hPa 0,0 mm 4,8 km/h (1 Bft) O-NO 67 1 min 0,000 mm 4,6 UV-I 654 W/m 14,6 C 9,7 km/h (2 Bft)
12.09.2016 14:22 24,8 C 24,9 C 56 % 1016,7 hPa 0,0 mm 4,8 km/h (1 Bft) O-NO 67 1 min 0,000 mm 4,6 UV-I 652 W/m 15,4 C 6,4 km/h (2 Bft)
12.09.2016 14:23 24,8 C 24,9 C 56 % 1016,7 hPa 0,0 mm 4,8 km/h (1 Bft) O 90 1 min 0,000 mm 4,6 UV-I 652 W/m 15,4 C 6,4 km/h (2 Bft)
12.09.2016 14:24 24,9 C 24,9 C 54 % 1016,6 hPa 0,0 mm 1,6 km/h (1 Bft) O 90 1 min 0,000 mm 4,6 UV-I 647 W/m 14,9 C 3,2 km/h (1 Bft)
12.09.2016 14:25 24,9 C 24,9 C 55 % 1016,6 hPa 0,0 mm 4,8 km/h (1 Bft) N-NO 22 1 min 0,000 mm 4,6 UV-I 647 W/m 15,2 C 6,4 km/h (2 Bft)
12.09.2016 14:26 25,1 C 25,1 C 53 % 1016,6 hPa 0,0 mm 4,8 km/h (1 Bft) N-NO 22 1 min 0,000 mm 4,6 UV-I 643 W/m 14,8 C 8,0 km/h (2 Bft)
12.09.2016 14:27 25,0 C 25,1 C 56 % 1016,7 hPa 0,0 mm 4,8 km/h (1 Bft) O-SO 112 1 min 0,000 mm 4,6 UV-I 643 W/m 15,6 C 6,4 km/h (2 Bft)
12.09.2016 14:28 25,0 C 25,1 C 58 % 1016,6 hPa 0,0 mm 3,2 km/h (1 Bft) NO 45 1 min 0,000 mm 4,5 UV-I 642 W/m 16,1 C 6,4 km/h (2 Bft)
12.09.2016 14:29 25,0 C 25,1 C 57 % 1016,6 hPa 0,0 mm 3,2 km/h (1 Bft) O-NO 67 1 min 0,000 mm 4,5 UV-I 640 W/m 15,9 C 4,8 km/h (1 Bft)
12.09.2016 14:30 25,0 C 25,0 C 56 % 1016,6 hPa 0,0 mm 3,2 km/h (1 Bft) NO 45 1 min 0,000 mm 4,5 UV-I 642 W/m 15,6 C 4,8 km/h (1 Bft)
12.09.2016 14:31 24,9 C 24,9 C 54 % 1016,6 hPa 0,0 mm 3,2 km/h (1 Bft) NO 45 1 min 0,000 mm 4,5 UV-I 642 W/m 14,9 C 4,8 km/h (1 Bft)
12.09.2016 14:32 25,0 C 25,0 C 55 % 1016,6 hPa 0,0 mm 4,8 km/h (1 Bft) SO 135 1 min 0,000 mm 4,5 UV-I 642 W/m 15,3 C 6,4 km/h (2 Bft)
12.09.2016 14:33 24,9 C 24,9 C 54 % 1016,6 hPa 0,0 mm 4,8 km/h (1 Bft) SO 135 1 min 0,000 mm 4,5 UV-I 636 W/m 14,9 C 9,7 km/h (2 Bft)
12.09.2016 14:34 24,9 C 24,9 C 58 % 1016,6 hPa 0,0 mm 4,8 km/h (1 Bft) O 90 1 min 0,000 mm 4,5 UV-I 633 W/m 16,1 C 8,0 km/h (2 Bft)
12.09.2016 14:35 24,9 C 24,9 C 55 % 1016,5 hPa 0,0 mm 4,8 km/h (1 Bft) O 90 1 min 0,000 mm 4,4 UV-I 628 W/m 15,2 C 8,0 km/h (2 Bft)
12.09.2016 14:36 24,9 C 24,9 C 56 % 1016,6 hPa 0,0 mm 4,8 km/h (1 Bft) O-SO 112 1 min 0,000 mm 4,4 UV-I 636 W/m 15,5 C 8,0 km/h (2 Bft)
12.09.2016 14:37 24,8 C 24,9 C 57 % 1016,6 hPa 0,0 mm 4,8 km/h (1 Bft) SO 135 1 min 0,000 mm 4,4 UV-I 635 W/m 15,7 C 6,4 km/h (2 Bft)
12.09.2016 14:38 24,8 C 24,8 C 55 % 1016,6 hPa 0,0 mm 3,2 km/h (1 Bft) O 90 1 min 0,000 mm 4,4 UV-I 635 W/m 15,1 C 6,4 km/h (2 Bft)
12.09.2016 14:39 24,8 C 24,8 C 55 % 1016,5 hPa 0,0 mm 1,6 km/h (1 Bft) O-NO 67 1 min 0,000 mm 4,4 UV-I 635 W/m 15,1 C 3,2 km/h (1 Bft)
12.09.2016 14:40 24,9 C 24,9 C 57 % 1016,6 hPa 0,0 mm 1,6 km/h (1 Bft) O-NO 67 1 min 0,000 mm 4,4 UV-I 633 W/m 15,8 C 3,2 km/h (1 Bft)
12.09.2016 14:41 24,9 C 24,9 C 54 % 1016,6 hPa 0,0 mm 3,2 km/h (1 Bft) O 90 1 min 0,000 mm 4,4 UV-I 633 W/m 14,9 C 4,8 km/h (1 Bft)
12.09.2016 14:42 24,9 C 24,9 C 58 % 1016,5 hPa 0,0 mm 3,2 km/h (1 Bft) O 90 1 min 0,000 mm 4,4 UV-I 633 W/m 16,1 C 4,8 km/h (1 Bft)
12.09.2016 14:43 25,0 C 25,1 C 55 % 1016,6 hPa 0,0 mm 4,8 km/h (1 Bft) O-NO 67 1 min 0,000 mm 4,4 UV-I 629 W/m 15,3 C 11,3 km/h (2 Bft)
12.09.2016 14:44 25,1 C 25,1 C 54 % 1016,5 hPa 0,0 mm 3,2 km/h (1 Bft) NO 45 1 min 0,000 mm 4,4 UV-I 629 W/m 15,1 C 4,8 km/h (1 Bft)
12.09.2016 14:45 25,1 C 25,2 C 56 % 1016,5 hPa 0,0 mm 4,8 km/h (1 Bft) O 90 1 min 0,000 mm 4,3 UV-I 628 W/m 15,7 C 6,4 km/h (2 Bft)
12.09.2016 14:46 24,9 C 25,1 C 51 % 1016,5 hPa 0,0 mm 4,8 km/h (1 Bft) O 90 1 min 0,000 mm 4,3 UV-I 628 W/m 14,1 C 8,0 km/h (2 Bft)
12.09.2016 14:47 25,0 C 25,0 C 54 % 1016,5 hPa 0,0 mm 3,2 km/h (1 Bft) NO 45 1 min 0,000 mm 4,3 UV-I 626 W/m 15,0 C 4,8 km/h (1 Bft)
12.09.2016 14:48 24,9 C 24,9 C 57 % 1016,5 hPa 0,0 mm 4,8 km/h (1 Bft) O-NO 67 1 min 0,000 mm 4,3 UV-I 621 W/m 15,8 C 8,0 km/h (2 Bft)
12.09.2016 14:49 24,9 C 25,0 C 55 % 1016,5 hPa 0,0 mm 6,4 km/h (2 Bft) NO 45 1 min 0,000 mm 4,2 UV-I 621 W/m 15,2 C 9,7 km/h (2 Bft)
12.09.2016 14:50 25,1 C 25,1 C 54 % 1016,5 hPa 0,0 mm 8,0 km/h (2 Bft) NO 45 1 min 0,000 mm 4,2 UV-I 621 W/m 15,1 C 12,9 km/h (3 Bft)
12.09.2016 14:51 25,2 C 25,2 C 54 % 1016,5 hPa 0,0 mm 3,2 km/h (1 Bft) O-NO 67 1 min 0,000 mm 4,2 UV-I 621 W/m 15,2 C 12,9 km/h (3 Bft)
12.09.2016 14:52 25,2 C 25,2 C 57 % 1016,4 hPa 0,0 mm 6,4 km/h (2 Bft) O-NO 67 1 min 0,000 mm 4,2 UV-I 615 W/m 16,1 C 9,7 km/h (2 Bft)
12.09.2016 14:53 25,1 C 25,2 C 55 % 1016,4 hPa 0,0 mm 6,4 km/h (2 Bft) O 90 1 min 0,000 mm 4,2 UV-I 612 W/m 15,4 C 11,3 km/h (2 Bft)
12.09.2016 14:54 25,1 C 25,1 C 57 % 1016,5 hPa 0,0 mm 4,8 km/h (1 Bft) O-NO 67 1 min 0,000 mm 4,2 UV-I 612 W/m 16,0 C 6,4 km/h (2 Bft)
12.09.2016 14:55 25,2 C 25,2 C 55 % 1016,5 hPa 0,0 mm 1,6 km/h (1 Bft) O-NO 67 1 min 0,000 mm 4,2 UV-I 615 W/m 15,5 C 4,8 km/h (1 Bft)
12.09.2016 14:56 25,1 C 25,2 C 51 % 1016,5 hPa 0,0 mm 3,2 km/h (1 Bft) O 90 1 min 0,000 mm 4,1 UV-I 613 W/m 14,2 C 6,4 km/h (2 Bft)
12.09.2016 14:57 25,1 C 25,2 C 54 % 1016,4 hPa 0,0 mm 1,6 km/h (1 Bft) O-SO 112 1 min 0,000 mm 4,1 UV-I 608 W/m 15,1 C 3,2 km/h (1 Bft)
12.09.2016 14:58 25,2 C 25,2 C 57 % 1016,4 hPa 0,0 mm 3,2 km/h (1 Bft) O 90 1 min 0,000 mm 4,0 UV-I 610 W/m 16,1 C 6,4 km/h (2 Bft)
12.09.2016 14:59 25,2 C 25,2 C 59 % 1016,4 hPa 0,0 mm 3,2 km/h (1 Bft) SO 135 1 min 0,000 mm 4,0 UV-I 608 W/m 16,6 C 4,8 km/h (1 Bft)
12.09.2016 15:00 25,2 C 25,2 C 52 % 1016,4 hPa 0,0 mm 1,6 km/h (1 Bft) NO 45 1 min 0,432 mm 4,0 UV-I 605 W/m 14,6 C 4,8 km/h (1 Bft)
12.09.2016 15:01 25,2 C 25,2 C 54 % 1016,4 hPa 0,0 mm 3,2 km/h (1 Bft) O-NO 67 1 min 0,000 mm 3,9 UV-I 598 W/m 15,2 C 4,8 km/h (1 Bft)
12.09.2016 15:02 25,2 C 25,2 C 57 % 1016,5 hPa 0,0 mm 4,8 km/h (1 Bft) N-NO 22 1 min 0,000 mm 3,8 UV-I 596 W/m 16,1 C 6,4 km/h (2 Bft)
12.09.2016 15:03 25,2 C 25,2 C 59 % 1016,4 hPa 0,0 mm 4,8 km/h (1 Bft) O 90 1 min 0,000 mm 3,8 UV-I 578 W/m 16,6 C 6,4 km/h (2 Bft)
12.09.2016 15:04 25,1 C 25,2 C 61 % 1016,5 hPa 0,0 mm 3,2 km/h (1 Bft) O 90 1 min 0,000 mm 3,7 UV-I 596 W/m 17,0 C 6,4 km/h (2 Bft)
12.09.2016 15:05 25,1 C 25,1 C 52 % 1016,4 hPa 0,0 mm 3,2 km/h (1 Bft) O-NO 67 1 min 0,000 mm 3,7 UV-I 603 W/m 14,5 C 6,4 km/h (2 Bft)
12.09.2016 15:06 25,1 C 25,1 C 55 % 1016,5 hPa 0,0 mm 3,2 km/h (1 Bft) O-SO 112 1 min 0,000 mm 3,6 UV-I 596 W/m 15,4 C 4,8 km/h (1 Bft)
12.09.2016 15:07 25,1 C 25,1 C 56 % 1016,4 hPa 0,0 mm 3,2 km/h (1 Bft) O 90 1 min 0,000 mm 3,6 UV-I 580 W/m 15,7 C 4,8 km/h (1 Bft)
12.09.2016 15:09 25,0 C 25,1 C 53 % 1016,5 hPa 0,0 mm 2,8 km/h (1 Bft) O 90 2 min 0,000 mm 3,6 UV-I 577 W/m 14,7 C 4,8 km/h (1 Bft)
12.09.2016 15:10 25,1 C 25,1 C 52 % 1016,5 hPa 0,0 mm 1,9 km/h (1 Bft) O 88 1 min 0,000 mm 3,5 UV-I 563 W/m 14,5 C 3,2 km/h (1 Bft)
12.09.2016 15:11 25,2 C 25,2 C 50 % 1016,5 hPa 0,0 mm 4,7 km/h (1 Bft) NO 41 1 min 0,000 mm 3,6 UV-I 587 W/m 14,0 C 11,3 km/h (2 Bft)
12.09.2016 15:12 25,2 C 25,2 C 48 % 1016,4 hPa 0,0 mm 4,5 km/h (1 Bft) N-NO 27 1 min 0,000 mm 3,5 UV-I 573 W/m 13,4 C 6,4 km/h (2 Bft)
12.09.2016 15:13 25,1 C 25,2 C 55 % 1016,4 hPa 0,0 mm 2,4 km/h (1 Bft) O-NO 78 1 min 0,000 mm 3,5 UV-I 580 W/m 15,4 C 3,2 km/h (1 Bft)
12.09.2016 15:14 25,1 C 25,1 C 54 % 1016,4 hPa 0,0 mm 4,0 km/h (1 Bft) SO 128 1 min 0,000 mm 3,5 UV-I 585 W/m 15,1 C 6,4 km/h (2 Bft)
12.09.2016 15:15 24,9 C 25,1 C 57 % 1016,5 hPa 0,0 mm 3,6 km/h (1 Bft) O 92 1 min 0,000 mm 3,5 UV-I 587 W/m 15,8 C 4,8 km/h (1 Bft)
12.09.2016 15:16 25,0 C 25,0 C 52 % 1016,5 hPa 0,0 mm 4,3 km/h (1 Bft) O-NO 74 1 min 0,000 mm 3,5 UV-I 584 W/m 14,4 C 11,3 km/h (2 Bft)
12.09.2016 15:17 25,1 C 25,1 C 53 % 1016,4 hPa 0,0 mm 5,4 km/h (1 Bft) N-NO 28 1 min 0,000 mm 3,5 UV-I 564 W/m 14,8 C 6,4 km/h (2 Bft)
12.09.2016 15:18 25,1 C 25,1 C 55 % 1016,5 hPa 0,0 mm 2,5 km/h (1 Bft) O 80 1 min 0,000 mm 3,4 UV-I 559 W/m 15,4 C 4,8 km/h (1 Bft)
12.09.2016 15:19 25,0 C 25,1 C 54 % 1016,5 hPa 0,0 mm 2,7 km/h (1 Bft) S-SO 147 1 min 0,000 mm 3,4 UV-I 564 W/m 15,0 C 4,8 km/h (1 Bft)
12.09.2016 15:20 25,1 C 25,1 C 53 % 1016,5 hPa 0,0 mm 2,4 km/h (1 Bft) O 88 1 min 0,000 mm 3,5 UV-I 552 W/m 14,8 C 4,8 km/h (1 Bft)
12.09.2016 15:21 24,9 C 25,1 C 57 % 1016,5 hPa 0,0 mm 6,0 km/h (2 Bft) N 10 1 min 0,000 mm 3,4 UV-I 559 W/m 15,8 C 8,0 km/h (2 Bft)
12.09.2016 15:22 24,8 C 24,9 C 55 % 1016,4 hPa 0,0 mm 4,6 km/h (1 Bft) NO 54 1 min 0,000 mm 3,4 UV-I 563 W/m 15,1 C 6,4 km/h (2 Bft)
12.09.2016 15:23 24,9 C 24,9 C 54 % 1016,4 hPa 0,0 mm 4,6 km/h (1 Bft) NO 51 1 min 0,000 mm 3,4 UV-I 557 W/m 14,9 C 8,0 km/h (2 Bft)
12.09.2016 15:24 25,1 C 25,1 C 56 % 1016,4 hPa 0,0 mm 2,3 km/h (1 Bft) O-SO 117 1 min 0,000 mm 3,4 UV-I 548 W/m 15,7 C 3,2 km/h (1 Bft)
12.09.2016 15:25 25,1 C 25,1 C 55 % 1016,4 hPa 0,0 mm 2,1 km/h (1 Bft) SO 134 1 min 0,000 mm 3,3 UV-I 533 W/m 15,4 C 4,8 km/h (1 Bft)
12.09.2016 15:26 25,0 C 25,1 C 52 % 1016,4 hPa 0,0 mm 1,7 km/h (1 Bft) SO 146 1 min 0,000 mm 3,3 UV-I 520 W/m 14,4 C 4,8 km/h (1 Bft)
12.09.2016 15:27 25,0 C 25,0 C 52 % 1016,3 hPa 0,0 mm 3,7 km/h (1 Bft) O-NO 61 1 min 0,000 mm 3,3 UV-I 529 W/m 14,4 C 6,4 km/h (2 Bft)
12.09.2016 15:28 25,1 C 25,1 C 52 % 1016,4 hPa 0,0 mm 2,6 km/h (1 Bft) NO 39 1 min 0,000 mm 3,2 UV-I 515 W/m 14,5 C 4,8 km/h (1 Bft)
12.09.2016 15:29 25,1 C 25,1 C 53 % 1016,4 hPa 0,0 mm 2,7 km/h (1 Bft) O-NO 57 1 min 0,000 mm 3,3 UV-I 545 W/m 14,8 C 8,0 km/h (2 Bft)
12.09.2016 15:30 25,1 C 25,1 C 55 % 1016,4 hPa 0,0 mm 3,5 km/h (1 Bft) O 100 1 min 0,000 mm 3,3 UV-I 545 W/m 15,4 C 4,8 km/h (1 Bft)
12.09.2016 15:31 25,1 C 25,1 C 53 % 1016,4 hPa 0,0 mm 4,4 km/h (1 Bft) O 87 1 min 0,000 mm 3,4 UV-I 524 W/m 14,8 C 6,4 km/h (2 Bft)
12.09.2016 15:32 25,1 C 25,1 C 53 % 1016,4 hPa 0,0 mm 4,4 km/h (1 Bft) N-NO 31 1 min 0,000 mm 3,3 UV-I 529 W/m 14,8 C 6,4 km/h (2 Bft)
12.09.2016 15:33 25,2 C 25,2 C 51 % 1016,4 hPa 0,0 mm 3,6 km/h (1 Bft) NO 36 1 min 0,000 mm 3,3 UV-I 522 W/m 14,3 C 6,4 km/h (2 Bft)
12.09.2016 15:34 25,3 C 25,3 C 55 % 1016,4 hPa 0,0 mm 2,7 km/h (1 Bft) NO 36 1 min 0,000 mm 3,4 UV-I 531 W/m 15,6 C 4,8 km/h (1 Bft)
12.09.2016 15:35 25,3 C 25,3 C 54 % 1016,4 hPa 0,0 mm 2,6 km/h (1 Bft) NO 46 1 min 0,000 mm 3,4 UV-I 531 W/m 15,3 C 4,8 km/h (1 Bft)
12.09.2016 15:36 25,3 C 25,4 C 51 % 1016,4 hPa 0,0 mm 4,9 km/h (1 Bft) O-NO 78 1 min 0,000 mm 3,4 UV-I 533 W/m 14,4 C 6,4 km/h (2 Bft)
12.09.2016 15:37 25,3 C 25,3 C 53 % 1016,4 hPa 0,0 mm 2,8 km/h (1 Bft) O 80 1 min 0,000 mm 3,4 UV-I 536 W/m 15,0 C 4,8 km/h (1 Bft)
12.09.2016 15:38 25,2 C 25,3 C 54 % 1016,4 hPa 0,0 mm 2,1 km/h (1 Bft) O 80 1 min 0,000 mm 3,4 UV-I 538 W/m 15,2 C 3,2 km/h (1 Bft)
12.09.2016 15:39 25,1 C 25,2 C 57 % 1016,4 hPa 0,0 mm 4,6 km/h (1 Bft) O-SO 103 1 min 0,000 mm 3,3 UV-I 517 W/m 16,0 C 8,0 km/h (2 Bft)
12.09.2016 15:40 25,1 C 25,1 C 57 % 1016,4 hPa 0,0 mm 2,7 km/h (1 Bft) O 89 1 min 0,000 mm 3,2 UV-I 483 W/m 16,0 C 6,4 km/h (2 Bft)
12.09.2016 15:41 25,1 C 25,1 C 57 % 1016,4 hPa 0,0 mm 6,0 km/h (2 Bft) S-SO 152 1 min 0,000 mm 3,2 UV-I 471 W/m 16,0 C 9,7 km/h (2 Bft)
12.09.2016 15:42 25,0 C 25,1 C 51 % 1016,4 hPa 0,0 mm 3,9 km/h (1 Bft) SO 141 1 min 0,000 mm 3,2 UV-I 478 W/m 14,1 C 8,0 km/h (2 Bft)
12.09.2016 15:43 25,1 C 25,1 C 52 % 1016,4 hPa 0,0 mm 3,0 km/h (1 Bft) SO 141 1 min 0,000 mm 3,2 UV-I 494 W/m 14,5 C 4,8 km/h (1 Bft)
12.09.2016 15:44 25,1 C 25,1 C 52 % 1016,4 hPa 0,0 mm 2,4 km/h (1 Bft) O 88 1 min 0,000 mm 3,2 UV-I 508 W/m 14,5 C 4,8 km/h (1 Bft)
12.09.2016 15:45 25,1 C 25,1 C 54 % 1016,4 hPa 0,0 mm 3,3 km/h (1 Bft) O-NO 67 1 min 0,000 mm 3,2 UV-I 504 W/m 15,1 C 6,4 km/h (2 Bft)
12.09.2016 15:46 25,0 C 25,1 C 58 % 1016,4 hPa 0,0 mm 3,6 km/h (1 Bft) N-NO 27 1 min 0,000 mm 3,2 UV-I 504 W/m 16,1 C 8,0 km/h (2 Bft)
12.09.2016 15:47 24,9 C 25,0 C 58 % 1016,4 hPa 0,0 mm 3,3 km/h (1 Bft) O-SO 123 1 min 0,000 mm 3,2 UV-I 501 W/m 16,1 C 4,8 km/h (1 Bft)
12.09.2016 15:48 25,0 C 25,0 C 56 % 1016,4 hPa 0,0 mm 3,0 km/h (1 Bft) O-SO 123 1 min 0,000 mm 3,1 UV-I 499 W/m 15,6 C 4,8 km/h (1 Bft)
12.09.2016 15:49 25,0 C 25,0 C 57 % 1016,4 hPa 0,0 mm 3,0 km/h (1 Bft) SO 136 1 min 0,000 mm 3,1 UV-I 497 W/m 15,9 C 4,8 km/h (1 Bft)
12.09.2016 15:50 24,9 C 25,0 C 54 % 1016,4 hPa 0,0 mm 4,0 km/h (1 Bft) NO 55 1 min 0,000 mm 3,1 UV-I 499 W/m 14,9 C 6,4 km/h (2 Bft)
12.09.2016 15:51 24,9 C 24,9 C 51 % 1016,3 hPa 0,0 mm 3,4 km/h (1 Bft) O-SO 113 1 min 0,000 mm 3,1 UV-I 499 W/m 14,1 C 4,8 km/h (1 Bft)
12.09.2016 15:52 24,9 C 25,0 C 53 % 1016,4 hPa 0,0 mm 4,5 km/h (1 Bft) O-SO 117 1 min 0,000 mm 3,1 UV-I 497 W/m 14,6 C 9,7 km/h (2 Bft)
12.09.2016 15:53 24,9 C 25,0 C 52 % 1016,3 hPa 0,0 mm 2,2 km/h (1 Bft) O-SO 119 1 min 0,000 mm 3,1 UV-I 497 W/m 14,4 C 4,8 km/h (1 Bft)
12.09.2016 15:54 25,0 C 25,0 C 51 % 1016,3 hPa 0,0 mm 3,6 km/h (1 Bft) O 97 1 min 0,000 mm 3,1 UV-I 494 W/m 14,1 C 4,8 km/h (1 Bft)
12.09.2016 15:55 25,0 C 25,0 C 52 % 1016,3 hPa 0,0 mm 0,9 km/h (0 Bft) O 97 1 min 0,000 mm 3,0 UV-I 489 W/m 14,4 C 3,2 km/h (1 Bft)
12.09.2016 15:56 25,0 C 25,0 C 54 % 1016,3 hPa 0,0 mm 1,3 km/h (1 Bft) O 97 1 min 0,000 mm 3,0 UV-I 483 W/m 15,0 C 3,2 km/h (1 Bft)
12.09.2016 15:57 24,9 C 25,0 C 57 % 1016,2 hPa 0,0 mm 0,9 km/h (0 Bft) O 97 1 min 0,000 mm 3,0 UV-I 480 W/m 15,8 C 1,6 km/h (1 Bft)
12.09.2016 15:58 24,9 C 25,0 C 54 % 1016,2 hPa 0,0 mm 3,0 km/h (1 Bft) NO 41 1 min 0,000 mm 3,0 UV-I 478 W/m 14,9 C 4,8 km/h (1 Bft)
12.09.2016 15:59 25,0 C 25,0 C 55 % 1016,3 hPa 0,0 mm 4,2 km/h (1 Bft) NO 48 1 min 0,000 mm 2,9 UV-I 476 W/m 15,3 C 8,0 km/h (2 Bft)
12.09.2016 16:00 25,1 C 25,1 C 53 % 1016,2 hPa 0,0 mm 4,1 km/h (1 Bft) NO 53 1 min 0,000 mm 2,9 UV-I 475 W/m 14,8 C 6,4 km/h (2 Bft)
12.09.2016 16:01 25,1 C 25,2 C 52 % 1016,2 hPa 0,0 mm 3,2 km/h (1 Bft) O-NO 70 1 min 0,355 mm 2,9 UV-I 471 W/m 14,5 C 4,8 km/h (1 Bft)
12.09.2016 16:02 25,2 C 25,2 C 56 % 1016,2 hPa 0,0 mm 3,3 km/h (1 Bft) NO 55 1 min 0,000 mm 2,8 UV-I 457 W/m 15,8 C 4,8 km/h (1 Bft)
12.09.2016 16:03 25,2 C 25,2 C 53 % 1016,2 hPa 0,0 mm 3,9 km/h (1 Bft) O 85 1 min 0,000 mm 2,8 UV-I 459 W/m 14,9 C 6,4 km/h (2 Bft)
12.09.2016 16:04 25,2 C 25,2 C 55 % 1016,2 hPa 0,0 mm 4,0 km/h (1 Bft) O-NO 60 1 min 0,000 mm 2,8 UV-I 468 W/m 15,5 C 6,4 km/h (2 Bft)
12.09.2016 16:05 25,2 C 25,2 C 55 % 1016,2 hPa 0,0 mm 3,5 km/h (1 Bft) O-NO 70 1 min 0,000 mm 2,8 UV-I 466 W/m 15,5 C 4,8 km/h (1 Bft)
12.09.2016 16:06 25,1 C 25,2 C 56 % 1016,2 hPa 0,0 mm 6,2 km/h (2 Bft) NO 42 1 min 0,000 mm 2,8 UV-I 464 W/m 15,7 C 9,7 km/h (2 Bft)
12.09.2016 16:07 24,9 C 25,1 C 52 % 1016,2 hPa 0,0 mm 3,1 km/h (1 Bft) NO 46 1 min 0,000 mm 2,8 UV-I 461 W/m 14,4 C 4,8 km/h (1 Bft)
12.09.2016 16:08 24,9 C 24,9 C 53 % 1016,2 hPa 0,0 mm 3,7 km/h (1 Bft) O-SO 115 1 min 0,000 mm 2,8 UV-I 461 W/m 14,6 C 4,8 km/h (1 Bft)
12.09.2016 16:09 25,1 C 25,1 C 53 % 1016,2 hPa 0,0 mm 3,6 km/h (1 Bft) NO 37 1 min 0,000 mm 2,7 UV-I 459 W/m 14,8 C 6,4 km/h (2 Bft)
12.09.2016 16:10 25,1 C 25,1 C 56 % 1016,2 hPa 0,0 mm 3,0 km/h (1 Bft) O-NO 63 1 min 0,000 mm 2,7 UV-I 457 W/m 15,7 C 4,8 km/h (1 Bft)
12.09.2016 16:11 25,1 C 25,1 C 51 % 1016,2 hPa 0,0 mm 3,0 km/h (1 Bft) O 92 1 min 0,000 mm 2,7 UV-I 452 W/m 14,2 C 4,8 km/h (1 Bft)
12.09.2016 16:12 24,9 C 25,1 C 51 % 1016,2 hPa 0,0 mm 1,7 km/h (1 Bft) O 92 1 min 0,000 mm 2,7 UV-I 448 W/m 14,1 C 3,2 km/h (1 Bft)
12.09.2016 16:13 25,0 C 25,0 C 51 % 1016,2 hPa 0,0 mm 0,9 km/h (0 Bft) NO 54 1 min 0,000 mm 2,7 UV-I 446 W/m 14,1 C 3,2 km/h (1 Bft)
12.09.2016 16:14 25,0 C 25,1 C 52 % 1016,2 hPa 0,0 mm 4,2 km/h (1 Bft) NO 44 1 min 0,000 mm 2,6 UV-I 441 W/m 14,4 C 6,4 km/h (2 Bft)
12.09.2016 16:15 24,7 C 25,0 C 55 % 1016,2 hPa 0,0 mm 3,2 km/h (1 Bft) O-NO 67 1 min 0,000 mm 2,6 UV-I 438 W/m 15,0 C 4,8 km/h (1 Bft)
12.09.2016 16:16 24,6 C 24,7 C 55 % 1016,2 hPa 0,0 mm 2,5 km/h (1 Bft) NO 55 1 min 0,000 mm 2,6 UV-I 436 W/m 14,9 C 6,4 km/h (2 Bft)
12.09.2016 16:17 24,6 C 24,6 C 62 % 1016,1 hPa 0,0 mm 3,4 km/h (1 Bft) O-SO 103 1 min 0,000 mm 2,6 UV-I 434 W/m 16,8 C 4,8 km/h (1 Bft)
12.09.2016 16:18 24,6 C 24,6 C 56 % 1016,1 hPa 0,0 mm 3,2 km/h (1 Bft) O-SO 113 1 min 0,000 mm 2,6 UV-I 434 W/m 15,2 C 3,2 km/h (1 Bft)
12.09.2016 16:19 24,7 C 24,7 C 54 % 1016,1 hPa 0,0 mm 2,2 km/h (1 Bft) O-SO 113 1 min 0,000 mm 2,5 UV-I 431 W/m 14,8 C 3,2 km/h (1 Bft)
12.09.2016 16:20 24,7 C 24,7 C 57 % 1016,1 hPa 0,0 mm 2,2 km/h (1 Bft) O-SO 113 1 min 0,000 mm 2,5 UV-I 425 W/m 15,6 C 3,2 km/h (1 Bft)
12.09.2016 16:21 24,8 C 24,8 C 51 % 1016,1 hPa 0,0 mm 3,0 km/h (1 Bft) O-NO 66 1 min 0,000 mm 2,5 UV-I 427 W/m 14,0 C 4,8 km/h (1 Bft)
12.09.2016 16:22 24,7 C 24,8 C 59 % 1016,1 hPa 0,0 mm 5,2 km/h (1 Bft) O-NO 78 1 min 0,000 mm 2,5 UV-I 424 W/m 16,1 C 6,4 km/h (2 Bft)
12.09.2016 16:23 24,8 C 24,8 C 57 % 1016,0 hPa 0,0 mm 3,2 km/h (1 Bft) O-NO 78 1 min 0,000 mm 2,4 UV-I 422 W/m 15,7 C 4,8 km/h (1 Bft)
12.09.2016 16:24 24,7 C 24,8 C 59 % 1016,0 hPa 0,0 mm 3,6 km/h (1 Bft) N-NW 344 1 min 0,000 mm 2,4 UV-I 401 W/m 16,1 C 4,8 km/h (1 Bft)
12.09.2016 16:25 24,7 C 24,7 C 57 % 1016,0 hPa 0,0 mm 5,8 km/h (2 Bft) SO 140 1 min 0,000 mm 2,2 UV-I 343 W/m 15,6 C 8,0 km/h (2 Bft)
12.09.2016 16:26 24,6 C 24,7 C 56 % 1016,1 hPa 0,0 mm 2,4 km/h (1 Bft) SO 140 0 min 0,000 mm 2,2 UV-I 258 W/m 15,2 C 4,8 km/h (1 Bft)
12.09.2016 16:27 24,6 C 24,6 C 54 % 1016,1 hPa 0,0 mm 1,7 km/h (1 Bft) O-SO 118 0 min 0,000 mm 1,7 UV-I 227 W/m 14,7 C 3,2 km/h (1 Bft)
12.09.2016 16:28 24,7 C 24,7 C 56 % 1016,0 hPa 0,0 mm 1,7 km/h (1 Bft) O 92 0 min 0,000 mm 1,6 UV-I 153 W/m 15,3 C 3,2 km/h (1 Bft)
12.09.2016 16:29 24,7 C 24,7 C 54 % 1016,1 hPa 0,0 mm 4,4 km/h (1 Bft) O-SO 105 0 min 0,000 mm 1,6 UV-I 178 W/m 14,8 C 6,4 km/h (2 Bft)
12.09.2016 16:30 24,7 C 24,7 C 52 % 1016,1 hPa 0,0 mm 2,8 km/h (1 Bft) N-NO 19 0 min 0,000 mm 1,6 UV-I 216 W/m 14,2 C 4,8 km/h (1 Bft)
12.09.2016 16:31 24,7 C 24,7 C 52 % 1016,1 hPa 0,0 mm 1,5 km/h (1 Bft) N-NO 19 0 min 0,000 mm 1,6 UV-I 216 W/m 14,2 C 3,2 km/h (1 Bft)
12.09.2016 16:32 24,8 C 24,8 C 53 % 1016,1 hPa 0,0 mm 0,7 km/h (0 Bft) N-NO 22 0 min 0,000 mm 1,5 UV-I 216 W/m 14,6 C 1,6 km/h (1 Bft)
12.09.2016 16:33 24,8 C 24,8 C 53 % 1016,1 hPa 0,0 mm 0,3 km/h (0 Bft) N-NO 22 0 min 0,000 mm 1,5 UV-I 69 W/m 14,6 C 1,6 km/h (1 Bft)
12.09.2016 16:34 24,8 C 24,8 C 50 % 1016,0 hPa 0,0 mm 0,9 km/h (0 Bft) NO 38 0 min 0,000 mm 1,5 UV-I 69 W/m 13,7 C 3,2 km/h (1 Bft)
12.09.2016 16:35 24,7 C 24,8 C 58 % 1016,1 hPa 0,0 mm 3,9 km/h (1 Bft) O-SO 110 0 min 0,000 mm 1,5 UV-I 72 W/m 15,9 C 4,8 km/h (1 Bft)
12.09.2016 16:36 24,7 C 24,7 C 55 % 1016,0 hPa 0,0 mm 2,7 km/h (1 Bft) O-NO 63 0 min 0,000 mm 1,5 UV-I 72 W/m 15,0 C 4,8 km/h (1 Bft)
12.09.2016 16:37 24,6 C 24,7 C 52 % 1016,0 hPa 0,0 mm 3,1 km/h (1 Bft) SW 222 0 min 0,000 mm 1,4 UV-I 91 W/m 14,1 C 4,8 km/h (1 Bft)
12.09.2016 16:38 24,6 C 24,6 C 53 % 1016,0 hPa 0,0 mm 1,7 km/h (1 Bft) S-SO 168 0 min 0,000 mm 1,4 UV-I 97 W/m 14,4 C 3,2 km/h (1 Bft)
12.09.2016 16:39 24,5 C 24,6 C 52 % 1016,0 hPa 0,0 mm 1,9 km/h (1 Bft) S-SO 161 0 min 0,000 mm 1,4 UV-I 97 W/m 14,0 C 3,2 km/h (1 Bft)
12.09.2016 16:40 24,5 C 24,5 C 53 % 1016,0 hPa 0,0 mm 2,6 km/h (1 Bft) O-SO 107 0 min 0,000 mm 1,4 UV-I 74 W/m 14,3 C 4,8 km/h (1 Bft)
12.09.2016 16:41 24,4 C 24,5 C 57 % 1016,0 hPa 0,0 mm 2,6 km/h (1 Bft) O-SO 112 0 min 0,000 mm 1,4 UV-I 93 W/m 15,3 C 4,8 km/h (1 Bft)
12.09.2016 16:42 24,4 C 24,4 C 53 % 1016,0 hPa 0,0 mm 4,7 km/h (1 Bft) SO 142 0 min 0,000 mm 1,4 UV-I 90 W/m 14,2 C 8,0 km/h (2 Bft)
12.09.2016 16:43 24,3 C 24,4 C 54 % 1016,0 hPa 0,0 mm 4,1 km/h (1 Bft) O-NO 69 0 min 0,000 mm 1,4 UV-I 69 W/m 14,4 C 6,4 km/h (2 Bft)
12.09.2016 16:44 24,3 C 24,3 C 51 % 1016,1 hPa 0,0 mm 3,6 km/h (1 Bft) O-NO 66 0 min 0,000 mm 1,4 UV-I 62 W/m 13,5 C 4,8 km/h (1 Bft)
12.09.2016 16:45 24,4 C 24,4 C 52 % 1016,1 hPa 0,0 mm 1,4 km/h (1 Bft) O-NO 66 0 min 0,000 mm 1,4 UV-I 62 W/m 13,9 C 3,2 km/h (1 Bft)
12.09.2016 16:46 24,4 C 24,4 C 52 % 1016,1 hPa 0,0 mm 0,4 km/h (0 Bft) O-NO 66 0 min 0,000 mm 1,4 UV-I 62 W/m 13,9 C 1,6 km/h (1 Bft)
12.09.2016 16:47 24,4 C 24,4 C 54 % 1016,1 hPa 0,0 mm 2,1 km/h (1 Bft) O-NO 57 0 min 0,000 mm 1,3 UV-I 60 W/m 14,5 C 3,2 km/h (1 Bft)
12.09.2016 16:48 24,4 C 24,4 C 51 % 1016,1 hPa 0,0 mm 1,4 km/h (1 Bft) O-NO 70 0 min 0,000 mm 1,3 UV-I 60 W/m 13,6 C 3,2 km/h (1 Bft)
12.09.2016 16:49 24,4 C 24,4 C 55 % 1016,1 hPa 0,0 mm 2,5 km/h (1 Bft) O 82 0 min 0,000 mm 1,3 UV-I 60 W/m 14,8 C 4,8 km/h (1 Bft)
12.09.2016 16:50 24,4 C 24,4 C 56 % 1016,1 hPa 0,0 mm 4,5 km/h (1 Bft) O-SO 103 0 min 0,000 mm 1,3 UV-I 60 W/m 15,0 C 6,4 km/h (2 Bft)
12.09.2016 16:51 24,3 C 24,4 C 55 % 1016,1 hPa 0,0 mm 3,5 km/h (1 Bft) O-SO 102 0 min 0,000 mm 1,3 UV-I 58 W/m 14,7 C 6,4 km/h (2 Bft)
12.09.2016 16:52 24,4 C 24,4 C 51 % 1016,1 hPa 0,0 mm 5,6 km/h (1 Bft) NO 51 0 min 0,000 mm 1,3 UV-I 58 W/m 13,6 C 6,4 km/h (2 Bft)
12.09.2016 16:53 24,4 C 24,4 C 53 % 1016,1 hPa 0,0 mm 1,5 km/h (1 Bft) NO 51 0 min 0,000 mm 1,3 UV-I 58 W/m 14,2 C 3,2 km/h (1 Bft)
12.09.2016 16:54 24,4 C 24,4 C 53 % 1016,1 hPa 0,0 mm 1,5 km/h (1 Bft) NO 51 0 min 0,000 mm 1,3 UV-I 58 W/m 14,2 C 3,2 km/h (1 Bft)
12.09.2016 16:55 24,3 C 24,4 C 54 % 1016,0 hPa 0,0 mm 2,9 km/h (1 Bft) O-SO 121 0 min 0,000 mm 1,3 UV-I 56 W/m 14,4 C 4,8 km/h (1 Bft)
12.09.2016 16:56 24,3 C 24,4 C 53 % 1016,1 hPa 0,0 mm 2,3 km/h (1 Bft) O-SO 121 0 min 0,000 mm 1,3 UV-I 56 W/m 14,1 C 4,8 km/h (1 Bft)
12.09.2016 16:57 24,4 C 24,4 C 52 % 1016,0 hPa 0,0 mm 1,2 km/h (1 Bft) O-SO 121 0 min 0,000 mm 1,3 UV-I 58 W/m 13,9 C 3,2 km/h (1 Bft)
12.09.2016 16:58 24,4 C 24,4 C 53 % 1016,0 hPa 0,0 mm 0,8 km/h (0 Bft) O-SO 121 0 min 0,000 mm 1,3 UV-I 60 W/m 14,2 C 3,2 km/h (1 Bft)
12.09.2016 16:59 24,3 C 24,4 C 55 % 1016,1 hPa 0,0 mm 0,7 km/h (0 Bft) O-SO 121 0 min 0,000 mm 1,3 UV-I 69 W/m 14,7 C 1,6 km/h (1 Bft)
12.09.2016 17:00 24,3 C 24,3 C 53 % 1016,0 hPa 0,0 mm 1,1 km/h (1 Bft) O-SO 121 0 min 0,178 mm 1,2 UV-I 65 W/m 14,1 C 1,6 km/h (1 Bft)
12.09.2016 17:01 24,3 C 24,3 C 56 % 1016,1 hPa 0,0 mm 1,3 km/h (1 Bft) O-SO 121 0 min 0,000 mm 0,0 UV-I 54 W/m 14,9 C 3,2 km/h (1 Bft)
12.09.2016 17:02 24,2 C 24,3 C 52 % 1016,0 hPa 0,0 mm 1,6 km/h (1 Bft) O-SO 120 0 min 0,000 mm 0,0 UV-I 54 W/m 13,7 C 3,2 km/h (1 Bft)
12.09.2016 17:03 24,2 C 24,3 C 60 % 1016,0 hPa 0,0 mm 1,5 km/h (1 Bft) O-SO 105 0 min 0,000 mm 1,2 UV-I 56 W/m 15,9 C 3,2 km/h (1 Bft)
12.09.2016 17:04 24,1 C 24,2 C 54 % 1015,9 hPa 0,0 mm 1,1 km/h (1 Bft) NO 48 0 min 0,000 mm 0,0 UV-I 54 W/m 14,2 C 3,2 km/h (1 Bft)
12.09.2016 17:05 24,0 C 24,1 C 61 % 1015,9 hPa 0,0 mm 2,0 km/h (1 Bft) NO 49 0 min 0,000 mm 0,0 UV-I 53 W/m 16,0 C 3,2 km/h (1 Bft)
12.09.2016 17:06 23,9 C 24,0 C 59 % 1015,9 hPa 0,0 mm 1,1 km/h (1 Bft) NO 49 0 min 0,000 mm 0,0 UV-I 51 W/m 15,4 C 3,2 km/h (1 Bft)
12.09.2016 17:07 23,7 C 23,9 C 62 % 1016,0 hPa 0,0 mm 2,5 km/h (1 Bft) O-NO 74 0 min 0,000 mm 0,0 UV-I 51 W/m 16,0 C 4,8 km/h (1 Bft)
12.09.2016 17:08 23,7 C 23,7 C 55 % 1016,0 hPa 0,0 mm 2,7 km/h (1 Bft) O-NO 75 0 min 0,000 mm 0,0 UV-I 51 W/m 14,1 C 3,2 km/h (1 Bft)
12.09.2016 17:09 23,8 C 23,8 C 55 % 1016,0 hPa 0,0 mm 3,4 km/h (1 Bft) NO 51 0 min 0,000 mm 0,0 UV-I 51 W/m 14,2 C 4,8 km/h (1 Bft)
12.09.2016 17:10 23,9 C 23,9 C 56 % 1016,0 hPa 0,0 mm 1,5 km/h (1 Bft) NO 51 0 min 0,000 mm 0,0 UV-I 51 W/m 14,6 C 3,2 km/h (1 Bft)
12.09.2016 17:11 23,9 C 23,9 C 60 % 1016,0 hPa 0,0 mm 1,3 km/h (1 Bft) NO 51 0 min 0,000 mm 0,0 UV-I 51 W/m 15,7 C 1,6 km/h (1 Bft)
12.09.2016 17:12 23,9 C 23,9 C 56 % 1016,0 hPa 0,0 mm 4,1 km/h (1 Bft) O 100 0 min 0,000 mm 0,0 UV-I 51 W/m 14,6 C 6,4 km/h (2 Bft)
12.09.2016 17:13 23,9 C 23,9 C 56 % 1016,0 hPa 0,0 mm 3,8 km/h (1 Bft) O 88 0 min 0,000 mm 0,0 UV-I 51 W/m 14,6 C 4,8 km/h (1 Bft)
12.09.2016 17:14 23,9 C 23,9 C 56 % 1015,9 hPa 0,0 mm 2,6 km/h (1 Bft) O 88 0 min 0,000 mm 1,1 UV-I 56 W/m 14,6 C 4,8 km/h (1 Bft)
12.09.2016 17:15 23,9 C 23,9 C 56 % 1015,9 hPa 0,0 mm 2,8 km/h (1 Bft) S-SO 161 0 min 0,000 mm 0,0 UV-I 54 W/m 14,6 C 6,4 km/h (2 Bft)
12.09.2016 17:16 24,0 C 24,0 C 54 % 1015,9 hPa 0,0 mm 1,6 km/h (1 Bft) O-SO 111 0 min 0,000 mm 0,0 UV-I 51 W/m 14,1 C 3,2 km/h (1 Bft)
12.09.2016 17:17 23,9 C 24,0 C 56 % 1015,9 hPa 0,0 mm 3,6 km/h (1 Bft) NO 49 0 min 0,000 mm 0,0 UV-I 49 W/m 14,6 C 8,0 km/h (2 Bft)
12.09.2016 17:18 23,8 C 23,9 C 53 % 1015,9 hPa 0,0 mm 4,4 km/h (1 Bft) O 94 0 min 0,000 mm 0,0 UV-I 51 W/m 13,6 C 8,0 km/h (2 Bft)
12.09.2016 17:19 23,7 C 23,8 C 60 % 1016,0 hPa 0,0 mm 1,8 km/h (1 Bft) O 95 0 min 0,000 mm 0,0 UV-I 51 W/m 15,5 C 3,2 km/h (1 Bft)
12.09.2016 17:20 23,6 C 23,7 C 59 % 1015,9 hPa 0,0 mm 2,6 km/h (1 Bft) O 82 0 min 0,000 mm 0,0 UV-I 53 W/m 15,1 C 4,8 km/h (1 Bft)
12.09.2016 17:21 23,5 C 23,6 C 56 % 1015,9 hPa 0,0 mm 0,6 km/h (0 Bft) O 82 0 min 0,000 mm 1,1 UV-I 56 W/m 14,2 C 1,6 km/h (1 Bft)
12.09.2016 17:22 23,4 C 23,5 C 61 % 1016,0 hPa 0,0 mm 2,8 km/h (1 Bft) NO 37 0 min 0,000 mm 1,1 UV-I 60 W/m 15,4 C 4,8 km/h (1 Bft)
12.09.2016 17:23 23,4 C 23,4 C 59 % 1016,0 hPa 0,0 mm 3,4 km/h (1 Bft) O 81 0 min 0,000 mm 1,1 UV-I 54 W/m 14,9 C 8,0 km/h (2 Bft)
12.09.2016 17:24 23,3 C 23,4 C 58 % 1015,9 hPa 0,0 mm 1,9 km/h (1 Bft) O 81 0 min 0,000 mm 0,0 UV-I 53 W/m 14,6 C 3,2 km/h (1 Bft)
12.09.2016 17:25 23,3 C 23,3 C 56 % 1016,0 hPa 0,0 mm 1,1 km/h (1 Bft) O 79 0 min 0,000 mm 0,0 UV-I 49 W/m 14,0 C 3,2 km/h (1 Bft)
12.09.2016 17:26 23,3 C 23,3 C 56 % 1016,0 hPa 0,0 mm 1,3 km/h (1 Bft) O 79 0 min 0,000 mm 0,0 UV-I 47 W/m 14,0 C 3,2 km/h (1 Bft)
12.09.2016 17:27 23,3 C 23,3 C 55 % 1016,0 hPa 0,0 mm 2,1 km/h (1 Bft) O 79 0 min 0,000 mm 0,0 UV-I 47 W/m 13,7 C 3,2 km/h (1 Bft)
12.09.2016 17:28 23,4 C 23,4 C 59 % 1015,9 hPa 0,0 mm 1,5 km/h (1 Bft) O 79 0 min 0,000 mm 0,0 UV-I 53 W/m 14,9 C 1,6 km/h (1 Bft)
12.09.2016 17:29 23,4 C 23,4 C 55 % 1015,9 hPa 0,0 mm 3,4 km/h (1 Bft) O 84 0 min 0,000 mm 0,0 UV-I 53 W/m 13,8 C 4,8 km/h (1 Bft)
12.09.2016 17:30 23,3 C 23,4 C 54 % 1016,0 hPa 0,0 mm 1,7 km/h (1 Bft) O 82 0 min 0,000 mm 1,0 UV-I 86 W/m 13,5 C 4,8 km/h (1 Bft)
12.09.2016 17:31 23,2 C 23,3 C 63 % 1015,9 hPa 0,0 mm 2,4 km/h (1 Bft) O 89 0 min 0,000 mm 1,0 UV-I 69 W/m 15,8 C 4,8 km/h (1 Bft)
12.09.2016 17:32 23,2 C 23,2 C 61 % 1016,0 hPa 0,0 mm 2,3 km/h (1 Bft) O 94 0 min 0,000 mm 0,0 UV-I 53 W/m 15,3 C 4,8 km/h (1 Bft)
12.09.2016 17:33 23,2 C 23,2 C 55 % 1015,9 hPa 0,0 mm 2,0 km/h (1 Bft) O 95 0 min 0,000 mm 0,0 UV-I 49 W/m 13,6 C 4,8 km/h (1 Bft)
12.09.2016 17:34 23,2 C 23,2 C 56 % 1016,0 hPa 0,0 mm 0,5 km/h (0 Bft) O 95 0 min 0,000 mm 0,0 UV-I 49 W/m 13,9 C 1,6 km/h (1 Bft)
12.09.2016 17:35 23,2 C 23,3 C 60 % 1015,9 hPa 0,0 mm 2,1 km/h (1 Bft) O 95 0 min 0,000 mm 0,0 UV-I 47 W/m 15,0 C 3,2 km/h (1 Bft)
12.09.2016 17:36 23,3 C 23,3 C 54 % 1015,9 hPa 0,0 mm 0,7 km/h (0 Bft) O 95 0 min 0,000 mm 0,0 UV-I 46 W/m 13,5 C 1,6 km/h (1 Bft)
12.09.2016 17:37 23,4 C 23,4 C 55 % 1015,9 hPa 0,0 mm 0,8 km/h (0 Bft) O 95 0 min 0,000 mm 0,0 UV-I 46 W/m 13,8 C 1,6 km/h (1 Bft)
12.09.2016 17:38 23,3 C 23,4 C 56 % 1015,9 hPa 0,0 mm 1,7 km/h (1 Bft) O 95 0 min 0,000 mm 0,0 UV-I 46 W/m 14,0 C 3,2 km/h (1 Bft)
12.09.2016 17:39 23,2 C 23,3 C 60 % 1015,9 hPa 0,0 mm 2,1 km/h (1 Bft) O 95 0 min 0,000 mm 0,0 UV-I 44 W/m 15,0 C 3,2 km/h (1 Bft)
12.09.2016 17:40 23,1 C 23,2 C 59 % 1015,9 hPa 0,0 mm 2,1 km/h (1 Bft) O 95 0 min 0,000 mm 0,0 UV-I 44 W/m 14,6 C 3,2 km/h (1 Bft)
12.09.2016 17:41 22,8 C 23,1 C 64 % 1015,9 hPa 0,0 mm 0,7 km/h (0 Bft) O 95 0 min 0,000 mm 0,0 UV-I 44 W/m 15,6 C 3,2 km/h (1 Bft)
12.09.2016 17:42 22,8 C 22,9 C 58 % 1016,0 hPa 0,0 mm 0,6 km/h (0 Bft) O 95 0 min 0,000 mm 0,0 UV-I 44 W/m 14,1 C 1,6 km/h (1 Bft)
12.09.2016 17:43 22,9 C 22,9 C 58 % 1016,0 hPa 0,0 mm 2,7 km/h (1 Bft) O 95 0 min 0,000 mm 0,0 UV-I 44 W/m 14,2 C 4,8 km/h (1 Bft)
12.09.2016 17:44 22,9 C 22,9 C 57 % 1016,0 hPa 0,0 mm 0,8 km/h (0 Bft) O 95 0 min 0,000 mm 0,0 UV-I 44 W/m 13,9 C 3,2 km/h (1 Bft)
12.09.2016 17:45 22,9 C 22,9 C 59 % 1015,9 hPa 0,0 mm 2,0 km/h (1 Bft) O 95 0 min 0,000 mm 0,0 UV-I 44 W/m 14,5 C 4,8 km/h (1 Bft)
12.09.2016 17:46 23,0 C 23,0 C 56 % 1015,9 hPa 0,0 mm 1,8 km/h (1 Bft) O 95 0 min 0,000 mm 0,0 UV-I 42 W/m 13,7 C 3,2 km/h (1 Bft)
12.09.2016 17:47 23,1 C 23,1 C 56 % 1016,0 hPa 0,0 mm 2,5 km/h (1 Bft) O 95 0 min 0,000 mm 0,0 UV-I 42 W/m 13,8 C 3,2 km/h (1 Bft)
12.09.2016 17:48 23,1 C 23,1 C 56 % 1015,9 hPa 0,0 mm 1,1 km/h (1 Bft) O 95 0 min 0,000 mm 0,0 UV-I 42 W/m 13,8 C 3,2 km/h (1 Bft)
12.09.2016 17:49 23,2 C 23,2 C 55 % 1015,9 hPa 0,0 mm 1,0 km/h (0 Bft) O 95 0 min 0,000 mm 0,0 UV-I 42 W/m 13,6 C 1,6 km/h (1 Bft)
12.09.2016 17:50 23,3 C 23,3 C 53 % 1016,0 hPa 0,0 mm 0,3 km/h (0 Bft) O 95 0 min 0,000 mm 0,0 UV-I 42 W/m 13,2 C 1,6 km/h (1 Bft)
12.09.2016 17:51 23,4 C 23,4 C 53 % 1016,0 hPa 0,0 mm 1,6 km/h (1 Bft) O 95 0 min 0,000 mm 0,0 UV-I 42 W/m 13,3 C 3,2 km/h (1 Bft)
12.09.2016 17:52 23,4 C 23,4 C 55 % 1016,0 hPa 0,0 mm 1,7 km/h (1 Bft) O 95 0 min 0,000 mm 0,0 UV-I 40 W/m 13,8 C 3,2 km/h (1 Bft)
12.09.2016 17:53 23,4 C 23,4 C 54 % 1015,9 hPa 0,0 mm 1,5 km/h (1 Bft) O 95 0 min 0,000 mm 0,0 UV-I 40 W/m 13,6 C 3,2 km/h (1 Bft)
12.09.2016 17:54 23,3 C 23,4 C 54 % 1015,9 hPa 0,0 mm 2,0 km/h (1 Bft) O 95 0 min 0,000 mm 0,0 UV-I 40 W/m 13,5 C 3,2 km/h (1 Bft)
12.09.2016 17:55 23,2 C 23,3 C 55 % 1015,9 hPa 0,0 mm 1,7 km/h (1 Bft) O 95 0 min 0,000 mm 0,0 UV-I 40 W/m 13,6 C 3,2 km/h (1 Bft)
12.09.2016 17:56 23,3 C 23,3 C 53 % 1015,9 hPa 0,0 mm 1,9 km/h (1 Bft) O 95 0 min 0,000 mm 0,0 UV-I 40 W/m 13,2 C 3,2 km/h (1 Bft)
12.09.2016 17:57 23,3 C 23,3 C 52 % 1015,9 hPa 0,0 mm 2,2 km/h (1 Bft) O 95 0 min 0,000 mm 0,0 UV-I 40 W/m 12,9 C 3,2 km/h (1 Bft)
12.09.2016 17:58 23,3 C 23,3 C 53 % 1015,9 hPa 0,0 mm 2,0 km/h (1 Bft) O 95 0 min 0,000 mm 0,0 UV-I 40 W/m 13,2 C 3,2 km/h (1 Bft)
12.09.2016 17:59 23,3 C 23,3 C 53 % 1015,9 hPa 0,0 mm 2,2 km/h (1 Bft) O 95 0 min 0,000 mm 0,0 UV-I 39 W/m 13,2 C 3,2 km/h (1 Bft)
12.09.2016 18:00 23,3 C 23,3 C 55 % 1015,9 hPa 0,0 mm 0,3 km/h (0 Bft) O 95 0 min 0,000 mm 0,0 UV-I 39 W/m 13,7 C 1,6 km/h (1 Bft)
12.09.2016 18:01 23,3 C 23,3 C 56 % 1015,9 hPa 0,0 mm 1,8 km/h (1 Bft) O 95 0 min 0,051 mm 0,0 UV-I 39 W/m 14,0 C 3,2 km/h (1 Bft)
12.09.2016 18:02 23,2 C 23,3 C 58 % 1015,9 hPa 0,0 mm 2,4 km/h (1 Bft) O 95 0 min 0,000 mm 0,0 UV-I 39 W/m 14,5 C 3,2 km/h (1 Bft)
12.09.2016 18:03 23,1 C 23,2 C 55 % 1016,0 hPa 0,0 mm 2,6 km/h (1 Bft) O 95 0 min 0,000 mm 0,0 UV-I 37 W/m 13,6 C 3,2 km/h (1 Bft)
12.09.2016 18:04 23,1 C 23,1 C 55 % 1015,9 hPa 0,0 mm 1,1 km/h (1 Bft) O 95 0 min 0,000 mm 0,0 UV-I 37 W/m 13,6 C 3,2 km/h (1 Bft)
12.09.2016 18:05 23,1 C 23,1 C 54 % 1015,9 hPa 0,0 mm 1,3 km/h (1 Bft) O 95 0 min 0,000 mm 0,0 UV-I 37 W/m 13,3 C 1,6 km/h (1 Bft)
12.09.2016 18:06 23,0 C 23,1 C 56 % 1015,9 hPa 0,0 mm 1,8 km/h (1 Bft) O 95 0 min 0,000 mm 0,0 UV-I 37 W/m 13,7 C 3,2 km/h (1 Bft)
12.09.2016 18:07 22,9 C 23,0 C 55 % 1015,9 hPa 0,0 mm 2,4 km/h (1 Bft) O 95 0 min 0,000 mm 0,0 UV-I 37 W/m 13,4 C 3,2 km/h (1 Bft)
12.09.2016 18:08 22,9 C 22,9 C 57 % 1016,0 hPa 0,0 mm 0,9 km/h (0 Bft) O 95 0 min 0,000 mm 0,0 UV-I 37 W/m 13,9 C 3,2 km/h (1 Bft)
12.09.2016 18:09 22,9 C 22,9 C 55 % 1015,9 hPa 0,0 mm 0,5 km/h (0 Bft) O 95 0 min 0,000 mm 0,0 UV-I 37 W/m 13,4 C 1,6 km/h (1 Bft)
12.09.2016 18:10 23,0 C 23,0 C 54 % 1015,9 hPa 0,0 mm 1,7 km/h (1 Bft) O 95 0 min 0,000 mm 0,0 UV-I 37 W/m 13,2 C 3,2 km/h (1 Bft)
12.09.2016 18:11 23,1 C 23,1 C 55 % 1015,9 hPa 0,0 mm 2,2 km/h (1 Bft) O 95 0 min 0,000 mm 0,0 UV-I 35 W/m 13,6 C 3,2 km/h (1 Bft)
12.09.2016 18:12 23,1 C 23,1 C 55 % 1015,9 hPa 0,0 mm 1,2 km/h (1 Bft) O 95 0 min 0,000 mm 0,0 UV-I 35 W/m 13,6 C 3,2 km/h (1 Bft)
12.09.2016 18:13 23,1 C 23,2 C 59 % 1015,9 hPa 0,0 mm 1,0 km/h (0 Bft) O 95 0 min 0,000 mm 0,0 UV-I 35 W/m 14,6 C 1,6 km/h (1 Bft)
12.09.2016 18:14 23,1 C 23,1 C 55 % 1015,9 hPa 0,0 mm 1,9 km/h (1 Bft) O 95 0 min 0,000 mm 0,0 UV-I 35 W/m 13,6 C 3,2 km/h (1 Bft)
12.09.2016 18:15 23,1 C 23,1 C 57 % 1015,9 hPa 0,0 mm 1,4 km/h (1 Bft) O 95 0 min 0,000 mm 0,0 UV-I 35 W/m 14,1 C 3,2 km/h (1 Bft)
12.09.2016 18:16 23,1 C 23,1 C 56 % 1015,9 hPa 0,0 mm 0,8 km/h (0 Bft) O 95 0 min 0,000 mm 0,0 UV-I 35 W/m 13,8 C 3,2 km/h (1 Bft)
12.09.2016 18:17 23,1 C 23,1 C 56 % 1015,9 hPa 0,0 mm 1,9 km/h (1 Bft) O 95 0 min 0,000 mm 0,0 UV-I 33 W/m 13,8 C 3,2 km/h (1 Bft)
12.09.2016 18:18 23,1 C 23,1 C 57 % 1015,9 hPa 0,0 mm 1,6 km/h (1 Bft) O 95 0 min 0,000 mm 0,0 UV-I 33 W/m 14,1 C 3,2 km/h (1 Bft)
12.09.2016 18:19 23,1 C 23,1 C 58 % 1015,9 hPa 0,0 mm 1,5 km/h (1 Bft) O 95 0 min 0,000 mm 0,0 UV-I 33 W/m 14,4 C 3,2 km/h (1 Bft)
12.09.2016 18:20 23,0 C 23,1 C 58 % 1015,8 hPa 0,0 mm 0,8 km/h (0 Bft) O 95 0 min 0,000 mm 0,0 UV-I 33 W/m 14,3 C 1,6 km/h (1 Bft)
12.09.2016 18:21 22,9 C 23,0 C 59 % 1015,9 hPa 0,0 mm 1,6 km/h (1 Bft) O 95 0 min 0,000 mm 0,0 UV-I 33 W/m 14,5 C 3,2 km/h (1 Bft)
12.09.2016 18:22 22,9 C 22,9 C 59 % 1015,8 hPa 0,0 mm 1,5 km/h (1 Bft) O 95 0 min 0,000 mm 0,0 UV-I 32 W/m 14,5 C 3,2 km/h (1 Bft)
12.09.2016 18:23 22,9 C 22,9 C 59 % 1015,8 hPa 0,0 mm 1,1 km/h (1 Bft) O 95 0 min 0,000 mm 0,0 UV-I 32 W/m 14,5 C 1,6 km/h (1 Bft)
12.09.2016 18:24 22,8 C 22,9 C 59 % 1015,8 hPa 0,0 mm 1,7 km/h (1 Bft) O 95 0 min 0,000 mm 0,0 UV-I 32 W/m 14,4 C 3,2 km/h (1 Bft)
12.09.2016 18:25 22,8 C 22,8 C 59 % 1015,7 hPa 0,0 mm 1,5 km/h (1 Bft) O 95 0 min 0,000 mm 0,0 UV-I 32 W/m 14,4 C 3,2 km/h (1 Bft)
12.09.2016 18:26 22,8 C 22,8 C 61 % 1015,7 hPa 0,0 mm 1,4 km/h (1 Bft) O 95 0 min 0,000 mm 0,0 UV-I 32 W/m 14,9 C 1,6 km/h (1 Bft)
12.09.2016 18:27 22,8 C 22,8 C 60 % 1015,7 hPa 0,0 mm 1,5 km/h (1 Bft) O 95 0 min 0,000 mm 0,0 UV-I 30 W/m 14,6 C 3,2 km/h (1 Bft)
12.09.2016 18:28 22,8 C 22,8 C 60 % 1015,7 hPa 0,0 mm 1,3 km/h (1 Bft) O 95 0 min 0,000 mm 0,0 UV-I 32 W/m 14,6 C 3,2 km/h (1 Bft)
12.09.2016 18:29 22,7 C 22,8 C 60 % 1015,7 hPa 0,0 mm 1,5 km/h (1 Bft) O 95 0 min 0,000 mm 0,0 UV-I 32 W/m 14,5 C 3,2 km/h (1 Bft)
12.09.2016 18:30 22,7 C 22,7 C 60 % 1015,7 hPa 0,0 mm 2,3 km/h (1 Bft) O 95 0 min 0,000 mm 0,0 UV-I 30 W/m 14,5 C 3,2 km/h (1 Bft)
12.09.2016 18:31 22,7 C 22,7 C 61 % 1015,7 hPa 0,0 mm 1,5 km/h (1 Bft) O 95 0 min 0,000 mm 0,0 UV-I 30 W/m 14,8 C 3,2 km/h (1 Bft)
12.09.2016 18:32 22,6 C 22,7 C 61 % 1015,7 hPa 0,0 mm 2,3 km/h (1 Bft) O 95 0 min 0,000 mm 0,0 UV-I 30 W/m 14,7 C 3,2 km/h (1 Bft)
12.09.2016 18:33 22,6 C 22,6 C 61 % 1015,7 hPa 0,0 mm 2,1 km/h (1 Bft) O 95 0 min 0,000 mm 0,0 UV-I 28 W/m 14,7 C 3,2 km/h (1 Bft)
12.09.2016 18:34 22,6 C 22,6 C 62 % 1015,7 hPa 0,0 mm 2,6 km/h (1 Bft) O 95 0 min 0,000 mm 0,0 UV-I 28 W/m 14,9 C 3,2 km/h (1 Bft)
12.09.2016 18:35 22,5 C 22,6 C 62 % 1015,7 hPa 0,0 mm 2,2 km/h (1 Bft) O 95 0 min 0,000 mm 0,0 UV-I 28 W/m 14,8 C 3,2 km/h (1 Bft)
12.09.2016 18:36 22,5 C 22,6 C 62 % 1015,7 hPa 0,0 mm 2,3 km/h (1 Bft) O 95 0 min 0,000 mm 0,0 UV-I 28 W/m 14,8 C 3,2 km/h (1 Bft)
12.09.2016 18:37 22,5 C 22,5 C 63 % 1015,7 hPa 0,0 mm 2,7 km/h (1 Bft) O 95 0 min 0,000 mm 0,0 UV-I 26 W/m 15,1 C 3,2 km/h (1 Bft)
12.09.2016 18:38 22,4 C 22,5 C 64 % 1015,7 hPa 0,0 mm 2,3 km/h (1 Bft) O 95 0 min 0,000 mm 0,0 UV-I 26 W/m 15,2 C 3,2 km/h (1 Bft)
12.09.2016 18:39 22,4 C 22,4 C 63 % 1015,7 hPa 0,0 mm 2,0 km/h (1 Bft) O 95 0 min 0,000 mm 0,0 UV-I 26 W/m 15,0 C 3,2 km/h (1 Bft)
12.09.2016 18:40 22,3 C 22,4 C 65 % 1015,7 hPa 0,0 mm 2,5 km/h (1 Bft) O 95 0 min 0,000 mm 0,0 UV-I 26 W/m 15,4 C 3,2 km/h (1 Bft)
12.09.2016 18:41 22,2 C 22,3 C 64 % 1015,7 hPa 0,0 mm 2,3 km/h (1 Bft) O 95 0 min 0,000 mm 0,0 UV-I 26 W/m 15,1 C 3,2 km/h (1 Bft)
12.09.2016 18:42 22,2 C 22,2 C 66 % 1015,7 hPa 0,0 mm 2,3 km/h (1 Bft) O 95 0 min 0,000 mm 0,0 UV-I 26 W/m 15,5 C 3,2 km/h (1 Bft)
12.09.2016 18:43 22,1 C 22,2 C 66 % 1015,7 hPa 0,0 mm 1,7 km/h (1 Bft) O 95 0 min 0,000 mm 0,0 UV-I 30 W/m 15,4 C 3,2 km/h (1 Bft)
12.09.2016 18:44 22,0 C 22,1 C 65 % 1015,6 hPa 0,0 mm 2,0 km/h (1 Bft) O 95 0 min 0,000 mm 0,0 UV-I 28 W/m 15,1 C 3,2 km/h (1 Bft)
12.09.2016 18:45 22,0 C 22,0 C 66 % 1015,6 hPa 0,0 mm 1,9 km/h (1 Bft) O 95 0 min 0,000 mm 0,0 UV-I 26 W/m 15,3 C 3,2 km/h (1 Bft)
12.09.2016 18:46 21,9 C 22,0 C 67 % 1015,6 hPa 0,0 mm 2,2 km/h (1 Bft) O 95 0 min 0,000 mm 0,0 UV-I 25 W/m 15,5 C 3,2 km/h (1 Bft)
12.09.2016 18:47 21,9 C 21,9 C 66 % 1015,7 hPa 0,0 mm 2,8 km/h (1 Bft) O 95 0 min 0,000 mm 0,0 UV-I 25 W/m 15,3 C 3,2 km/h (1 Bft)
12.09.2016 18:48 21,9 C 21,9 C 66 % 1015,6 hPa 0,0 mm 2,1 km/h (1 Bft) O 95 0 min 0,000 mm 0,0 UV-I 23 W/m 15,3 C 3,2 km/h (1 Bft)
12.09.2016 18:49 21,8 C 21,9 C 67 % 1015,7 hPa 0,0 mm 2,1 km/h (1 Bft) O 95 0 min 0,000 mm 0,0 UV-I 23 W/m 15,4 C 3,2 km/h (1 Bft)
12.09.2016 18:50 21,8 C 21,8 C 68 % 1015,7 hPa 0,0 mm 2,3 km/h (1 Bft) O 95 0 min 0,000 mm 0,0 UV-I 23 W/m 15,6 C 3,2 km/h (1 Bft)
12.09.2016 18:51 21,8 C 21,8 C 67 % 1015,6 hPa 0,0 mm 2,4 km/h (1 Bft) O 95 0 min 0,000 mm 0,0 UV-I 23 W/m 15,4 C 3,2 km/h (1 Bft)
12.09.2016 18:52 21,8 C 21,8 C 67 % 1015,7 hPa 0,0 mm 2,0 km/h (1 Bft) O 95 0 min 0,000 mm 0,0 UV-I 23 W/m 15,4 C 3,2 km/h (1 Bft)
12.09.2016 18:53 21,7 C 21,8 C 68 % 1015,7 hPa 0,0 mm 2,4 km/h (1 Bft) O 95 0 min 0,000 mm 0,0 UV-I 21 W/m 15,5 C 3,2 km/h (1 Bft)
12.09.2016 18:54 21,6 C 21,7 C 68 % 1015,7 hPa 0,0 mm 2,1 km/h (1 Bft) O 95 0 min 0,000 mm 0,0 UV-I 21 W/m 15,4 C 3,2 km/h (1 Bft)
12.09.2016 18:55 21,6 C 21,6 C 68 % 1015,7 hPa 0,0 mm 2,5 km/h (1 Bft) O 95 0 min 0,000 mm 0,0 UV-I 23 W/m 15,4 C 3,2 km/h (1 Bft)
12.09.2016 18:56 21,5 C 21,6 C 68 % 1015,7 hPa 0,0 mm 2,1 km/h (1 Bft) O 95 0 min 0,000 mm 0,0 UV-I 25 W/m 15,3 C 3,2 km/h (1 Bft)
12.09.2016 18:57 21,4 C 21,5 C 68 % 1015,7 hPa 0,0 mm 1,9 km/h (1 Bft) O 95 0 min 0,000 mm 0,0 UV-I 23 W/m 15,2 C 3,2 km/h (1 Bft)
12.09.2016 18:58 21,4 C 21,4 C 69 % 1015,6 hPa 0,0 mm 1,9 km/h (1 Bft) O 95 0 min 0,000 mm 0,0 UV-I 21 W/m 15,5 C 3,2 km/h (1 Bft)
12.09.2016 18:59 21,3 C 21,4 C 68 % 1015,7 hPa 0,0 mm 1,9 km/h (1 Bft) O 95 0 min 0,000 mm 0,0 UV-I 21 W/m 15,1 C 3,2 km/h (1 Bft)
12.09.2016 19:00 21,3 C 21,3 C 68 % 1015,7 hPa 0,0 mm 2,0 km/h (1 Bft) O 95 0 min 0,000 mm 0,0 UV-I 21 W/m 15,1 C 3,2 km/h (1 Bft)
12.09.2016 19:01 21,3 C 21,3 C 68 % 1015,6 hPa 0,0 mm 1,7 km/h (1 Bft) O 95 0 min 0,025 mm 0,0 UV-I 19 W/m 15,1 C 3,2 km/h (1 Bft)
12.09.2016 19:02 21,2 C 21,3 C 69 % 1015,6 hPa 0,0 mm 1,9 km/h (1 Bft) O 95 0 min 0,000 mm 0,0 UV-I 19 W/m 15,3 C 3,2 km/h (1 Bft)
12.09.2016 19:03 21,2 C 21,2 C 68 % 1015,7 hPa 0,0 mm 1,7 km/h (1 Bft) O 95 0 min 0,000 mm 0,0 UV-I 19 W/m 15,1 C 3,2 km/h (1 Bft)
12.09.2016 19:04 21,1 C 21,2 C 69 % 1015,6 hPa 0,0 mm 0,7 km/h (0 Bft) O 95 0 min 0,000 mm 0,0 UV-I 19 W/m 15,2 C 1,6 km/h (1 Bft)
12.09.2016 19:05 21,0 C 21,1 C 68 % 1015,6 hPa 0,0 mm 1,4 km/h (1 Bft) O 95 0 min 0,000 mm 0,0 UV-I 19 W/m 14,9 C 3,2 km/h (1 Bft)
12.09.2016 19:06 21,0 C 21,1 C 69 % 1015,6 hPa 0,0 mm 1,0 km/h (0 Bft) O 95 0 min 0,000 mm 0,0 UV-I 18 W/m 15,1 C 1,6 km/h (1 Bft)
12.09.2016 19:07 20,9 C 21,0 C 69 % 1015,6 hPa 0,0 mm 1,5 km/h (1 Bft) O 95 0 min 0,000 mm 0,0 UV-I 18 W/m 15,0 C 3,2 km/h (1 Bft)
12.09.2016 19:08 20,9 C 21,0 C 68 % 1015,7 hPa 0,0 mm 1,7 km/h (1 Bft) O 95 0 min 0,000 mm 0,0 UV-I 16 W/m 14,8 C 3,2 km/h (1 Bft)
12.09.2016 19:09 20,9 C 20,9 C 69 % 1015,7 hPa 0,0 mm 1,9 km/h (1 Bft) O 95 0 min 0,000 mm 0,0 UV-I 16 W/m 15,0 C 3,2 km/h (1 Bft)
12.09.2016 19:10 20,9 C 20,9 C 69 % 1015,7 hPa 0,0 mm 1,6 km/h (1 Bft) O 95 0 min 0,000 mm 0,0 UV-I 16 W/m 15,0 C 3,2 km/h (1 Bft)
12.09.2016 19:11 20,8 C 20,9 C 69 % 1015,7 hPa 0,0 mm 2,0 km/h (1 Bft) O 95 0 min 0,000 mm 0,0 UV-I 14 W/m 14,9 C 3,2 km/h (1 Bft)
12.09.2016 19:12 20,8 C 20,8 C 69 % 1015,7 hPa 0,0 mm 1,9 km/h (1 Bft) O 95 0 min 0,000 mm 0,0 UV-I 14 W/m 14,9 C 3,2 km/h (1 Bft)
12.09.2016 19:13 20,7 C 20,8 C 69 % 1015,6 hPa 0,0 mm 2,1 km/h (1 Bft) O 95 0 min 0,000 mm 0,0 UV-I 14 W/m 14,8 C 3,2 km/h (1 Bft)
12.09.2016 19:14 20,7 C 20,7 C 70 % 1015,7 hPa 0,0 mm 2,0 km/h (1 Bft) O 95 0 min 0,000 mm 0,0 UV-I 12 W/m 15,0 C 3,2 km/h (1 Bft)
12.09.2016 19:15 20,6 C 20,7 C 70 % 1015,7 hPa 0,0 mm 1,7 km/h (1 Bft) O 95 0 min 0,000 mm 0,0 UV-I 12 W/m 14,9 C 3,2 km/h (1 Bft)
12.09.2016 19:16 20,6 C 20,6 C 70 % 1015,7 hPa 0,0 mm 1,9 km/h (1 Bft) O 95 0 min 0,000 mm 0,0 UV-I 12 W/m 14,9 C 3,2 km/h (1 Bft)
12.09.2016 19:17 20,6 C 20,6 C 69 % 1015,6 hPa 0,0 mm 2,2 km/h (1 Bft) O 95 0 min 0,000 mm 0,0 UV-I 12 W/m 14,7 C 3,2 km/h (1 Bft)
12.09.2016 19:18 20,5 C 20,6 C 70 % 1015,7 hPa 0,0 mm 1,8 km/h (1 Bft) O 95 0 min 0,000 mm 0,0 UV-I 11 W/m 14,8 C 3,2 km/h (1 Bft)
12.09.2016 19:19 20,4 C 20,5 C 70 % 1015,7 hPa 0,0 mm 1,9 km/h (1 Bft) O 95 0 min 0,000 mm 0,0 UV-I 11 W/m 14,7 C 3,2 km/h (1 Bft)
12.09.2016 19:20 20,3 C 20,4 C 71 % 1015,7 hPa 0,0 mm 1,2 km/h (1 Bft) O 95 0 min 0,000 mm 0,0 UV-I 9 W/m 14,9 C 3,2 km/h (1 Bft)
12.09.2016 19:21 20,3 C 20,3 C 70 % 1015,7 hPa 0,0 mm 1,7 km/h (1 Bft) O 95 0 min 0,000 mm 0,0 UV-I 9 W/m 14,6 C 3,2 km/h (1 Bft)
12.09.2016 19:22 20,2 C 20,3 C 70 % 1015,7 hPa 0,0 mm 1,2 km/h (1 Bft) O 95 0 min 0,000 mm 0,0 UV-I 7 W/m 14,5 C 1,6 km/h (1 Bft)
12.09.2016 19:23 20,1 C 20,2 C 71 % 1015,7 hPa 0,0 mm 1,5 km/h (1 Bft) O 95 0 min 0,000 mm 0,0 UV-I 7 W/m 14,7 C 1,6 km/h (1 Bft)
12.09.2016 19:24 20,0 C 20,1 C 72 % 1015,7 hPa 0,0 mm 1,5 km/h (1 Bft) O 95 0 min 0,000 mm 0,0 UV-I 7 W/m 14,8 C 1,6 km/h (1 Bft)
12.09.2016 19:25 19,8 C 20,0 C 72 % 1015,7 hPa 0,0 mm 1,5 km/h (1 Bft) O 95 0 min 0,000 mm 0,0 UV-I 5 W/m 14,6 C 3,2 km/h (1 Bft)
12.09.2016 19:26 19,8 C 19,8 C 73 % 1015,7 hPa 0,0 mm 2,4 km/h (1 Bft) SO 146 0 min 0,000 mm 0,0 UV-I 5 W/m 14,8 C 4,8 km/h (1 Bft)
12.09.2016 19:27 19,6 C 19,8 C 74 % 1015,7 hPa 0,0 mm 1,9 km/h (1 Bft) SO 146 0 min 0,000 mm 0,0 UV-I 5 W/m 14,8 C 3,2 km/h (1 Bft)
12.09.2016 19:28 19,4 C 19,6 C 75 % 1015,7 hPa 0,0 mm 2,7 km/h (1 Bft) SO 146 0 min 0,000 mm 0,0 UV-I 5 W/m 14,8 C 3,2 km/h (1 Bft)
12.09.2016 19:29 19,2 C 19,4 C 75 % 1015,7 hPa 0,0 mm 3,0 km/h (1 Bft) S-SO 149 0 min 0,000 mm 0,0 UV-I 0 W/m 14,7 C 3,2 km/h (1 Bft)
12.09.2016 19:30 19,1 C 19,2 C 76 % 1015,7 hPa 0,0 mm 3,1 km/h (1 Bft) S-SO 149 0 min 0,000 mm 0,0 UV-I 0 W/m 14,8 C 4,8 km/h (1 Bft)
12.09.2016 19:31 18,9 C 19,1 C 76 % 1015,7 hPa 0,0 mm 2,9 km/h (1 Bft) S-SO 149 0 min 0,000 mm 0,0 UV-I 0 W/m 14,6 C 3,2 km/h (1 Bft)
12.09.2016 19:32 18,8 C 18,9 C 77 % 1015,7 hPa 0,0 mm 2,5 km/h (1 Bft) S-SO 149 0 min 0,000 mm 0,0 UV-I 0 W/m 14,7 C 4,8 km/h (1 Bft)
12.09.2016 19:33 18,6 C 18,8 C 77 % 1015,7 hPa 0,0 mm 1,2 km/h (1 Bft) S-SO 149 0 min 0,000 mm 0,0 UV-I 0 W/m 14,5 C 1,6 km/h (1 Bft)
12.09.2016 19:34 18,4 C 18,6 C 77 % 1015,7 hPa 0,0 mm 0,9 km/h (0 Bft) S-SO 149 0 min 0,000 mm 0,0 UV-I 0 W/m 14,3 C 1,6 km/h (1 Bft)
12.09.2016 19:35 18,3 C 18,4 C 78 % 1015,7 hPa 0,0 mm 0,4 km/h (0 Bft) S-SO 149 0 min 0,000 mm 0,0 UV-I 0 W/m 14,4 C 1,6 km/h (1 Bft)
12.09.2016 19:36 18,2 C 18,3 C 78 % 1015,7 hPa 0,0 mm 0,7 km/h (0 Bft) S-SO 149 0 min 0,000 mm 0,0 UV-I 0 W/m 14,3 C 1,6 km/h (1 Bft)
12.09.2016 19:37 18,1 C 18,2 C 78 % 1015,7 hPa 0,0 mm 1,1 km/h (1 Bft) S-SO 149 0 min 0,000 mm 0,0 UV-I 0 W/m 14,2 C 1,6 km/h (1 Bft)
12.09.2016 19:38 18,1 C 18,1 C 79 % 1015,7 hPa 0,0 mm 1,6 km/h (1 Bft) S-SO 149 0 min 0,000 mm 0,0 UV-I 0 W/m 14,4 C 3,2 km/h (1 Bft)
12.09.2016 19:39 18,1 C 18,1 C 79 % 1015,7 hPa 0,0 mm 2,1 km/h (1 Bft) S-SO 149 0 min 0,000 mm 0,0 UV-I 0 W/m 14,4 C 3,2 km/h (1 Bft)
12.09.2016 19:40 18,0 C 18,1 C 79 % 1015,8 hPa 0,0 mm 2,1 km/h (1 Bft) S-SO 150 0 min 0,000 mm 0,0 UV-I 0 W/m 14,3 C 4,8 km/h (1 Bft)
12.09.2016 19:41 17,9 C 18,0 C 79 % 1015,8 hPa 0,0 mm 2,3 km/h (1 Bft) S-SO 150 0 min 0,000 mm 0,0 UV-I 0 W/m 14,2 C 4,8 km/h (1 Bft)
12.09.2016 19:42 17,8 C 17,9 C 80 % 1015,7 hPa 0,0 mm 2,3 km/h (1 Bft) S-SO 150 0 min 0,000 mm 0,0 UV-I 0 W/m 14,3 C 3,2 km/h (1 Bft)
12.09.2016 19:43 17,7 C 17,8 C 80 % 1015,7 hPa 0,0 mm 2,3 km/h (1 Bft) S-SO 150 0 min 0,000 mm 0,0 UV-I 0 W/m 14,2 C 3,2 km/h (1 Bft)
12.09.2016 19:44 17,6 C 17,7 C 80 % 1015,7 hPa 0,0 mm 2,3 km/h (1 Bft) S-SO 150 0 min 0,000 mm 0,0 UV-I 0 W/m 14,1 C 3,2 km/h (1 Bft)
12.09.2016 19:45 17,4 C 17,6 C 81 % 1015,8 hPa 0,0 mm 1,7 km/h (1 Bft) S-SO 150 0 min 0,000 mm 0,0 UV-I 0 W/m 14,1 C 3,2 km/h (1 Bft)
12.09.2016 19:46 17,3 C 17,4 C 81 % 1015,8 hPa 0,0 mm 1,2 km/h (1 Bft) S-SO 150 0 min 0,000 mm 0,0 UV-I 0 W/m 14,0 C 3,2 km/h (1 Bft)
12.09.2016 19:47 17,3 C 17,3 C 82 % 1015,8 hPa 0,0 mm 0,2 km/h (0 Bft) S-SO 150 0 min 0,000 mm 0,0 UV-I 0 W/m 14,2 C 1,6 km/h (1 Bft)
12.09.2016 19:48 17,2 C 17,3 C 82 % 1015,8 hPa 0,0 mm 0,9 km/h (0 Bft) S-SO 150 0 min 0,000 mm 0,0 UV-I 0 W/m 14,1 C 1,6 km/h (1 Bft)
12.09.2016 19:49 17,2 C 17,2 C 82 % 1015,8 hPa 0,0 mm 0,5 km/h (0 Bft) S-SO 150 0 min 0,000 mm 0,0 UV-I 0 W/m 14,1 C 1,6 km/h (1 Bft)
12.09.2016 19:50 17,1 C 17,2 C 82 % 1015,8 hPa 0,0 mm 0,9 km/h (0 Bft) S-SO 150 0 min 0,000 mm 0,0 UV-I 0 W/m 14,0 C 1,6 km/h (1 Bft)
12.09.2016 19:51 17,1 C 17,2 C 82 % 1015,8 hPa 0,0 mm 1,6 km/h (1 Bft) S-SO 150 0 min 0,000 mm 0,0 UV-I 0 W/m 14,0 C 3,2 km/h (1 Bft)
12.09.2016 19:52 17,2 C 17,2 C 82 % 1015,8 hPa 0,0 mm 0,8 km/h (0 Bft) S-SO 150 0 min 0,000 mm 0,0 UV-I 0 W/m 14,1 C 1,6 km/h (1 Bft)
12.09.2016 19:53 17,1 C 17,2 C 82 % 1015,8 hPa 0,0 mm 1,3 km/h (1 Bft) S-SO 150 0 min 0,000 mm 0,0 UV-I 0 W/m 14,0 C 3,2 km/h (1 Bft)
12.09.2016 19:54 17,1 C 17,1 C 82 % 1015,8 hPa 0,0 mm 1,3 km/h (1 Bft) S-SO 150 0 min 0,000 mm 0,0 UV-I 0 W/m 14,0 C 3,2 km/h (1 Bft)
12.09.2016 19:55 17,1 C 17,1 C 82 % 1016,0 hPa 0,0 mm 1,6 km/h (1 Bft) S-SO 150 0 min 0,000 mm 0,0 UV-I 0 W/m 14,0 C 3,2 km/h (1 Bft)
12.09.2016 19:56 17,1 C 17,1 C 82 % 1016,0 hPa 0,0 mm 1,8 km/h (1 Bft) S-SO 150 0 min 0,000 mm 0,0 UV-I 0 W/m 14,0 C 4,8 km/h (1 Bft)
12.09.2016 19:57 17,0 C 17,1 C 82 % 1015,8 hPa 0,0 mm 1,6 km/h (1 Bft) S-SO 150 0 min 0,000 mm 0,0 UV-I 0 W/m 13,9 C 3,2 km/h (1 Bft)
12.09.2016 19:58 17,0 C 17,1 C 82 % 1015,9 hPa 0,0 mm 1,7 km/h (1 Bft) S-SO 150 0 min 0,000 mm 0,0 UV-I 0 W/m 13,9 C 3,2 km/h (1 Bft)
12.09.2016 19:59 17,0 C 17,0 C 82 % 1015,9 hPa 0,0 mm 1,1 km/h (1 Bft) S-SO 150 0 min 0,000 mm 0,0 UV-I 0 W/m 13,9 C 3,2 km/h (1 Bft)
12.09.2016 20:00 17,1 C 17,1 C 82 % 1015,9 hPa 0,0 mm 0,7 km/h (0 Bft) S-SO 150 0 min 0,026 mm 0,0 UV-I 0 W/m 14,0 C 3,2 km/h (1 Bft)
12.09.2016 20:01 17,2 C 17,2 C 81 % 1015,9 hPa 0,0 mm 1,6 km/h (1 Bft) S-SO 150 0 min 0,000 mm 0,0 UV-I 0 W/m 13,9 C 3,2 km/h (1 Bft)
12.09.2016 20:02 17,2 C 17,2 C 81 % 1015,9 hPa 0,0 mm 0,5 km/h (0 Bft) S-SO 150 0 min 0,000 mm 0,0 UV-I 0 W/m 13,9 C 1,6 km/h (1 Bft)
12.09.2016 20:03 17,2 C 17,2 C 81 % 1015,9 hPa 0,0 mm 1,7 km/h (1 Bft) S-SO 150 0 min 0,000 mm 0,0 UV-I 0 W/m 13,9 C 3,2 km/h (1 Bft)
12.09.2016 20:04 17,2 C 17,2 C 81 % 1015,9 hPa 0,0 mm 1,0 km/h (0 Bft) S-SO 150 0 min 0,000 mm 0,0 UV-I 0 W/m 13,9 C 1,6 km/h (1 Bft)
12.09.2016 20:05 17,1 C 17,2 C 81 % 1015,9 hPa 0,0 mm 0,6 km/h (0 Bft) S-SO 150 0 min 0,000 mm 0,0 UV-I 0 W/m 13,8 C 1,6 km/h (1 Bft)
12.09.2016 20:06 17,1 C 17,1 C 81 % 1015,9 hPa 0,0 mm 1,9 km/h (1 Bft) S-SO 150 0 min 0,000 mm 0,0 UV-I 0 W/m 13,8 C 3,2 km/h (1 Bft)
12.09.2016 20:07 17,1 C 17,1 C 81 % 1015,9 hPa 0,0 mm 1,5 km/h (1 Bft) S-SO 150 0 min 0,000 mm 0,0 UV-I 0 W/m 13,8 C 3,2 km/h (1 Bft)
12.09.2016 20:08 17,0 C 17,1 C 81 % 1015,9 hPa 0,0 mm 1,7 km/h (1 Bft) S-SO 150 0 min 0,000 mm 0,0 UV-I 0 W/m 13,7 C 3,2 km/h (1 Bft)
12.09.2016 20:09 16,9 C 17,1 C 82 % 1015,9 hPa 0,0 mm 1,9 km/h (1 Bft) S-SO 150 0 min 0,000 mm 0,0 UV-I 0 W/m 13,8 C 3,2 km/h (1 Bft)
12.09.2016 20:10 16,9 C 16,9 C 82 % 1016,0 hPa 0,0 mm 1,6 km/h (1 Bft) S-SO 150 0 min 0,000 mm 0,0 UV-I 0 W/m 13,8 C 3,2 km/h (1 Bft)
12.09.2016 20:11 16,9 C 16,9 C 82 % 1016,1 hPa 0,0 mm 0,8 km/h (0 Bft) S-SO 150 0 min 0,000 mm 0,0 UV-I 0 W/m 13,8 C 1,6 km/h (1 Bft)
12.09.2016 20:12 16,8 C 16,9 C 82 % 1016,0 hPa 0,0 mm 1,7 km/h (1 Bft) S-SO 150 0 min 0,000 mm 0,0 UV-I 0 W/m 13,7 C 3,2 km/h (1 Bft)
12.09.2016 20:13 16,8 C 16,8 C 82 % 1016,1 hPa 0,0 mm 1,0 km/h (0 Bft) S-SO 150 0 min 0,000 mm 0,0 UV-I 0 W/m 13,7 C 3,2 km/h (1 Bft)
12.09.2016 20:14 16,8 C 16,8 C 82 % 1016,1 hPa 0,0 mm 1,6 km/h (1 Bft) S-SO 150 0 min 0,000 mm 0,0 UV-I 0 W/m 13,7 C 3,2 km/h (1 Bft)
12.09.2016 20:15 16,8 C 16,8 C 82 % 1016,1 hPa 0,0 mm 0,5 km/h (0 Bft) S-SO 150 0 min 0,000 mm 0,0 UV-I 0 W/m 13,7 C 1,6 km/h (1 Bft)
12.09.2016 20:16 16,8 C 16,8 C 82 % 1016,1 hPa 0,0 mm 0,3 km/h (0 Bft) S-SO 150 0 min 0,000 mm 0,0 UV-I 0 W/m 13,7 C 1,6 km/h (1 Bft)
12.09.2016 20:17 16,8 C 16,8 C 82 % 1016,1 hPa 0,0 mm 0,5 km/h (0 Bft) S-SO 150 0 min 0,000 mm 0,0 UV-I 0 W/m 13,7 C 1,6 km/h (1 Bft)
12.09.2016 20:18 17,0 C 17,0 C 82 % 1016,1 hPa 0,0 mm 0,4 km/h (0 Bft) S-SO 150 0 min 0,000 mm 0,0 UV-I 0 W/m 13,9 C 1,6 km/h (1 Bft)
12.09.2016 20:19 17,1 C 17,1 C 82 % 1016,1 hPa 0,0 mm 0,1 km/h (0 Bft) S-SO 150 0 min 0,000 mm 0,0 UV-I 0 W/m 14,0 C 1,6 km/h (1 Bft)
12.09.2016 20:20 17,2 C 17,2 C 81 % 1016,2 hPa 0,0 mm 0,5 km/h (0 Bft) S-SO 150 0 min 0,000 mm 0,0 UV-I 0 W/m 13,9 C 1,6 km/h (1 Bft)
12.09.2016 20:21 17,3 C 17,3 C 81 % 1016,2 hPa 0,0 mm 0,9 km/h (0 Bft) S-SO 150 0 min 0,000 mm 0,0 UV-I 0 W/m 14,0 C 1,6 km/h (1 Bft)
12.09.2016 20:22 17,3 C 17,3 C 80 % 1016,1 hPa 0,0 mm 1,1 km/h (1 Bft) S-SO 150 0 min 0,000 mm 0,0 UV-I 0 W/m 13,8 C 3,2 km/h (1 Bft)
12.09.2016 20:23 17,3 C 17,3 C 80 % 1016,2 hPa 0,0 mm 1,5 km/h (1 Bft) S-SO 150 0 min 0,000 mm 0,0 UV-I 0 W/m 13,8 C 1,6 km/h (1 Bft)
12.09.2016 20:24 17,2 C 17,3 C 80 % 1016,2 hPa 0,0 mm 1,0 km/h (0 Bft) S-SO 150 0 min 0,000 mm 0,0 UV-I 0 W/m 13,7 C 1,6 km/h (1 Bft)
12.09.2016 20:25 17,2 C 17,2 C 80 % 1016,2 hPa 0,0 mm 0,0 km/h (0 Bft) S-SO 150 0 min 0,000 mm 0,0 UV-I 0 W/m 13,7 C 0,0 km/h (0 Bft)
12.09.2016 20:26 17,1 C 17,2 C 80 % 1016,2 hPa 0,0 mm 0,0 km/h (0 Bft) S-SO 150 0 min 0,000 mm 0,0 UV-I 0 W/m 13,6 C 0,0 km/h (0 Bft)
12.09.2016 20:27 17,1 C 17,1 C 81 % 1016,2 hPa 0,0 mm 0,0 km/h (0 Bft) S-SO 150 0 min 0,000 mm 0,0 UV-I 0 W/m 13,8 C 0,0 km/h (0 Bft)
12.09.2016 20:28 17,2 C 17,2 C 80 % 1016,2 hPa 0,0 mm 0,0 km/h (0 Bft) S-SO 150 0 min 0,000 mm 0,0 UV-I 0 W/m 13,7 C 0,0 km/h (0 Bft)
12.09.2016 20:29 17,1 C 17,2 C 80 % 1016,2 hPa 0,0 mm 0,0 km/h (0 Bft) S-SO 150 0 min 0,000 mm 0,0 UV-I 0 W/m 13,6 C 0,0 km/h (0 Bft)
12.09.2016 20:30 17,1 C 17,1 C 80 % 1016,3 hPa 0,0 mm 0,0 km/h (0 Bft) S-SO 150 0 min 0,000 mm 0,0 UV-I 0 W/m 13,6 C 0,0 km/h (0 Bft)
12.09.2016 20:31 17,1 C 17,1 C 80 % 1016,3 hPa 0,0 mm 0,0 km/h (0 Bft) S-SO 150 0 min 0,000 mm 0,0 UV-I 0 W/m 13,6 C 0,0 km/h (0 Bft)
12.09.2016 20:32 17,0 C 17,1 C 80 % 1016,3 hPa 0,0 mm 0,0 km/h (0 Bft) S-SO 150 0 min 0,000 mm 0,0 UV-I 0 W/m 13,5 C 0,0 km/h (0 Bft)
12.09.2016 20:33 17,0 C 17,0 C 80 % 1016,3 hPa 0,0 mm 0,0 km/h (0 Bft) S-SO 150 0 min 0,000 mm 0,0 UV-I 0 W/m 13,5 C 0,0 km/h (0 Bft)
12.09.2016 20:34 17,0 C 17,0 C 80 % 1016,3 hPa 0,0 mm 0,0 km/h (0 Bft) S-SO 150 0 min 0,000 mm 0,0 UV-I 0 W/m 13,5 C 0,0 km/h (0 Bft)
12.09.2016 20:35 17,0 C 17,0 C 80 % 1016,3 hPa 0,0 mm 0,0 km/h (0 Bft) S-SO 150 0 min 0,000 mm 0,0 UV-I 0 W/m 13,5 C 0,0 km/h (0 Bft)
12.09.2016 20:36 17,0 C 17,0 C 80 % 1016,3 hPa 0,0 mm 0,0 km/h (0 Bft) S-SO 150 0 min 0,000 mm 0,0 UV-I 0 W/m 13,5 C 0,0 km/h (0 Bft)
12.09.2016 20:37 17,0 C 17,0 C 80 % 1016,3 hPa 0,0 mm 0,0 km/h (0 Bft) S-SO 150 0 min 0,000 mm 0,0 UV-I 0 W/m 13,5 C 0,0 km/h (0 Bft)
12.09.2016 20:38 17,0 C 17,0 C 80 % 1016,3 hPa 0,0 mm 0,0 km/h (0 Bft) S-SO 150 0 min 0,000 mm 0,0 UV-I 0 W/m 13,5 C 0,0 km/h (0 Bft)
12.09.2016 20:39 17,0 C 17,0 C 80 % 1016,3 hPa 0,0 mm 0,0 km/h (0 Bft) S-SO 150 0 min 0,000 mm 0,0 UV-I 0 W/m 13,5 C 0,0 km/h (0 Bft)
12.09.2016 20:40 17,0 C 17,0 C 80 % 1016,3 hPa 0,0 mm 0,0 km/h (0 Bft) S-SO 150 0 min 0,000 mm 0,0 UV-I 0 W/m 13,5 C 0,0 km/h (0 Bft)
12.09.2016 20:41 17,1 C 17,1 C 80 % 1016,3 hPa 0,0 mm 0,0 km/h (0 Bft) S-SO 150 0 min 0,000 mm 0,0 UV-I 0 W/m 13,6 C 0,0 km/h (0 Bft)
12.09.2016 20:42 17,1 C 17,1 C 80 % 1016,3 hPa 0,0 mm 0,0 km/h (0 Bft) S-SO 150 0 min 0,000 mm 0,0 UV-I 0 W/m 13,6 C 0,0 km/h (0 Bft)
12.09.2016 20:43 17,1 C 17,1 C 80 % 1016,3 hPa 0,0 mm 0,0 km/h (0 Bft) S-SO 150 0 min 0,000 mm 0,0 UV-I 0 W/m 13,6 C 0,0 km/h (0 Bft)
12.09.2016 20:44 17,2 C 17,2 C 80 % 1016,3 hPa 0,0 mm 0,0 km/h (0 Bft) S-SO 150 0 min 0,000 mm 0,0 UV-I 0 W/m 13,7 C 0,0 km/h (0 Bft)
12.09.2016 20:45 17,2 C 17,2 C 79 % 1016,3 hPa 0,0 mm 0,0 km/h (0 Bft) S-SO 150 0 min 0,000 mm 0,0 UV-I 0 W/m 13,5 C 0,0 km/h (0 Bft)
12.09.2016 20:46 17,2 C 17,2 C 80 % 1016,3 hPa 0,0 mm 0,0 km/h (0 Bft) S-SO 150 0 min 0,000 mm 0,0 UV-I 0 W/m 13,7 C 0,0 km/h (0 Bft)
12.09.2016 20:47 17,2 C 17,2 C 79 % 1016,3 hPa 0,0 mm 0,0 km/h (0 Bft) S-SO 150 0 min 0,000 mm 0,0 UV-I 0 W/m 13,5 C 0,0 km/h (0 Bft)
12.09.2016 20:48 17,1 C 17,2 C 80 % 1016,3 hPa 0,0 mm 0,0 km/h (0 Bft) S-SO 150 0 min 0,000 mm 0,0 UV-I 0 W/m 13,6 C 0,0 km/h (0 Bft)
12.09.2016 20:49 17,1 C 17,2 C 79 % 1016,3 hPa 0,0 mm 0,0 km/h (0 Bft) S-SO 150 0 min 0,000 mm 0,0 UV-I 0 W/m 13,4 C 0,0 km/h (0 Bft)
12.09.2016 20:50 17,1 C 17,1 C 80 % 1016,3 hPa 0,0 mm 0,0 km/h (0 Bft) S-SO 150 0 min 0,000 mm 0,0 UV-I 0 W/m 13,6 C 0,0 km/h (0 Bft)
12.09.2016 20:51 17,1 C 17,1 C 79 % 1016,3 hPa 0,0 mm 0,0 km/h (0 Bft) S-SO 150 0 min 0,000 mm 0,0 UV-I 0 W/m 13,4 C 0,0 km/h (0 Bft)
12.09.2016 20:52 17,1 C 17,1 C 80 % 1016,2 hPa 0,0 mm 0,0 km/h (0 Bft) S-SO 150 0 min 0,000 mm 0,0 UV-I 0 W/m 13,6 C 0,0 km/h (0 Bft)
12.09.2016 20:53 17,1 C 17,1 C 80 % 1016,3 hPa 0,0 mm 0,0 km/h (0 Bft) S-SO 150 0 min 0,000 mm 0,0 UV-I 0 W/m 13,6 C 0,0 km/h (0 Bft)
12.09.2016 20:54 17,1 C 17,1 C 80 % 1016,4 hPa 0,0 mm 0,0 km/h (0 Bft) S-SO 150 0 min 0,000 mm 0,0 UV-I 0 W/m 13,6 C 0,0 km/h (0 Bft)
12.09.2016 20:55 17,1 C 17,1 C 80 % 1016,3 hPa 0,0 mm 0,0 km/h (0 Bft) S-SO 150 0 min 0,000 mm 0,0 UV-I 0 W/m 13,6 C 0,0 km/h (0 Bft)
12.09.2016 20:56 17,0 C 17,1 C 81 % 1016,3 hPa 0,0 mm 0,0 km/h (0 Bft) S-SO 150 0 min 0,000 mm 0,0 UV-I 0 W/m 13,7 C 0,0 km/h (0 Bft)
12.09.2016 20:57 16,9 C 17,0 C 81 % 1016,3 hPa 0,0 mm 0,0 km/h (0 Bft) S-SO 150 0 min 0,000 mm 0,0 UV-I 0 W/m 13,6 C 0,0 km/h (0 Bft)
12.09.2016 20:58 16,9 C 16,9 C 81 % 1016,3 hPa 0,0 mm 0,0 km/h (0 Bft) S-SO 150 0 min 0,000 mm 0,0 UV-I 0 W/m 13,6 C 0,0 km/h (0 Bft)
12.09.2016 20:59 16,9 C 16,9 C 81 % 1016,4 hPa 0,0 mm 0,0 km/h (0 Bft) S-SO 150 0 min 0,000 mm 0,0 UV-I 0 W/m 13,6 C 0,0 km/h (0 Bft)
12.09.2016 21:00 16,9 C 16,9 C 82 % 1016,4 hPa 0,0 mm 0,0 km/h (0 Bft) S-SO 150 0 min 0,000 mm 0,0 UV-I 0 W/m 13,8 C 0,0 km/h (0 Bft)
12.09.2016 21:01 16,8 C 16,9 C 82 % 1016,3 hPa 0,0 mm 0,0 km/h (0 Bft) S-SO 150 0 min 0,025 mm 0,0 UV-I 0 W/m 13,7 C 0,0 km/h (0 Bft)
12.09.2016 21:02 16,8 C 16,8 C 82 % 1016,4 hPa 0,0 mm 0,0 km/h (0 Bft) S-SO 150 0 min 0,000 mm 0,0 UV-I 0 W/m 13,7 C 0,0 km/h (0 Bft)
12.09.2016 21:03 16,7 C 16,8 C 82 % 1016,4 hPa 0,0 mm 0,0 km/h (0 Bft) S-SO 150 0 min 0,000 mm 0,0 UV-I 0 W/m 13,6 C 0,0 km/h (0 Bft)
12.09.2016 21:04 16,7 C 16,7 C 82 % 1016,3 hPa 0,0 mm 0,0 km/h (0 Bft) S-SO 150 0 min 0,000 mm 0,0 UV-I 0 W/m 13,6 C 0,0 km/h (0 Bft)
12.09.2016 21:05 16,6 C 16,7 C 82 % 1016,4 hPa 0,0 mm 0,0 km/h (0 Bft) S-SO 150 0 min 0,000 mm 0,0 UV-I 0 W/m 13,5 C 0,0 km/h (0 Bft)
12.09.2016 21:06 16,6 C 16,7 C 82 % 1016,3 hPa 0,0 mm 0,0 km/h (0 Bft) S-SO 150 0 min 0,000 mm 0,0 UV-I 0 W/m 13,5 C 0,0 km/h (0 Bft)
12.09.2016 21:07 16,6 C 16,6 C 83 % 1016,3 hPa 0,0 mm 0,0 km/h (0 Bft) S-SO 150 0 min 0,000 mm 0,0 UV-I 0 W/m 13,7 C 0,0 km/h (0 Bft)
12.09.2016 21:08 16,6 C 16,6 C 82 % 1016,3 hPa 0,0 mm 0,0 km/h (0 Bft) S-SO 150 0 min 0,000 mm 0,0 UV-I 0 W/m 13,5 C 0,0 km/h (0 Bft)
12.09.2016 21:09 16,6 C 16,6 C 82 % 1016,3 hPa 0,0 mm 0,0 km/h (0 Bft) S-SO 150 0 min 0,000 mm 0,0 UV-I 0 W/m 13,5 C 0,0 km/h (0 Bft)
12.09.2016 21:10 16,6 C 16,6 C 82 % 1016,4 hPa 0,0 mm 0,0 km/h (0 Bft) S-SO 150 0 min 0,000 mm 0,0 UV-I 0 W/m 13,5 C 0,0 km/h (0 Bft)
12.09.2016 21:11 16,6 C 16,6 C 82 % 1016,4 hPa 0,0 mm 0,0 km/h (0 Bft) S-SO 150 0 min 0,000 mm 0,0 UV-I 0 W/m 13,5 C 0,0 km/h (0 Bft)
12.09.2016 21:12 16,6 C 16,6 C 82 % 1016,4 hPa 0,0 mm 0,0 km/h (0 Bft) S-SO 150 0 min 0,000 mm 0,0 UV-I 0 W/m 13,5 C 0,0 km/h (0 Bft)
12.09.2016 21:13 16,6 C 16,6 C 82 % 1016,4 hPa 0,0 mm 0,0 km/h (0 Bft) S-SO 150 0 min 0,000 mm 0,0 UV-I 0 W/m 13,5 C 0,0 km/h (0 Bft)
12.09.2016 21:14 16,7 C 16,7 C 82 % 1016,4 hPa 0,0 mm 0,0 km/h (0 Bft) S-SO 150 0 min 0,000 mm 0,0 UV-I 0 W/m 13,6 C 0,0 km/h (0 Bft)
12.09.2016 21:15 16,6 C 16,7 C 82 % 1016,4 hPa 0,0 mm 0,0 km/h (0 Bft) S-SO 150 0 min 0,000 mm 0,0 UV-I 0 W/m 13,5 C 0,0 km/h (0 Bft)
12.09.2016 21:16 16,6 C 16,6 C 82 % 1016,4 hPa 0,0 mm 0,0 km/h (0 Bft) S-SO 150 0 min 0,000 mm 0,0 UV-I 0 W/m 13,5 C 0,0 km/h (0 Bft)
12.09.2016 21:17 16,6 C 16,6 C 82 % 1016,3 hPa 0,0 mm 0,0 km/h (0 Bft) S-SO 150 0 min 0,000 mm 0,0 UV-I 0 W/m 13,5 C 0,0 km/h (0 Bft)
12.09.2016 21:18 16,5 C 16,6 C 82 % 1016,4 hPa 0,0 mm 0,0 km/h (0 Bft) S-SO 150 0 min 0,000 mm 0,0 UV-I 0 W/m 13,4 C 0,0 km/h (0 Bft)
12.09.2016 21:19 16,4 C 16,5 C 82 % 1016,4 hPa 0,0 mm 0,0 km/h (0 Bft) S-SO 150 0 min 0,000 mm 0,0 UV-I 0 W/m 13,3 C 0,0 km/h (0 Bft)
12.09.2016 21:20 16,4 C 16,4 C 82 % 1016,4 hPa 0,0 mm 0,0 km/h (0 Bft) S-SO 150 0 min 0,000 mm 0,0 UV-I 0 W/m 13,3 C 0,0 km/h (0 Bft)
12.09.2016 21:21 16,3 C 16,4 C 83 % 1016,4 hPa 0,0 mm 0,0 km/h (0 Bft) S-SO 150 0 min 0,000 mm 0,0 UV-I 0 W/m 13,4 C 0,0 km/h (0 Bft)
12.09.2016 21:22 16,3 C 16,3 C 83 % 1016,4 hPa 0,0 mm 0,0 km/h (0 Bft) S-SO 150 0 min 0,000 mm 0,0 UV-I 0 W/m 13,4 C 0,0 km/h (0 Bft)
12.09.2016 21:23 16,3 C 16,3 C 83 % 1016,4 hPa 0,0 mm 0,0 km/h (0 Bft) S-SO 150 0 min 0,000 mm 0,0 UV-I 0 W/m 13,4 C 0,0 km/h (0 Bft)
12.09.2016 21:24 16,2 C 16,3 C 84 % 1016,4 hPa 0,0 mm 0,0 km/h (0 Bft) S-SO 150 0 min 0,000 mm 0,0 UV-I 0 W/m 13,5 C 0,0 km/h (0 Bft)
12.09.2016 21:25 16,2 C 16,2 C 83 % 1016,4 hPa 0,0 mm 0,0 km/h (0 Bft) S-SO 150 0 min 0,000 mm 0,0 UV-I 0 W/m 13,3 C 0,0 km/h (0 Bft)
12.09.2016 21:26 16,1 C 16,2 C 84 % 1016,4 hPa 0,0 mm 0,0 km/h (0 Bft) S-SO 150 0 min 0,000 mm 0,0 UV-I 0 W/m 13,4 C 0,0 km/h (0 Bft)
12.09.2016 21:27 16,1 C 16,1 C 83 % 1016,4 hPa 0,0 mm 0,0 km/h (0 Bft) S-SO 150 0 min 0,000 mm 0,0 UV-I 0 W/m 13,2 C 0,0 km/h (0 Bft)
12.09.2016 21:28 16,1 C 16,1 C 83 % 1016,4 hPa 0,0 mm 0,0 km/h (0 Bft) S-SO 150 0 min 0,000 mm 0,0 UV-I 0 W/m 13,2 C 0,0 km/h (0 Bft)
12.09.2016 21:29 16,1 C 16,2 C 83 % 1016,4 hPa 0,0 mm 0,0 km/h (0 Bft) S-SO 150 0 min 0,000 mm 0,0 UV-I 0 W/m 13,2 C 0,0 km/h (0 Bft)
12.09.2016 21:30 16,2 C 16,2 C 82 % 1016,4 hPa 0,0 mm 0,0 km/h (0 Bft) S-SO 150 0 min 0,000 mm 0,0 UV-I 0 W/m 13,1 C 0,0 km/h (0 Bft)
12.09.2016 21:31 16,2 C 16,3 C 82 % 1016,4 hPa 0,0 mm 0,0 km/h (0 Bft) S-SO 150 0 min 0,000 mm 0,0 UV-I 0 W/m 13,1 C 0,0 km/h (0 Bft)
12.09.2016 21:32 16,2 C 16,3 C 82 % 1016,4 hPa 0,0 mm 0,0 km/h (0 Bft) S-SO 150 0 min 0,000 mm 0,0 UV-I 0 W/m 13,1 C 0,0 km/h (0 Bft)
12.09.2016 21:33 16,3 C 16,3 C 82 % 1016,4 hPa 0,0 mm 0,0 km/h (0 Bft) S-SO 150 0 min 0,000 mm 0,0 UV-I 0 W/m 13,2 C 0,0 km/h (0 Bft)
12.09.2016 21:34 16,2 C 16,3 C 82 % 1016,4 hPa 0,0 mm 0,0 km/h (0 Bft) S-SO 150 0 min 0,000 mm 0,0 UV-I 0 W/m 13,1 C 0,0 km/h (0 Bft)
12.09.2016 21:35 16,2 C 16,2 C 82 % 1016,4 hPa 0,0 mm 0,0 km/h (0 Bft) S-SO 150 0 min 0,000 mm 0,0 UV-I 0 W/m 13,1 C 0,0 km/h (0 Bft)
12.09.2016 21:36 16,1 C 16,2 C 82 % 1016,4 hPa 0,0 mm 0,0 km/h (0 Bft) S-SO 150 0 min 0,000 mm 0,0 UV-I 0 W/m 13,0 C 0,0 km/h (0 Bft)
12.09.2016 21:37 16,1 C 16,1 C 82 % 1016,4 hPa 0,0 mm 0,0 km/h (0 Bft) S-SO 150 0 min 0,000 mm 0,0 UV-I 0 W/m 13,0 C 0,0 km/h (0 Bft)
12.09.2016 21:38 16,0 C 16,1 C 83 % 1016,4 hPa 0,0 mm 0,0 km/h (0 Bft) S-SO 150 0 min 0,000 mm 0,0 UV-I 0 W/m 13,1 C 0,0 km/h (0 Bft)
12.09.2016 21:39 16,0 C 16,1 C 83 % 1016,4 hPa 0,0 mm 0,0 km/h (0 Bft) S-SO 150 0 min 0,000 mm 0,0 UV-I 0 W/m 13,1 C 0,0 km/h (0 Bft)
12.09.2016 21:40 15,9 C 16,0 C 83 % 1016,4 hPa 0,0 mm 0,0 km/h (0 Bft) S-SO 150 0 min 0,000 mm 0,0 UV-I 0 W/m 13,0 C 0,0 km/h (0 Bft)
12.09.2016 21:41 15,9 C 15,9 C 83 % 1016,4 hPa 0,0 mm 0,0 km/h (0 Bft) S-SO 150 0 min 0,000 mm 0,0 UV-I 0 W/m 13,0 C 0,0 km/h (0 Bft)
12.09.2016 21:42 15,8 C 15,9 C 84 % 1016,4 hPa 0,0 mm 0,0 km/h (0 Bft) S-SO 150 0 min 0,000 mm 0,0 UV-I 0 W/m 13,1 C 0,0 km/h (0 Bft)
12.09.2016 21:43 15,8 C 15,8 C 84 % 1016,4 hPa 0,0 mm 0,0 km/h (0 Bft) S-SO 150 0 min 0,000 mm 0,0 UV-I 0 W/m 13,1 C 0,0 km/h (0 Bft)
12.09.2016 21:44 15,8 C 15,9 C 83 % 1016,4 hPa 0,0 mm 0,0 km/h (0 Bft) S-SO 150 0 min 0,000 mm 0,0 UV-I 0 W/m 12,9 C 0,0 km/h (0 Bft)
12.09.2016 21:45 15,8 C 15,8 C 83 % 1016,4 hPa 0,0 mm 0,0 km/h (0 Bft) S-SO 150 0 min 0,000 mm 0,0 UV-I 0 W/m 12,9 C 0,0 km/h (0 Bft)
12.09.2016 21:46 15,8 C 15,8 C 83 % 1016,4 hPa 0,0 mm 0,0 km/h (0 Bft) S-SO 150 0 min 0,000 mm 0,0 UV-I 0 W/m 12,9 C 0,0 km/h (0 Bft)
12.09.2016 21:47 15,7 C 15,8 C 83 % 1016,4 hPa 0,0 mm 0,0 km/h (0 Bft) S-SO 150 0 min 0,000 mm 0,0 UV-I 0 W/m 12,8 C 0,0 km/h (0 Bft)
12.09.2016 21:48 15,7 C 15,7 C 84 % 1016,4 hPa 0,0 mm 0,0 km/h (0 Bft) S-SO 150 0 min 0,000 mm 0,0 UV-I 0 W/m 13,0 C 0,0 km/h (0 Bft)
12.09.2016 21:49 15,7 C 15,7 C 85 % 1016,4 hPa 0,0 mm 0,0 km/h (0 Bft) S-SO 150 0 min 0,000 mm 0,0 UV-I 0 W/m 13,2 C 0,0 km/h (0 Bft)
12.09.2016 21:50 15,6 C 15,7 C 85 % 1016,4 hPa 0,0 mm 0,0 km/h (0 Bft) S-SO 150 0 min 0,000 mm 0,0 UV-I 0 W/m 13,1 C 0,0 km/h (0 Bft)
12.09.2016 21:51 15,6 C 15,6 C 85 % 1016,4 hPa 0,0 mm 0,0 km/h (0 Bft) S-SO 150 0 min 0,000 mm 0,0 UV-I 0 W/m 13,1 C 0,0 km/h (0 Bft)
12.09.2016 21:52 15,7 C 15,7 C 84 % 1016,4 hPa 0,0 mm 0,0 km/h (0 Bft) S-SO 150 0 min 0,000 mm 0,0 UV-I 0 W/m 13,0 C 0,0 km/h (0 Bft)
12.09.2016 21:53 15,7 C 15,7 C 84 % 1016,4 hPa 0,0 mm 0,0 km/h (0 Bft) S-SO 150 0 min 0,000 mm 0,0 UV-I 0 W/m 13,0 C 0,0 km/h (0 Bft)
12.09.2016 21:54 15,7 C 15,7 C 83 % 1016,4 hPa 0,0 mm 0,0 km/h (0 Bft) S-SO 150 0 min 0,000 mm 0,0 UV-I 0 W/m 12,8 C 0,0 km/h (0 Bft)
12.09.2016 21:55 15,7 C 15,7 C 83 % 1016,4 hPa 0,0 mm 0,0 km/h (0 Bft) S-SO 150 0 min 0,000 mm 0,0 UV-I 0 W/m 12,8 C 0,0 km/h (0 Bft)
12.09.2016 21:56 15,7 C 15,7 C 83 % 1016,4 hPa 0,0 mm 0,0 km/h (0 Bft) S-SO 150 0 min 0,000 mm 0,0 UV-I 0 W/m 12,8 C 0,0 km/h (0 Bft)
12.09.2016 21:57 15,7 C 15,7 C 83 % 1016,4 hPa 0,0 mm 0,0 km/h (0 Bft) S-SO 150 0 min 0,000 mm 0,0 UV-I 0 W/m 12,8 C 0,0 km/h (0 Bft)
12.09.2016 21:58 15,7 C 15,7 C 83 % 1016,3 hPa 0,0 mm 0,0 km/h (0 Bft) S-SO 150 0 min 0,000 mm 0,0 UV-I 0 W/m 12,8 C 0,0 km/h (0 Bft)
12.09.2016 21:59 15,7 C 15,7 C 83 % 1016,4 hPa 0,0 mm 0,0 km/h (0 Bft) S-SO 150 0 min 0,000 mm 0,0 UV-I 0 W/m 12,8 C 0,0 km/h (0 Bft)
12.09.2016 22:00 15,7 C 15,8 C 83 % 1016,4 hPa 0,0 mm 0,0 km/h (0 Bft) S-SO 150 0 min 0,025 mm 0,0 UV-I 0 W/m 12,8 C 0,0 km/h (0 Bft)
12.09.2016 22:01 15,7 C 15,7 C 83 % 1016,4 hPa 0,0 mm 0,0 km/h (0 Bft) S-SO 150 0 min 0,000 mm 0,0 UV-I 0 W/m 12,8 C 0,0 km/h (0 Bft)
12.09.2016 22:02 15,6 C 15,7 C 84 % 1016,5 hPa 0,0 mm 0,0 km/h (0 Bft) S-SO 150 0 min 0,000 mm 0,0 UV-I 0 W/m 12,9 C 0,0 km/h (0 Bft)
12.09.2016 22:03 15,5 C 15,6 C 84 % 1016,4 hPa 0,0 mm 0,0 km/h (0 Bft) S-SO 150 0 min 0,000 mm 0,0 UV-I 0 W/m 12,8 C 0,0 km/h (0 Bft)
12.09.2016 22:04 15,4 C 15,5 C 84 % 1016,4 hPa 0,0 mm 0,0 km/h (0 Bft) S-SO 150 0 min 0,000 mm 0,0 UV-I 0 W/m 12,7 C 0,0 km/h (0 Bft)
12.09.2016 22:05 15,3 C 15,4 C 85 % 1016,4 hPa 0,0 mm 0,0 km/h (0 Bft) S-SO 150 0 min 0,000 mm 0,0 UV-I 0 W/m 12,8 C 0,0 km/h (0 Bft)
12.09.2016 22:06 15,3 C 15,3 C 85 % 1016,4 hPa 0,0 mm 0,0 km/h (0 Bft) S-SO 150 0 min 0,000 mm 0,0 UV-I 0 W/m 12,8 C 0,0 km/h (0 Bft)
12.09.2016 22:07 15,3 C 15,3 C 85 % 1016,4 hPa 0,0 mm 0,0 km/h (0 Bft) S-SO 150 0 min 0,000 mm 0,0 UV-I 0 W/m 12,8 C 0,0 km/h (0 Bft)
12.09.2016 22:08 15,3 C 15,3 C 85 % 1016,4 hPa 0,0 mm 0,0 km/h (0 Bft) S-SO 150 0 min 0,000 mm 0,0 UV-I 0 W/m 12,8 C 0,0 km/h (0 Bft)
12.09.2016 22:09 15,3 C 15,3 C 85 % 1016,4 hPa 0,0 mm 0,0 km/h (0 Bft) S-SO 150 0 min 0,000 mm 0,0 UV-I 0 W/m 12,8 C 0,0 km/h (0 Bft)
12.09.2016 22:10 15,3 C 15,3 C 84 % 1016,4 hPa 0,0 mm 0,0 km/h (0 Bft) S-SO 150 0 min 0,000 mm 0,0 UV-I 0 W/m 12,6 C 0,0 km/h (0 Bft)
12.09.2016 22:11 15,3 C 15,3 C 85 % 1016,4 hPa 0,0 mm 0,0 km/h (0 Bft) S-SO 150 0 min 0,000 mm 0,0 UV-I 0 W/m 12,8 C 0,0 km/h (0 Bft)
12.09.2016 22:12 15,3 C 15,3 C 85 % 1016,4 hPa 0,0 mm 0,0 km/h (0 Bft) S-SO 150 0 min 0,000 mm 0,0 UV-I 0 W/m 12,8 C 0,0 km/h (0 Bft)
12.09.2016 22:13 15,3 C 15,3 C 85 % 1016,5 hPa 0,0 mm 0,0 km/h (0 Bft) S-SO 150 0 min 0,000 mm 0,0 UV-I 0 W/m 12,8 C 0,0 km/h (0 Bft)
12.09.2016 22:14 15,2 C 15,3 C 85 % 1016,4 hPa 0,0 mm 0,0 km/h (0 Bft) S-SO 150 0 min 0,000 mm 0,0 UV-I 0 W/m 12,7 C 0,0 km/h (0 Bft)
12.09.2016 22:15 15,2 C 15,3 C 85 % 1016,5 hPa 0,0 mm 0,0 km/h (0 Bft) S-SO 150 0 min 0,000 mm 0,0 UV-I 0 W/m 12,7 C 0,0 km/h (0 Bft)
12.09.2016 22:16 15,2 C 15,2 C 85 % 1016,4 hPa 0,0 mm 0,0 km/h (0 Bft) S-SO 150 0 min 0,000 mm 0,0 UV-I 0 W/m 12,7 C 0,0 km/h (0 Bft)
12.09.2016 22:17 15,2 C 15,2 C 85 % 1016,4 hPa 0,0 mm 0,0 km/h (0 Bft) S-SO 150 0 min 0,000 mm 0,0 UV-I 0 W/m 12,7 C 0,0 km/h (0 Bft)
12.09.2016 22:18 15,2 C 15,2 C 85 % 1016,4 hPa 0,0 mm 0,0 km/h (0 Bft) S-SO 150 0 min 0,000 mm 0,0 UV-I 0 W/m 12,7 C 0,0 km/h (0 Bft)
12.09.2016 22:19 15,3 C 15,3 C 85 % 1016,5 hPa 0,0 mm 0,0 km/h (0 Bft) S-SO 150 0 min 0,000 mm 0,0 UV-I 0 W/m 12,8 C 0,0 km/h (0 Bft)
12.09.2016 22:20 15,3 C 15,3 C 84 % 1016,4 hPa 0,0 mm 0,0 km/h (0 Bft) S-SO 150 0 min 0,000 mm 0,0 UV-I 0 W/m 12,6 C 0,0 km/h (0 Bft)
12.09.2016 22:21 15,4 C 15,4 C 84 % 1016,4 hPa 0,0 mm 0,0 km/h (0 Bft) S-SO 150 0 min 0,000 mm 0,0 UV-I 0 W/m 12,7 C 0,0 km/h (0 Bft)
12.09.2016 22:22 15,4 C 15,5 C 84 % 1016,4 hPa 0,0 mm 0,0 km/h (0 Bft) S-SO 150 0 min 0,000 mm 0,0 UV-I 0 W/m 12,7 C 0,0 km/h (0 Bft)
12.09.2016 22:23 15,5 C 15,5 C 84 % 1016,4 hPa 0,0 mm 0,0 km/h (0 Bft) S-SO 150 0 min 0,000 mm 0,0 UV-I 0 W/m 12,8 C 0,0 km/h (0 Bft)
12.09.2016 22:24 15,6 C 15,6 C 84 % 1016,4 hPa 0,0 mm 0,0 km/h (0 Bft) S-SO 150 0 min 0,000 mm 0,0 UV-I 0 W/m 12,9 C 0,0 km/h (0 Bft)
12.09.2016 22:25 15,6 C 15,6 C 83 % 1016,4 hPa 0,0 mm 0,0 km/h (0 Bft) S-SO 150 0 min 0,000 mm 0,0 UV-I 0 W/m 12,7 C 0,0 km/h (0 Bft)
12.09.2016 22:26 15,6 C 15,6 C 83 % 1016,4 hPa 0,0 mm 0,0 km/h (0 Bft) S-SO 150 0 min 0,000 mm 0,0 UV-I 0 W/m 12,7 C 0,0 km/h (0 Bft)
12.09.2016 22:27 15,7 C 15,7 C 83 % 1016,4 hPa 0,0 mm 0,0 km/h (0 Bft) S-SO 150 0 min 0,000 mm 0,0 UV-I 0 W/m 12,8 C 0,0 km/h (0 Bft)
12.09.2016 22:28 15,6 C 15,7 C 83 % 1016,4 hPa 0,0 mm 0,0 km/h (0 Bft) S-SO 150 0 min 0,000 mm 0,0 UV-I 0 W/m 12,7 C 0,0 km/h (0 Bft)
12.09.2016 22:29 15,6 C 15,6 C 83 % 1016,4 hPa 0,0 mm 0,0 km/h (0 Bft) S-SO 150 0 min 0,000 mm 0,0 UV-I 0 W/m 12,7 C 0,0 km/h (0 Bft)
12.09.2016 22:30 15,5 C 15,6 C 84 % 1016,5 hPa 0,0 mm 0,0 km/h (0 Bft) S-SO 150 0 min 0,000 mm 0,0 UV-I 0 W/m 12,8 C 0,0 km/h (0 Bft)
12.09.2016 22:31 15,4 C 15,5 C 84 % 1016,4 hPa 0,0 mm 0,0 km/h (0 Bft) S-SO 150 0 min 0,000 mm 0,0 UV-I 0 W/m 12,7 C 0,0 km/h (0 Bft)
12.09.2016 22:32 15,3 C 15,4 C 84 % 1016,4 hPa 0,0 mm 0,0 km/h (0 Bft) S-SO 150 0 min 0,000 mm 0,0 UV-I 0 W/m 12,6 C 0,0 km/h (0 Bft)
12.09.2016 22:33 15,3 C 15,3 C 84 % 1016,4 hPa 0,0 mm 0,0 km/h (0 Bft) S-SO 150 0 min 0,000 mm 0,0 UV-I 0 W/m 12,6 C 0,0 km/h (0 Bft)
12.09.2016 22:34 15,3 C 15,3 C 84 % 1016,4 hPa 0,0 mm 0,0 km/h (0 Bft) S-SO 150 0 min 0,000 mm 0,0 UV-I 0 W/m 12,6 C 0,0 km/h (0 Bft)
12.09.2016 22:35 15,3 C 15,3 C 84 % 1016,5 hPa 0,0 mm 0,0 km/h (0 Bft) S-SO 150 0 min 0,000 mm 0,0 UV-I 0 W/m 12,6 C 0,0 km/h (0 Bft)
12.09.2016 22:36 15,3 C 15,3 C 84 % 1016,5 hPa 0,0 mm 0,0 km/h (0 Bft) S-SO 150 0 min 0,000 mm 0,0 UV-I 0 W/m 12,6 C 0,0 km/h (0 Bft)
12.09.2016 22:37 15,3 C 15,3 C 84 % 1016,5 hPa 0,0 mm 0,0 km/h (0 Bft) S-SO 150 0 min 0,000 mm 0,0 UV-I 0 W/m 12,6 C 0,0 km/h (0 Bft)
12.09.2016 22:38 15,3 C 15,3 C 83 % 1016,5 hPa 0,0 mm 0,0 km/h (0 Bft) S-SO 150 0 min 0,000 mm 0,0 UV-I 0 W/m 12,4 C 0,0 km/h (0 Bft)
12.09.2016 22:39 15,2 C 15,3 C 84 % 1016,5 hPa 0,0 mm 0,0 km/h (0 Bft) S-SO 150 0 min 0,000 mm 0,0 UV-I 0 W/m 12,5 C 0,0 km/h (0 Bft)
12.09.2016 22:40 15,2 C 15,2 C 84 % 1016,5 hPa 0,0 mm 0,0 km/h (0 Bft) S-SO 150 0 min 0,000 mm 0,0 UV-I 0 W/m 12,5 C 0,0 km/h (0 Bft)
12.09.2016 22:41 15,2 C 15,2 C 85 % 1016,6 hPa 0,0 mm 0,0 km/h (0 Bft) S-SO 150 0 min 0,000 mm 0,0 UV-I 0 W/m 12,7 C 0,0 km/h (0 Bft)
12.09.2016 22:42 15,1 C 15,2 C 84 % 1016,5 hPa 0,0 mm 0,0 km/h (0 Bft) S-SO 150 0 min 0,000 mm 0,0 UV-I 0 W/m 12,4 C 0,0 km/h (0 Bft)
12.09.2016 22:43 15,2 C 15,2 C 84 % 1016,6 hPa 0,0 mm 0,0 km/h (0 Bft) S-SO 150 0 min 0,000 mm 0,0 UV-I 0 W/m 12,5 C 0,0 km/h (0 Bft)
12.09.2016 22:44 15,2 C 15,2 C 84 % 1016,6 hPa 0,0 mm 0,0 km/h (0 Bft) S-SO 150 0 min 0,000 mm 0,0 UV-I 0 W/m 12,5 C 0,0 km/h (0 Bft)
12.09.2016 22:45 15,2 C 15,2 C 84 % 1016,6 hPa 0,0 mm 0,0 km/h (0 Bft) S-SO 150 0 min 0,000 mm 0,0 UV-I 0 W/m 12,5 C 0,0 km/h (0 Bft)
12.09.2016 22:46 15,2 C 15,2 C 84 % 1016,5 hPa 0,0 mm 0,0 km/h (0 Bft) S-SO 150 0 min 0,000 mm 0,0 UV-I 0 W/m 12,5 C 0,0 km/h (0 Bft)
12.09.2016 22:47 15,2 C 15,2 C 84 % 1016,5 hPa 0,0 mm 0,0 km/h (0 Bft) S-SO 150 0 min 0,000 mm 0,0 UV-I 0 W/m 12,5 C 0,0 km/h (0 Bft)
12.09.2016 22:48 15,2 C 15,2 C 84 % 1016,5 hPa 0,0 mm 0,0 km/h (0 Bft) S-SO 150 0 min 0,000 mm 0,0 UV-I 0 W/m 12,5 C 0,0 km/h (0 Bft)
12.09.2016 22:49 15,2 C 15,2 C 84 % 1016,5 hPa 0,0 mm 0,0 km/h (0 Bft) S-SO 150 0 min 0,000 mm 0,0 UV-I 0 W/m 12,5 C 0,0 km/h (0 Bft)
12.09.2016 22:50 15,2 C 15,2 C 84 % 1016,5 hPa 0,0 mm 0,0 km/h (0 Bft) S-SO 150 0 min 0,000 mm 0,0 UV-I 0 W/m 12,5 C 0,0 km/h (0 Bft)
12.09.2016 22:51 15,3 C 15,3 C 84 % 1016,5 hPa 0,0 mm 0,0 km/h (0 Bft) S-SO 150 0 min 0,000 mm 0,0 UV-I 0 W/m 12,6 C 0,0 km/h (0 Bft)
12.09.2016 22:52 15,3 C 15,3 C 84 % 1016,5 hPa 0,0 mm 0,0 km/h (0 Bft) S-SO 150 0 min 0,000 mm 0,0 UV-I 0 W/m 12,6 C 0,0 km/h (0 Bft)
12.09.2016 22:53 15,3 C 15,3 C 83 % 1016,6 hPa 0,0 mm 0,0 km/h (0 Bft) S-SO 150 0 min 0,000 mm 0,0 UV-I 0 W/m 12,4 C 0,0 km/h (0 Bft)
12.09.2016 22:54 15,4 C 15,4 C 83 % 1016,5 hPa 0,0 mm 0,0 km/h (0 Bft) S-SO 150 0 min 0,000 mm 0,0 UV-I 0 W/m 12,5 C 0,0 km/h (0 Bft)
12.09.2016 22:55 15,3 C 15,4 C 83 % 1016,5 hPa 0,0 mm 0,0 km/h (0 Bft) S-SO 150 0 min 0,000 mm 0,0 UV-I 0 W/m 12,4 C 0,0 km/h (0 Bft)
12.09.2016 22:56 15,3 C 15,3 C 83 % 1016,5 hPa 0,0 mm 0,0 km/h (0 Bft) S-SO 150 0 min 0,000 mm 0,0 UV-I 0 W/m 12,4 C 0,0 km/h (0 Bft)
12.09.2016 22:57 15,3 C 15,3 C 83 % 1016,5 hPa 0,0 mm 0,0 km/h (0 Bft) S-SO 150 0 min 0,000 mm 0,0 UV-I 0 W/m 12,4 C 0,0 km/h (0 Bft)
12.09.2016 22:58 15,3 C 15,3 C 83 % 1016,5 hPa 0,0 mm 0,0 km/h (0 Bft) S-SO 150 0 min 0,000 mm 0,0 UV-I 0 W/m 12,4 C 0,0 km/h (0 Bft)
12.09.2016 22:59 15,3 C 15,3 C 83 % 1016,5 hPa 0,0 mm 0,0 km/h (0 Bft) S-SO 150 0 min 0,000 mm 0,0 UV-I 0 W/m 12,4 C 0,0 km/h (0 Bft)
12.09.2016 23:00 15,2 C 15,3 C 83 % 1016,5 hPa 0,0 mm 0,0 km/h (0 Bft) S-SO 150 0 min 0,000 mm 0,0 UV-I 0 W/m 12,3 C 0,0 km/h (0 Bft)
12.09.2016 23:01 15,2 C 15,3 C 83 % 1016,5 hPa 0,0 mm 0,0 km/h (0 Bft) S-SO 150 0 min 0,026 mm 0,0 UV-I 0 W/m 12,3 C 0,0 km/h (0 Bft)
12.09.2016 23:02 15,2 C 15,2 C 83 % 1016,5 hPa 0,0 mm 0,0 km/h (0 Bft) S-SO 150 0 min 0,000 mm 0,0 UV-I 0 W/m 12,3 C 0,0 km/h (0 Bft)
12.09.2016 23:03 15,2 C 15,2 C 83 % 1016,5 hPa 0,0 mm 0,0 km/h (0 Bft) S-SO 150 0 min 0,000 mm 0,0 UV-I 0 W/m 12,3 C 0,0 km/h (0 Bft)
12.09.2016 23:04 15,3 C 15,3 C 83 % 1016,4 hPa 0,0 mm 0,0 km/h (0 Bft) S-SO 150 0 min 0,000 mm 0,0 UV-I 0 W/m 12,4 C 0,0 km/h (0 Bft)
12.09.2016 23:05 15,3 C 15,3 C 83 % 1016,4 hPa 0,0 mm 0,0 km/h (0 Bft) S-SO 150 0 min 0,000 mm 0,0 UV-I 0 W/m 12,4 C 0,0 km/h (0 Bft)
12.09.2016 23:06 15,3 C 15,3 C 84 % 1016,4 hPa 0,0 mm 0,0 km/h (0 Bft) S-SO 150 0 min 0,000 mm 0,0 UV-I 0 W/m 12,6 C 0,0 km/h (0 Bft)
12.09.2016 23:07 15,4 C 15,4 C 83 % 1016,4 hPa 0,0 mm 0,0 km/h (0 Bft) S-SO 150 0 min 0,000 mm 0,0 UV-I 0 W/m 12,5 C 0,0 km/h (0 Bft)
12.09.2016 23:08 15,4 C 15,4 C 83 % 1016,4 hPa 0,0 mm 0,0 km/h (0 Bft) S-SO 150 0 min 0,000 mm 0,0 UV-I 0 W/m 12,5 C 0,0 km/h (0 Bft)
12.09.2016 23:09 15,4 C 15,4 C 82 % 1016,4 hPa 0,0 mm 0,0 km/h (0 Bft) S-SO 150 0 min 0,000 mm 0,0 UV-I 0 W/m 12,3 C 0,0 km/h (0 Bft)
12.09.2016 23:10 15,4 C 15,4 C 83 % 1016,4 hPa 0,0 mm 0,0 km/h (0 Bft) S-SO 150 0 min 0,000 mm 0,0 UV-I 0 W/m 12,5 C 0,0 km/h (0 Bft)
12.09.2016 23:11 15,4 C 15,4 C 83 % 1016,5 hPa 0,0 mm 0,0 km/h (0 Bft) S-SO 150 0 min 0,000 mm 0,0 UV-I 0 W/m 12,5 C 0,0 km/h (0 Bft)
12.09.2016 23:12 15,4 C 15,4 C 83 % 1016,5 hPa 0,0 mm 0,0 km/h (0 Bft) S-SO 150 0 min 0,000 mm 0,0 UV-I 0 W/m 12,5 C 0,0 km/h (0 Bft)
12.09.2016 23:13 15,4 C 15,4 C 83 % 1016,5 hPa 0,0 mm 0,0 km/h (0 Bft) S-SO 150 0 min 0,000 mm 0,0 UV-I 0 W/m 12,5 C 0,0 km/h (0 Bft)
12.09.2016 23:14 15,4 C 15,4 C 82 % 1016,5 hPa 0,0 mm 0,0 km/h (0 Bft) S-SO 150 0 min 0,000 mm 0,0 UV-I 0 W/m 12,3 C 0,0 km/h (0 Bft)
12.09.2016 23:15 15,5 C 15,5 C 82 % 1016,5 hPa 0,0 mm 0,0 km/h (0 Bft) S-SO 150 0 min 0,000 mm 0,0 UV-I 0 W/m 12,4 C 0,0 km/h (0 Bft)
12.09.2016 23:16 15,6 C 15,6 C 82 % 1016,5 hPa 0,0 mm 0,0 km/h (0 Bft) S-SO 150 0 min 0,000 mm 0,0 UV-I 0 W/m 12,5 C 0,0 km/h (0 Bft)
12.09.2016 23:17 15,6 C 15,6 C 82 % 1016,5 hPa 0,0 mm 0,0 km/h (0 Bft) S-SO 150 0 min 0,000 mm 0,0 UV-I 0 W/m 12,5 C 0,0 km/h (0 Bft)
12.09.2016 23:18 15,6 C 15,7 C 81 % 1016,4 hPa 0,0 mm 0,0 km/h (0 Bft) S-SO 150 0 min 0,000 mm 0,0 UV-I 0 W/m 12,3 C 0,0 km/h (0 Bft)
12.09.2016 23:19 15,6 C 15,7 C 81 % 1016,4 hPa 0,0 mm 0,0 km/h (0 Bft) S-SO 150 0 min 0,000 mm 0,0 UV-I 0 W/m 12,3 C 0,0 km/h (0 Bft)
12.09.2016 23:20 15,6 C 15,6 C 81 % 1016,4 hPa 0,0 mm 0,0 km/h (0 Bft) S-SO 150 0 min 0,000 mm 0,0 UV-I 0 W/m 12,3 C 0,0 km/h (0 Bft)
12.09.2016 23:21 15,6 C 15,6 C 81 % 1016,4 hPa 0,0 mm 0,0 km/h (0 Bft) S-SO 150 0 min 0,000 mm 0,0 UV-I 0 W/m 12,3 C 0,0 km/h (0 Bft)
12.09.2016 23:22 15,6 C 15,6 C 81 % 1016,4 hPa 0,0 mm 0,0 km/h (0 Bft) S-SO 150 0 min 0,000 mm 0,0 UV-I 0 W/m 12,3 C 0,0 km/h (0 Bft)
12.09.2016 23:23 15,6 C 15,6 C 82 % 1016,4 hPa 0,0 mm 0,0 km/h (0 Bft) S-SO 150 0 min 0,000 mm 0,0 UV-I 0 W/m 12,5 C 0,0 km/h (0 Bft)
12.09.2016 23:24 15,6 C 15,6 C 82 % 1016,5 hPa 0,0 mm 0,0 km/h (0 Bft) S-SO 150 0 min 0,000 mm 0,0 UV-I 0 W/m 12,5 C 0,0 km/h (0 Bft)
12.09.2016 23:25 15,6 C 15,6 C 82 % 1016,4 hPa 0,0 mm 0,0 km/h (0 Bft) S-SO 150 0 min 0,000 mm 0,0 UV-I 0 W/m 12,5 C 0,0 km/h (0 Bft)
12.09.2016 23:26 15,6 C 15,6 C 82 % 1016,5 hPa 0,0 mm 0,0 km/h (0 Bft) S-SO 150 0 min 0,000 mm 0,0 UV-I 0 W/m 12,5 C 0,0 km/h (0 Bft)
12.09.2016 23:27 15,6 C 15,6 C 82 % 1016,4 hPa 0,0 mm 0,0 km/h (0 Bft) S-SO 150 0 min 0,000 mm 0,0 UV-I 0 W/m 12,5 C 0,0 km/h (0 Bft)
12.09.2016 23:28 15,6 C 15,6 C 82 % 1016,4 hPa 0,0 mm 0,0 km/h (0 Bft) S-SO 150 0 min 0,000 mm 0,0 UV-I 0 W/m 12,5 C 0,0 km/h (0 Bft)
12.09.2016 23:29 15,6 C 15,6 C 81 % 1016,4 hPa 0,0 mm 0,0 km/h (0 Bft) S-SO 150 0 min 0,000 mm 0,0 UV-I 0 W/m 12,3 C 0,0 km/h (0 Bft)
12.09.2016 23:30 15,6 C 15,6 C 82 % 1016,4 hPa 0,0 mm 0,0 km/h (0 Bft) S-SO 150 0 min 0,000 mm 0,0 UV-I 0 W/m 12,5 C 0,0 km/h (0 Bft)
12.09.2016 23:31 15,6 C 15,6 C 82 % 1016,5 hPa 0,0 mm 0,0 km/h (0 Bft) S-SO 150 0 min 0,000 mm 0,0 UV-I 0 W/m 12,5 C 0,0 km/h (0 Bft)
12.09.2016 23:32 15,5 C 15,6 C 82 % 1016,4 hPa 0,0 mm 0,0 km/h (0 Bft) S-SO 150 0 min 0,000 mm 0,0 UV-I 0 W/m 12,4 C 0,0 km/h (0 Bft)
12.09.2016 23:33 15,4 C 15,5 C 82 % 1016,4 hPa 0,0 mm 0,0 km/h (0 Bft) S-SO 150 0 min 0,000 mm 0,0 UV-I 0 W/m 12,3 C 0,0 km/h (0 Bft)
12.09.2016 23:34 15,4 C 15,4 C 83 % 1016,5 hPa 0,0 mm 0,0 km/h (0 Bft) S-SO 150 0 min 0,000 mm 0,0 UV-I 0 W/m 12,5 C 0,0 km/h (0 Bft)
12.09.2016 23:35 15,3 C 15,4 C 83 % 1016,5 hPa 0,0 mm 0,0 km/h (0 Bft) S-SO 150 0 min 0,000 mm 0,0 UV-I 0 W/m 12,4 C 0,0 km/h (0 Bft)
12.09.2016 23:36 15,2 C 15,3 C 82 % 1016,5 hPa 0,0 mm 0,0 km/h (0 Bft) S-SO 150 0 min 0,000 mm 0,0 UV-I 0 W/m 12,1 C 0,0 km/h (0 Bft)
12.09.2016 23:37 15,2 C 15,2 C 82 % 1016,5 hPa 0,0 mm 0,0 km/h (0 Bft) S-SO 150 0 min 0,000 mm 0,0 UV-I 0 W/m 12,1 C 0,0 km/h (0 Bft)
12.09.2016 23:38 15,1 C 15,2 C 82 % 1016,5 hPa 0,0 mm 0,0 km/h (0 Bft) S-SO 150 0 min 0,000 mm 0,0 UV-I 0 W/m 12,0 C 0,0 km/h (0 Bft)
12.09.2016 23:39 15,1 C 15,1 C 82 % 1016,5 hPa 0,0 mm 0,0 km/h (0 Bft) S-SO 150 0 min 0,000 mm 0,0 UV-I 0 W/m 12,0 C 0,0 km/h (0 Bft)
12.09.2016 23:40 15,0 C 15,1 C 83 % 1016,5 hPa 0,0 mm 0,0 km/h (0 Bft) S-SO 150 0 min 0,000 mm 0,0 UV-I 0 W/m 12,1 C 0,0 km/h (0 Bft)
12.09.2016 23:41 14,9 C 15,0 C 83 % 1016,5 hPa 0,0 mm 0,0 km/h (0 Bft) S-SO 150 0 min 0,000 mm 0,0 UV-I 0 W/m 12,0 C 0,0 km/h (0 Bft)
12.09.2016 23:42 14,9 C 14,9 C 83 % 1016,5 hPa 0,0 mm 0,0 km/h (0 Bft) S-SO 150 0 min 0,000 mm 0,0 UV-I 0 W/m 12,0 C 0,0 km/h (0 Bft)
12.09.2016 23:43 14,8 C 14,9 C 83 % 1016,5 hPa 0,0 mm 0,0 km/h (0 Bft) S-SO 150 0 min 0,000 mm 0,0 UV-I 0 W/m 11,9 C 0,0 km/h (0 Bft)
12.09.2016 23:44 14,7 C 14,8 C 83 % 1016,5 hPa 0,0 mm 0,0 km/h (0 Bft) S-SO 150 0 min 0,000 mm 0,0 UV-I 0 W/m 11,8 C 0,0 km/h (0 Bft)
12.09.2016 23:45 14,7 C 14,7 C 84 % 1016,5 hPa 0,0 mm 0,0 km/h (0 Bft) S-SO 150 0 min 0,000 mm 0,0 UV-I 0 W/m 12,0 C 0,0 km/h (0 Bft)
12.09.2016 23:46 14,6 C 14,7 C 84 % 1016,5 hPa 0,0 mm 0,0 km/h (0 Bft) S-SO 150 0 min 0,000 mm 0,0 UV-I 0 W/m 11,9 C 0,0 km/h (0 Bft)
12.09.2016 23:47 14,6 C 14,6 C 84 % 1016,4 hPa 0,0 mm 0,0 km/h (0 Bft) S-SO 150 0 min 0,000 mm 0,0 UV-I 0 W/m 11,9 C 0,0 km/h (0 Bft)
12.09.2016 23:48 14,6 C 14,6 C 84 % 1016,5 hPa 0,0 mm 0,0 km/h (0 Bft) S-SO 150 0 min 0,000 mm 0,0 UV-I 0 W/m 11,9 C 0,0 km/h (0 Bft)
12.09.2016 23:49 14,6 C 14,6 C 85 % 1016,5 hPa 0,0 mm 0,0 km/h (0 Bft) S-SO 150 0 min 0,000 mm 0,0 UV-I 0 W/m 12,1 C 0,0 km/h (0 Bft)
12.09.2016 23:50 14,6 C 14,6 C 85 % 1016,4 hPa 0,0 mm 0,0 km/h (0 Bft) S-SO 150 0 min 0,000 mm 0,0 UV-I 0 W/m 12,1 C 0,0 km/h (0 Bft)
12.09.2016 23:51 14,6 C 14,6 C 85 % 1016,4 hPa 0,0 mm 0,0 km/h (0 Bft) S-SO 150 0 min 0,000 mm 0,0 UV-I 0 W/m 12,1 C 0,0 km/h (0 Bft)
12.09.2016 23:52 14,6 C 14,6 C 84 % 1016,4 hPa 0,0 mm 0,0 km/h (0 Bft) S-SO 150 0 min 0,000 mm 0,0 UV-I 0 W/m 11,9 C 0,0 km/h (0 Bft)
12.09.2016 23:53 14,6 C 14,6 C 85 % 1016,4 hPa 0,0 mm 0,0 km/h (0 Bft) S-SO 150 0 min 0,000 mm 0,0 UV-I 0 W/m 12,1 C 0,0 km/h (0 Bft)
12.09.2016 23:54 14,6 C 14,6 C 85 % 1016,4 hPa 0,0 mm 0,0 km/h (0 Bft) S-SO 150 0 min 0,000 mm 0,0 UV-I 0 W/m 12,1 C 0,0 km/h (0 Bft)
12.09.2016 23:55 14,5 C 14,6 C 85 % 1016,4 hPa 0,0 mm 0,0 km/h (0 Bft) S-SO 150 0 min 0,000 mm 0,0 UV-I 0 W/m 12,0 C 0,0 km/h (0 Bft)
12.09.2016 23:56 14,4 C 14,5 C 86 % 1016,4 hPa 0,0 mm 0,0 km/h (0 Bft) S-SO 150 0 min 0,000 mm 0,0 UV-I 0 W/m 12,1 C 0,0 km/h (0 Bft)
12.09.2016 23:57 14,4 C 14,4 C 86 % 1016,4 hPa 0,0 mm 0,0 km/h (0 Bft) S-SO 150 0 min 0,000 mm 0,0 UV-I 0 W/m 12,1 C 0,0 km/h (0 Bft)
12.09.2016 23:58 14,5 C 14,5 C 86 % 1016,4 hPa 0,0 mm 0,0 km/h (0 Bft) S-SO 150 0 min 0,000 mm 0,0 UV-I 0 W/m 12,2 C 0,0 km/h (0 Bft)
12.09.2016 23:59 14,5 C 14,5 C 86 % 1016,4 hPa 0,0 mm 0,0 km/h (0 Bft) S-SO 150 0 min 0,000 mm 0,0 UV-I 0 W/m 12,2 C 0,0 km/h (0 Bft)
_ Min-Zeit 07:13 07:13 15:12 19:17 - 23:59 - - - - - - 07:10 23:59
Minimum _ 10,7 C 10,7 C 48 % 1015,6 hPa - 0,0 km/h (0 Bft) - - - - - - 9,1 C 0,0 km/h (0 Bft)
_ Max-Zeit 15:36 15:36 07:17 10:33 23:59 14:50 - - 15:09 15:00 13:26 13:18 13:44 14:51
Maximum _ 25,4 C 25,4 C 93 % 1017,3 hPa 0,0 mm 8,0 km/h
NO (2 Bft)
- - 2 min 0,432 mm 5,1 UV-I 696 W/m 17,8 C 12,9 km/h
N (3 Bft)
Durchschnitt _ 17,6 C 17,7 C 76 % 1016,4 hPa #0,0 mm 1,0 km/h (0 Bft) O - #7:55 h #2,972 mm 3,4 UV-I 189 W/m 13,0 C 1,8 km/h (1 Bft)